GFSCGP_sfc_wetblb_048.txt.gz
Wetbulb
51.77 48.34 44.42 46.53 47.26 47.11 46.52 44.92 43.72 46.13 47.89 48.10 46.69 47.53 48.28 53.59 56.02 55.51 56.79 57.61 57.64 57.90 59.29 60.97 62.19 63.26 63.94 64.26 63.83 64.43 63.08 62.06 61.40 59.85 57.71 56.46 56.52 56.67 57.12 57.92 57.73 57.29 57.12 56.60
48.82 45.70 47.79 48.41 47.51 46.85 46.11 45.21 44.84 46.23 47.06 48.53 48.48 48.07 49.58 52.62 54.26 56.19 56.36 56.86 57.02 57.82 58.84 59.92 61.99 63.18 63.59 63.45 63.64 63.81 63.51 63.14 63.95 62.98 61.19 59.93 58.96 58.37 58.01 57.70 56.81 56.65 56.26 56.06
47.03 46.86 48.78 48.19 47.39 46.42 46.52 45.78 45.44 45.01 46.59 48.30 48.23 46.09 48.11 49.81 52.55 53.57 55.26 56.81 57.71 58.29 58.26 59.27 60.47 62.36 63.35 63.14 63.57 63.42 63.76 63.82 62.78 61.22 60.02 58.99 57.99 57.37 56.65 56.74 56.62 55.61 55.53 55.38
47.77 48.85 48.12 48.21 46.61 47.73 44.73 47.47 46.90 46.00 45.62 42.39 47.26 40.70 47.08 49.28 49.33 51.29 53.11 55.53 56.64 56.99 57.76 57.64 57.23 58.33 59.82 60.96 61.74 61.57 61.84 61.30 60.54 60.05 58.58 57.28 57.37 56.12 56.55 57.88 56.68 56.79 55.58 55.07
46.05 47.29 47.38 46.57 46.44 47.85 45.83 48.20 47.41 46.57 45.93 45.16 44.90 42.56 46.28 49.08 47.66 50.06 52.60 54.95 56.39 57.00 57.49 55.35 56.12 56.99 57.83 58.39 58.77 59.01 58.62 58.15 58.13 57.86 57.93 57.85 55.97 56.43 57.03 57.24 54.41 54.85 54.54 53.14
48.48 50.64 49.76 48.61 48.88 49.37 50.04 48.68 48.10 47.93 46.45 39.87 43.66 43.26 43.11 46.64 48.37 50.70 53.11 54.47 55.71 56.36 56.05 55.66 56.66 57.03 56.94 57.96 58.14 58.04 57.41 56.73 57.09 57.19 57.12 56.44 55.06 53.03 53.22 52.49 51.06 51.22 51.22 51.33
47.27 47.34 49.58 50.00 48.08 49.62 49.23 46.21 40.15 37.79 38.36 37.31 43.92 42.39 44.02 47.99 49.26 52.01 52.48 54.01 55.36 55.17 55.20 55.42 55.37 55.60 56.27 56.53 57.17 57.51 57.00 55.67 56.23 55.89 54.96 53.52 52.07 50.66 50.23 49.98 50.20 49.09 48.88 49.28
42.85 40.44 46.55 48.57 48.21 46.50 46.52 45.54 40.01 31.13 34.70 39.52 43.02 39.77 45.87 49.35 50.70 52.46 54.54 55.21 54.23 54.51 55.37 55.57 55.96 56.19 56.40 56.35 56.94 56.19 55.69 54.01 53.74 53.09 51.82 51.61 50.90 52.51 51.11 50.23 49.93 49.39 49.15 49.20
43.14 41.81 47.87 47.90 49.51 48.98 45.88 43.84 46.52 40.61 40.00 38.73 42.59 44.23 47.67 48.94 49.23 50.82 53.05 53.11 53.32 54.51 55.21 55.50 56.03 56.58 56.93 56.76 55.68 55.89 54.21 52.53 51.04 49.03 49.32 49.00 50.21 49.90 49.64 49.96 50.15 49.97 50.10 49.11
46.90 41.29 46.06 46.98 48.98 48.83 47.86 48.72 41.34 43.06 32.57 31.47 37.93 39.39 42.53 45.87 47.78 49.74 51.69 52.03 53.61 54.57 54.88 55.42 55.73 55.58 55.81 55.31 54.75 53.46 51.57 48.78 47.84 48.21 47.99 48.04 49.37 49.40 49.38 49.38 48.49 47.98 48.06 47.89
49.13 46.20 43.65 45.96 45.10 44.82 45.05 44.30 44.19 44.05 41.11 34.68 33.90 39.18 47.73 47.32 49.98 49.93 51.94 52.94 54.01 54.01 53.82 53.60 53.55 53.47 53.25 52.78 51.54 50.25 49.47 48.28 47.14 45.56 46.33 49.00 48.64 47.19 47.08 46.53 45.89 45.63 45.70 45.17
48.00 46.97 42.09 43.48 46.53 47.85 46.92 45.53 45.54 39.49 37.08 40.19 39.19 39.32 47.14 49.07 50.49 52.08 52.44 53.14 54.10 53.30 52.12 51.78 51.20 50.28 49.99 49.94 49.35 47.00 49.31 46.71 45.16 47.11 47.46 46.34 45.99 45.69 45.13 44.65 44.89 45.20 44.25 44.60
48.06 44.90 39.77 40.47 44.22 46.32 44.35 45.91 45.21 42.95 42.93 38.42 37.21 39.43 47.01 48.66 48.79 51.55 52.15 51.66 51.12 50.71 50.05 49.94 49.72 49.34 49.34 47.71 46.77 45.10 46.28 44.62 45.49 45.94 45.20 44.93 44.66 44.24 43.99 44.08 44.29 44.14 43.86 43.71
47.59 45.59 43.52 39.64 41.51 45.06 41.85 43.57 44.38 43.47 38.27 38.82 39.64 40.65 43.58 46.96 48.19 49.71 51.20 51.21 50.19 49.15 49.00 49.16 48.65 48.27 47.16 45.94 45.44 45.83 43.71 44.81 45.04 44.48 43.79 43.23 43.70 43.92 43.89 43.67 43.55 43.40 43.53 43.05
48.63 43.23 43.08 41.97 41.80 42.01 42.41 42.54 43.26 41.66 42.51 38.91 41.30 40.75 43.35 46.31 48.18 49.89 50.79 50.00 48.49 48.19 48.04 47.86 47.58 46.87 46.38 45.72 43.93 43.52 43.73 44.32 44.00 42.74 42.30 42.50 43.75 43.93 43.48 43.04 42.99 43.11 43.07 42.61
46.65 42.87 42.11 39.89 40.51 40.45 39.40 42.10 42.78 43.72 43.77 42.80 43.10 42.06 47.26 47.69 48.35 49.23 48.68 48.21 47.26 47.43 47.36 47.04 46.57 45.44 44.74 43.07 43.57 41.86 42.69 43.34 42.74 41.75 41.34 42.05 42.35 42.61 42.80 42.28 42.11 42.33 42.21 42.04
45.44 43.37 40.51 36.62 37.59 37.90 36.38 41.21 42.83 43.09 44.33 43.95 40.56 44.98 47.04 46.07 46.69 48.25 48.51 48.10 47.61 47.30 46.55 45.67 44.71 43.57 43.02 42.65 42.11 42.18 42.70 42.58 41.24 40.44 39.98 40.11 40.63 40.92 41.55 41.40 41.58 41.26 41.11 40.51
42.99 42.31 39.25 37.16 33.59 31.88 40.96 43.30 43.28 43.85 44.99 45.83 44.76 45.03 46.56 47.58 48.66 49.96 50.86 49.32 48.04 47.60 46.19 44.95 44.02 42.68 42.65 42.71 42.18 42.15 42.19 41.00 39.39 38.98 38.88 39.38 39.66 39.62 40.57 40.94 40.73 40.51 39.51 38.91
44.97 41.92 35.34 37.19 34.36 38.30 40.53 40.46 39.89 39.71 40.98 45.51 45.07 45.66 46.60 46.68 47.36 47.39 49.97 50.25 49.41 48.19 46.93 45.78 44.93 43.54 41.99 41.91 41.82 41.25 39.94 39.03 38.31 37.72 38.35 38.68 39.24 39.32 40.11 39.69 39.94 39.89 37.25 37.93
42.36 43.09 42.22 34.74 35.67 33.49 39.92 42.76 45.98 45.27 38.28 45.56 46.41 46.48 46.03 46.55 43.36 45.59 49.06 49.13 48.58 47.14 46.20 44.16 41.64 40.31 41.52 40.66 40.69 38.99 38.14 37.73 37.15 37.58 37.84 38.74 39.28 39.42 38.86 39.13 39.11 38.72 37.53 36.48
38.90 38.58 38.15 36.31 37.18 38.54 42.94 44.27 46.02 36.06 38.99 46.23 47.67 48.16 47.21 45.93 47.58 47.00 49.89 47.67 46.63 45.61 42.92 39.73 39.54 39.42 40.23 39.89 39.08 37.45 37.68 36.97 37.67 38.29 38.39 38.57 38.70 37.81 37.17 35.81 37.40 37.65 36.65 34.73
39.40 38.24 36.18 34.88 34.68 33.16 44.06 44.33 40.72 45.88 47.36 47.11 48.04 48.58 48.24 47.14 45.02 46.15 46.95 45.25 43.01 40.23 37.65 38.41 38.65 38.69 38.99 38.95 37.70 37.19 37.21 38.46 38.22 38.19 37.79 37.52 37.82 37.24 36.90 35.83 37.33 36.63 35.62 33.07
38.83 43.13 42.16 41.24 42.04 44.71 46.31 47.69 48.65 47.32 46.36 47.47 47.51 48.08 48.01 45.92 44.88 44.82 43.48 41.57 37.22 36.74 37.74 37.83 38.24 37.14 38.05 37.72 37.54 36.38 37.58 37.78 37.41 36.87 36.32 36.86 37.48 36.99 36.95 35.46 34.93 32.63 33.17 32.32
43.39 43.56 42.28 40.72 44.23 44.97 46.36 48.04 48.33 48.42 48.00 48.06 48.07 48.63 48.50 46.79 45.14 42.23 37.72 35.11 34.88 35.41 36.00 37.50 36.78 36.12 35.80 37.25 37.12 37.59 37.68 37.63 36.70 35.73 34.50 32.57 32.34 35.13 35.66 35.10 33.82 32.43 31.72 31.10
44.82 43.78 42.70 42.28 45.38 45.95 46.19 47.04 47.58 47.50 47.03 46.73 46.70 47.11 47.18 46.21 42.42 36.96 34.12 33.70 34.95 35.13 35.73 36.89 36.03 35.18 35.67 36.61 36.83 37.31 36.86 36.79 35.29 35.10 34.01 32.58 32.12 31.96 32.62 33.31 33.54 33.13 33.89 32.65
44.53 43.79 42.10 42.23 43.89 44.50 44.56 45.83 46.15 46.18 45.93 46.18 44.68 43.27 43.47 40.78 36.19 34.66 33.56 34.52 35.40 36.83 36.83 35.72 35.63 35.55 36.01 35.88 35.72 36.26 36.71 36.44 35.54 34.09 33.61 32.30 31.79 31.58 31.43 31.10 31.46 31.88 30.82 30.39

GFSCGP_sfc_wetblb_051.txt.gz
Wetbulb
52.84 48.63 45.87 47.01 48.31 47.87 46.49 45.26 44.38 46.49 48.65 47.67 47.15 48.58 50.95 55.63 56.25 56.67 57.60 57.90 58.70 59.42 60.94 62.58 63.50 64.26 64.83 65.67 65.72 64.71 62.48 63.66 63.98 63.25 61.94 60.75 59.68 58.89 58.56 58.45 58.76 58.56 58.27 58.00
50.04 45.89 49.37 49.49 48.28 47.72 47.12 45.11 44.21 47.19 48.49 48.61 47.53 47.55 50.60 53.78 55.08 56.27 56.85 57.98 58.83 59.70 60.81 61.97 63.58 64.34 64.62 64.67 64.34 63.18 63.14 63.52 64.37 63.55 63.31 62.20 60.52 59.24 58.87 58.76 58.55 58.20 58.09 57.22
46.90 48.41 50.72 48.48 47.35 46.66 46.96 45.52 46.20 45.64 47.81 48.56 48.79 47.66 49.44 53.29 55.78 57.20 58.29 59.14 59.83 60.14 60.61 61.78 62.69 62.60 62.29 61.92 63.50 64.19 64.35 64.27 63.87 62.55 61.25 60.81 59.66 58.85 57.44 57.60 57.60 57.20 57.19 56.60
47.91 51.04 48.39 47.88 46.83 47.99 44.26 49.19 47.62 46.61 46.10 41.84 49.19 39.68 47.93 50.75 52.35 54.50 56.54 58.05 59.09 60.10 60.72 61.29 61.85 62.61 63.28 63.24 63.79 62.87 62.81 62.60 61.53 61.09 59.44 58.53 56.52 55.31 57.48 57.69 57.74 57.65 56.92 55.62
46.56 48.62 48.14 47.14 47.74 49.76 47.04 49.83 48.22 47.40 46.21 44.85 46.12 42.46 45.62 51.34 49.61 51.69 55.00 57.21 58.71 59.27 59.73 58.49 59.21 60.16 61.00 61.73 61.75 62.14 61.78 60.50 60.33 59.75 59.46 58.43 57.86 58.24 58.15 56.89 55.68 55.39 55.25 54.45
48.17 52.60 50.97 50.44 50.32 50.27 50.92 48.99 48.70 48.48 46.71 40.82 44.28 44.19 43.78 48.43 50.08 52.41 54.52 56.44 57.67 58.78 58.31 57.58 58.17 58.49 58.98 60.28 60.07 59.85 59.15 58.63 59.08 59.00 58.78 57.90 56.85 55.81 55.23 54.35 52.66 52.56 52.18 51.90
48.10 48.63 51.12 51.88 48.79 50.64 49.81 47.08 40.46 39.03 39.35 38.29 46.06 43.64 44.89 50.30 51.42 53.37 54.23 55.84 57.89 58.87 57.06 56.65 56.66 57.20 58.15 58.42 59.02 59.06 58.32 57.46 58.47 58.51 57.62 56.31 54.69 52.77 51.85 51.97 51.66 50.44 49.90 50.00
43.12 41.77 48.61 51.24 49.84 47.82 47.98 47.02 41.16 33.15 35.57 39.30 45.63 39.83 45.77 52.32 52.60 54.49 56.29 56.94 58.01 57.28 56.62 56.62 57.20 57.67 58.01 58.16 58.50 58.41 58.08 57.17 57.34 56.34 54.61 54.00 52.29 53.06 52.25 51.58 50.88 50.30 49.94 50.12
43.55 42.97 50.01 49.87 50.92 50.20 47.61 44.12 48.72 42.80 43.14 39.51 41.55 45.96 50.01 51.56 51.53 53.43 54.83 56.07 56.34 55.83 56.41 56.79 57.54 58.12 58.29 58.16 58.41 58.26 57.58 56.43 55.00 53.22 51.94 51.30 51.99 50.89 50.37 50.90 51.05 50.25 50.26 49.03
47.80 42.56 48.13 49.05 50.82 50.76 48.95 50.75 42.70 43.51 34.13 33.31 39.95 41.20 43.76 47.20 49.24 51.62 53.59 54.85 55.24 55.91 56.48 57.13 57.77 58.07 58.60 58.47 58.30 58.37 57.31 54.24 51.19 51.13 50.40 48.43 49.39 50.98 50.69 50.11 48.85 48.21 47.72 47.01
49.90 47.02 45.91 48.02 46.62 45.65 47.11 45.30 45.71 45.78 43.79 36.45 34.77 40.63 49.10 48.24 50.56 50.85 53.26 54.76 55.11 55.80 56.51 57.14 57.70 58.28 58.36 58.06 56.91 54.95 53.36 51.42 50.63 48.49 48.56 48.67 49.82 48.93 48.48 47.71 47.12 46.31 46.32 45.72
50.49 47.77 42.94 45.22 49.13 50.24 49.41 47.10 47.02 41.33 39.42 41.60 40.91 40.41 49.45 50.43 51.72 52.53 53.06 54.54 55.79 56.66 56.93 57.33 57.19 56.44 55.90 54.95 54.02 52.60 51.71 49.68 47.85 47.89 48.47 47.86 47.62 47.60 46.85 45.88 45.77 46.12 45.23 45.44
50.95 45.43 40.39 42.45 46.36 48.46 46.09 47.30 47.13 47.02 45.08 40.71 38.47 40.62 50.28 50.85 50.29 52.00 52.60 54.33 55.34 56.18 56.31 55.59 54.94 53.36 53.09 52.87 51.65 51.15 48.80 46.83 45.53 48.43 46.55 46.69 46.18 45.59 45.31 45.21 45.40 45.26 44.91 44.62
49.39 46.96 43.88 40.13 43.31 46.93 44.87 45.98 47.08 45.72 40.75 40.58 40.99 43.00 46.14 48.17 48.57 50.31 51.89 54.11 55.04 55.17 54.32 53.79 53.01 52.79 52.73 51.44 50.52 48.16 47.36 47.43 46.91 45.88 45.35 44.59 44.61 45.02 45.14 44.99 44.57 44.58 44.58 43.90
50.76 44.75 46.32 46.33 46.07 45.74 45.44 45.04 45.63 44.20 44.41 41.49 43.12 43.24 44.97 47.10 48.98 50.28 51.63 53.04 53.30 52.87 52.80 52.55 52.09 51.86 51.07 49.73 48.36 48.43 47.04 46.33 46.16 44.68 43.81 43.69 44.59 44.69 44.42 44.24 44.31 44.24 44.02 43.60
50.76 44.83 45.87 42.78 45.79 45.12 43.28 45.43 45.35 45.11 45.27 44.46 44.43 43.92 48.91 50.01 49.60 49.44 50.72 51.73 52.00 51.90 52.16 52.30 51.72 50.92 49.63 48.85 47.10 46.55 45.81 45.00 44.97 43.18 42.48 42.95 42.78 42.47 42.75 43.24 43.44 43.42 43.11 43.08
48.71 46.31 42.69 38.31 41.93 41.86 37.36 43.30 44.54 45.34 46.33 45.81 42.61 46.67 49.49 48.01 47.93 48.61 50.39 51.43 51.45 51.71 51.79 51.30 50.45 49.80 48.92 47.35 46.46 44.30 44.59 44.43 43.06 41.90 41.63 41.32 41.25 40.98 41.47 42.06 42.32 42.25 42.25 42.34
47.44 46.35 44.02 38.82 35.81 30.97 42.95 46.13 45.45 44.82 46.37 47.62 47.24 47.82 48.24 48.65 49.91 50.84 52.25 52.03 51.59 51.75 51.45 50.77 50.06 48.64 47.30 46.09 43.97 44.33 43.92 42.75 41.33 40.71 40.22 40.45 40.79 40.46 41.21 41.43 41.61 41.93 42.04 40.95
49.03 46.07 39.08 36.62 36.63 40.77 42.78 43.84 42.64 41.78 42.47 46.29 46.29 46.79 47.47 49.58 49.94 50.01 52.25 52.86 52.79 52.41 51.79 50.91 49.77 47.61 46.15 43.84 43.65 43.28 42.11 41.46 40.11 39.43 39.45 39.97 40.43 40.02 40.62 40.59 41.03 41.17 40.64 39.79
45.70 46.54 43.36 38.46 35.63 32.60 42.48 45.25 47.46 46.96 39.22 46.71 47.35 47.17 47.84 48.76 44.64 48.17 51.91 52.44 52.27 52.24 51.28 49.43 48.32 45.75 43.10 42.48 43.00 41.45 40.45 39.55 38.81 39.16 39.36 40.19 40.41 40.18 39.99 39.92 38.96 39.62 39.94 38.96
41.19 41.98 39.27 38.72 37.15 41.52 46.40 46.84 47.94 37.83 41.18 48.23 48.59 48.24 48.45 47.36 49.25 51.08 52.16 51.41 52.07 50.88 49.23 47.20 43.76 41.95 42.84 42.53 41.42 39.42 39.16 38.62 39.64 39.56 39.91 40.10 40.41 40.04 39.89 39.21 38.62 38.07 38.47 37.35
41.16 40.79 36.93 40.74 33.91 33.27 47.14 46.31 42.09 47.56 49.29 49.12 49.51 50.05 49.77 50.45 48.85 49.17 50.57 49.63 48.73 46.97 42.80 41.79 41.38 41.36 41.75 41.18 39.96 38.27 37.86 39.52 39.79 39.48 39.26 39.12 39.69 39.43 39.10 38.76 38.38 38.14 36.81 34.77
41.76 46.02 44.57 43.65 43.27 48.01 49.01 48.27 50.99 50.35 49.20 49.63 49.80 50.20 49.94 49.73 47.88 48.35 48.34 47.15 44.28 40.89 40.68 42.07 41.32 40.71 40.55 39.82 38.82 36.97 37.96 39.01 39.12 38.55 38.42 38.31 37.97 37.55 38.09 38.17 37.24 35.84 33.41 32.92
47.04 47.65 44.66 43.61 45.99 47.09 48.06 49.44 50.15 50.40 49.71 50.31 50.57 50.28 50.46 49.58 49.26 47.30 46.17 41.63 40.50 40.43 40.11 39.85 38.82 38.55 38.12 38.74 38.09 38.22 38.87 39.10 38.30 37.70 37.88 37.82 36.23 35.01 35.13 36.44 35.99 34.54 33.56 32.86
47.69 47.06 44.85 44.78 46.86 47.31 48.31 49.33 49.68 50.16 50.01 49.24 49.37 49.62 49.73 49.99 47.76 43.95 40.79 39.53 38.89 37.69 38.83 39.82 38.65 37.77 37.02 37.87 37.85 38.56 38.67 38.55 37.50 37.52 37.37 36.74 36.35 33.83 32.83 32.84 33.81 34.21 35.53 34.06
48.07 45.79 44.20 43.21 46.95 47.04 47.51 48.43 49.02 48.70 48.62 48.54 47.57 46.85 47.78 46.23 41.65 40.12 38.11 37.13 37.26 37.60 38.74 38.27 37.60 36.69 37.00 37.83 37.83 38.37 39.06 38.74 37.38 36.23 36.15 36.46 35.11 33.53 32.20 31.79 32.26 33.46 32.34 31.87

GFSCGP_sfc_wetblb_054.txt.gz
Wetbulb
52.08 47.36 44.42 45.91 47.86 47.42 46.85 45.22 44.86 46.75 49.06 47.45 46.41 47.32 49.89 52.97 54.64 54.91 55.66 56.40 56.88 57.42 60.09 61.42 62.69 63.66 63.12 63.82 64.64 63.01 60.99 61.24 61.56 60.68 59.69 58.78 58.08 58.17 57.13 57.26 57.73 57.34 56.99 56.69
47.67 44.92 49.14 50.04 49.51 47.81 46.38 45.08 43.90 46.26 47.26 47.02 46.35 46.44 49.23 51.76 52.62 55.53 56.34 56.84 57.50 58.13 59.11 60.62 62.24 63.54 64.09 64.25 62.90 62.48 62.25 61.45 62.23 62.62 62.16 60.87 58.94 57.44 56.84 57.03 56.89 57.08 56.37 55.62
45.51 45.72 50.78 49.57 46.89 45.04 46.59 45.09 45.15 44.59 46.24 47.59 47.24 44.45 47.55 51.16 53.56 55.13 56.18 57.51 58.26 58.58 58.89 60.67 61.98 62.78 63.76 62.58 62.91 62.91 62.66 62.48 63.17 62.65 60.66 60.10 59.21 57.14 55.55 55.65 55.29 55.58 55.85 55.35
46.95 50.17 48.53 47.87 45.99 47.16 43.66 48.62 46.93 46.49 44.89 39.64 47.62 37.42 45.65 49.27 50.96 53.49 55.30 56.20 57.57 58.93 60.39 61.28 61.69 61.07 61.64 62.05 62.83 63.31 63.57 63.03 62.48 60.40 59.07 57.41 55.06 53.82 55.20 55.30 55.73 55.46 55.50 53.91
46.37 47.14 46.91 46.06 46.78 49.89 45.31 48.31 48.59 46.71 44.59 44.16 42.61 40.23 43.87 48.55 48.24 51.37 54.57 56.72 58.24 59.56 60.13 60.38 61.09 61.18 62.29 62.93 62.98 62.47 61.65 60.75 60.01 59.49 58.66 57.30 56.54 56.29 55.95 55.36 54.57 53.89 53.54 53.48
48.06 51.86 49.96 49.13 49.43 50.02 51.55 48.52 48.44 47.52 45.70 37.17 41.77 41.49 42.27 44.97 48.61 51.43 54.17 56.22 57.88 58.79 59.36 59.46 60.77 60.77 60.12 61.69 61.39 61.30 59.43 58.67 58.98 58.36 58.30 57.27 56.03 53.73 52.55 51.78 50.33 51.36 50.47 49.88
46.81 46.83 50.54 51.85 47.66 50.02 49.00 46.01 39.41 34.32 36.10 37.34 44.56 42.41 44.01 48.33 50.75 52.92 53.68 55.44 57.51 58.23 57.47 57.02 56.90 57.06 57.77 57.99 58.59 58.57 57.77 56.82 57.69 57.69 57.24 56.09 53.63 51.63 50.80 51.06 49.79 48.74 48.29 47.90
42.16 40.68 47.69 50.43 47.78 45.20 46.53 44.97 38.43 32.54 32.63 38.48 44.60 39.66 44.71 51.44 52.97 55.39 55.65 56.28 57.37 57.75 56.62 56.00 56.01 56.58 57.12 57.53 57.65 57.65 56.88 56.34 57.17 56.76 54.67 53.71 52.09 51.48 50.70 49.67 48.63 48.50 47.88 47.78
42.25 42.03 48.66 50.46 50.27 49.94 46.71 43.47 48.13 41.95 43.23 39.29 41.13 43.37 49.94 51.20 50.81 53.18 54.44 55.56 56.24 57.18 55.85 55.67 56.39 56.99 57.02 57.20 57.52 57.81 57.07 56.32 56.00 53.64 52.64 51.44 50.73 49.50 49.02 49.55 49.24 48.22 47.59 46.57
45.99 39.43 47.39 49.68 50.55 50.16 47.66 48.91 42.66 43.23 33.96 32.48 38.25 40.36 42.62 46.82 48.10 51.18 52.92 54.39 56.07 56.76 55.79 55.79 56.28 57.07 57.44 57.77 57.96 58.26 57.53 54.01 51.63 51.17 50.32 49.45 48.34 48.65 49.79 48.40 47.24 46.39 45.15 44.84
49.28 43.99 45.57 48.39 45.91 44.05 46.23 44.50 44.94 43.86 43.39 36.30 34.79 38.85 49.69 48.28 49.96 50.26 52.69 54.84 55.98 55.50 55.30 55.94 56.58 57.22 58.02 56.82 57.17 56.89 55.80 51.04 50.08 48.81 48.60 48.44 48.84 48.63 47.31 46.12 45.33 44.34 44.18 43.61
49.64 47.33 42.63 44.61 49.21 49.88 48.19 46.37 45.98 41.13 38.53 42.67 40.25 39.42 49.85 51.14 51.67 51.97 52.03 54.62 55.96 55.90 55.88 56.45 57.01 56.68 57.05 56.32 55.63 54.58 52.69 50.68 48.70 48.66 48.52 48.52 48.68 46.72 45.64 44.85 44.36 44.32 43.21 43.65
50.40 45.92 39.53 41.44 46.09 48.81 45.56 46.19 46.32 46.43 46.62 40.39 37.99 39.80 50.09 50.08 50.67 51.65 51.66 53.90 54.62 55.36 55.87 56.36 56.76 55.76 55.64 55.14 53.91 52.33 49.99 48.10 47.95 47.14 46.91 46.82 45.42 44.55 43.76 43.73 43.98 43.79 42.96 42.58
51.90 47.01 42.79 38.67 41.77 46.19 44.36 45.26 46.12 45.36 41.10 40.45 40.72 42.42 45.99 48.07 48.13 49.52 51.21 52.95 54.33 54.85 55.45 55.93 55.20 54.46 53.74 53.48 51.71 50.11 48.07 48.06 46.68 46.93 45.39 44.25 43.33 43.44 43.59 43.53 43.12 43.00 42.95 42.00
50.12 42.88 44.16 44.70 45.85 46.10 45.40 45.14 45.34 43.63 44.40 40.38 43.10 42.58 45.38 48.02 49.11 49.75 51.04 51.99 52.99 53.89 54.82 54.49 53.65 52.74 52.37 51.15 50.02 48.83 47.84 47.18 46.87 44.99 43.97 43.03 43.44 43.47 43.12 42.56 43.07 43.07 42.65 42.11
50.75 44.35 45.76 43.66 46.34 45.84 43.25 44.85 45.12 44.99 44.91 44.24 44.73 43.76 48.89 49.84 50.13 49.49 49.96 50.86 50.80 52.81 53.39 53.67 53.23 52.61 51.61 49.99 48.74 48.07 46.79 46.49 45.41 44.00 42.09 42.39 42.18 41.75 41.48 41.93 41.97 41.91 41.59 41.43
48.61 46.48 43.80 39.19 42.83 41.03 35.63 42.59 43.71 44.46 45.76 45.49 41.47 46.43 49.53 48.12 48.45 49.43 49.53 49.95 51.18 52.31 52.69 52.74 52.59 51.83 50.58 49.54 48.38 46.16 45.52 45.05 43.28 42.01 41.45 41.54 41.07 40.75 40.85 40.98 40.74 40.55 40.20 40.37
48.67 47.43 45.16 39.90 35.82 30.90 42.36 47.05 45.83 44.04 44.78 45.84 45.69 47.09 48.07 48.71 49.69 50.47 51.48 51.62 51.59 52.46 52.55 52.60 51.86 50.62 49.46 47.81 46.00 44.72 43.69 42.91 41.70 40.78 40.33 40.37 40.37 39.72 40.06 40.19 40.19 40.00 39.93 38.55
50.78 47.20 40.73 35.05 36.12 40.06 42.61 44.66 43.32 42.36 42.14 46.78 45.80 46.63 48.16 49.37 49.48 48.90 51.83 52.61 52.63 52.62 52.76 51.95 50.91 48.85 46.85 44.79 44.24 43.57 42.21 42.25 40.42 39.47 39.43 39.66 39.79 39.11 39.14 38.84 39.11 38.60 37.53 37.50
46.92 49.24 42.73 39.36 34.45 30.57 42.92 45.74 47.45 46.59 38.75 46.56 46.82 47.33 47.38 47.86 43.04 46.97 51.44 51.88 51.99 52.91 52.25 50.27 48.40 46.95 44.14 43.03 43.18 41.73 40.47 40.04 38.85 39.40 39.29 39.30 39.38 39.26 38.68 38.63 37.67 37.29 36.06 36.51
41.02 41.59 37.97 37.93 35.97 40.38 47.50 47.53 47.88 37.74 40.58 48.18 48.36 48.11 48.70 46.50 48.58 50.51 52.15 51.33 52.17 51.55 49.79 48.09 44.74 42.32 42.34 42.26 41.23 39.58 38.97 38.27 39.58 40.03 39.55 39.28 39.37 38.70 38.72 38.11 37.42 36.48 35.65 35.13
39.88 39.97 35.80 41.06 34.03 32.95 48.24 46.08 42.07 47.56 50.48 49.29 49.53 50.55 50.29 49.81 49.37 50.35 50.48 49.93 48.59 43.12 42.46 42.54 41.48 41.44 41.05 40.65 39.46 37.82 37.12 38.75 39.46 39.17 38.65 38.42 38.70 38.07 37.75 36.21 36.64 36.89 34.59 31.81
41.63 45.79 43.83 42.93 41.74 49.62 49.29 49.07 51.15 50.72 49.07 49.64 49.80 50.31 50.47 50.56 48.63 48.92 48.14 44.97 41.46 41.19 40.66 41.95 40.88 39.49 39.63 39.46 38.85 36.56 37.36 38.65 38.67 38.03 37.66 37.89 38.34 37.54 36.22 34.36 33.61 33.20 32.15 29.56
47.75 49.13 46.44 45.08 46.82 47.69 48.68 49.90 50.74 50.48 49.71 50.03 50.34 49.72 50.04 48.92 49.86 48.04 43.56 41.16 39.87 40.48 39.62 39.33 38.39 37.77 37.99 39.08 38.47 37.93 38.56 38.96 37.88 36.95 36.98 36.90 35.79 35.45 34.74 33.92 32.99 31.67 31.68 29.87
48.22 48.22 45.31 45.26 47.31 47.97 48.39 49.06 49.38 49.73 50.22 49.78 49.80 49.59 49.58 49.96 47.16 43.33 40.36 39.40 38.88 38.98 39.37 39.29 38.13 37.71 37.73 38.11 37.60 38.39 38.47 38.60 36.86 36.62 36.46 35.53 35.01 34.25 32.15 33.03 32.24 31.69 32.14 31.66
48.86 46.55 45.07 44.41 47.12 47.51 46.91 48.41 49.47 48.70 48.11 47.87 46.25 43.83 43.91 43.48 40.72 39.47 37.91 38.43 38.39 38.16 39.30 38.73 38.58 37.28 37.21 37.52 37.64 38.09 38.64 38.29 37.14 35.77 34.80 33.63 32.91 32.57 31.90 31.54 31.33 33.01 32.64 32.50

GFSCGP_sfc_wetblb_057.txt.gz
Wetbulb
49.83 43.66 41.53 43.98 45.29 45.47 44.88 42.85 41.52 43.68 45.74 44.69 43.34 45.37 48.79 50.31 51.56 50.62 49.34 51.50 51.68 52.31 55.81 56.48 57.74 57.52 60.59 61.02 60.56 59.43 58.15 58.48 58.44 57.30 56.34 56.04 54.79 54.93 53.82 53.68 54.59 54.04 53.48 53.63
44.33 41.41 47.68 49.01 47.76 45.85 44.53 43.06 41.76 45.51 46.12 44.74 42.46 42.55 46.52 50.04 49.13 49.51 50.49 50.79 51.28 54.19 55.29 57.38 57.87 58.30 61.24 60.80 59.85 59.17 58.50 59.23 58.78 58.22 57.86 55.90 54.83 53.50 52.70 52.92 52.99 53.19 52.77 52.54
43.47 45.94 49.25 47.84 46.43 45.39 44.45 41.96 42.32 42.39 44.33 43.04 41.42 40.23 43.35 47.33 50.62 50.83 51.98 53.71 54.03 54.62 54.85 57.20 58.85 59.80 60.07 59.64 59.53 59.29 59.33 59.60 59.33 59.86 59.83 55.60 54.01 52.49 51.43 51.01 50.75 51.79 52.66 51.77
45.52 48.98 47.60 46.33 45.30 46.32 41.06 47.23 46.67 44.69 41.26 35.29 43.06 33.92 41.26 45.78 47.33 49.97 52.45 52.91 53.95 55.59 57.41 58.70 58.68 58.72 59.76 59.80 60.31 60.84 60.44 59.77 60.18 60.60 56.18 54.13 50.83 49.78 50.22 50.85 51.54 51.49 52.05 50.88
44.87 45.60 45.78 44.41 45.59 48.45 44.03 48.46 46.53 45.50 41.61 39.30 40.04 35.60 39.90 45.16 44.62 47.19 49.54 51.70 53.01 56.00 57.04 57.79 58.52 58.80 58.95 60.03 59.18 59.60 59.79 59.76 59.17 56.61 54.49 52.35 50.91 51.68 53.06 53.83 52.95 52.41 52.18 51.69
45.89 49.00 47.74 47.29 48.73 48.70 49.65 46.41 45.66 44.14 41.45 33.74 40.57 38.55 35.98 40.64 45.31 48.89 50.70 52.17 54.03 55.27 57.22 59.08 58.89 59.17 58.20 58.49 58.90 59.13 56.95 55.47 54.14 54.16 53.00 51.89 50.51 48.86 47.37 47.11 48.24 47.95 47.08 46.70
43.94 45.25 48.61 50.66 45.82 47.44 46.03 41.93 33.43 31.14 30.44 31.15 43.41 39.31 40.06 45.46 49.12 50.49 50.42 51.64 53.17 54.37 54.31 56.33 56.95 55.76 55.01 54.07 53.98 53.50 53.60 53.09 53.50 53.08 51.11 48.54 47.34 46.80 46.22 46.17 46.90 46.40 45.03 45.63
38.04 36.55 44.69 48.80 45.51 43.64 43.07 42.08 33.43 28.31 29.19 32.34 42.78 37.21 42.35 47.58 50.31 51.95 52.61 52.23 53.53 52.45 53.29 53.14 53.34 53.26 52.95 53.28 52.77 52.40 52.55 52.62 53.13 51.05 49.06 47.98 48.02 46.87 47.74 47.58 46.83 45.90 45.19 45.19
39.04 39.97 47.75 49.91 49.50 46.86 43.05 39.96 44.81 38.44 38.66 31.00 36.80 40.71 46.40 47.76 48.36 49.36 49.71 52.57 51.76 51.86 51.20 52.06 52.56 53.34 52.89 52.97 52.99 52.38 52.06 52.69 51.88 49.00 47.55 46.51 46.54 47.03 47.09 47.38 46.91 46.86 43.34 43.32
44.70 38.66 45.67 48.00 49.20 47.94 45.68 46.66 37.36 36.96 27.51 25.97 33.07 34.92 37.70 43.06 46.06 48.91 49.14 49.96 51.59 52.02 50.89 51.49 52.50 53.29 54.05 54.03 53.69 53.04 53.59 52.11 48.52 46.77 45.97 46.54 46.42 47.11 47.78 46.92 45.91 43.20 40.83 40.74
45.27 41.55 41.95 46.75 43.90 42.20 42.22 39.94 40.96 39.87 36.41 28.43 26.32 32.75 44.31 44.94 46.33 47.00 48.90 51.55 51.97 51.83 50.73 50.48 51.43 53.88 54.66 55.11 55.38 51.45 49.06 48.88 46.85 44.51 44.94 46.03 46.57 47.71 46.52 44.74 42.18 40.49 40.25 40.16
46.63 42.14 36.58 41.67 47.01 47.44 44.72 42.58 42.46 31.21 33.40 34.91 30.51 32.64 44.63 45.69 46.90 47.94 48.65 52.35 52.77 52.60 51.59 50.97 51.75 54.32 54.66 54.58 53.74 48.86 47.91 45.78 44.04 45.98 46.76 47.30 48.02 46.72 44.10 42.41 40.58 40.09 39.40 40.14
46.49 40.19 32.06 36.64 41.03 45.03 41.92 43.39 43.16 42.19 38.75 34.38 26.93 32.28 45.37 46.70 46.79 48.04 46.66 50.01 52.56 51.44 51.12 51.12 52.78 53.46 53.33 52.86 51.00 47.83 46.17 45.35 47.38 48.26 46.64 46.53 46.15 42.46 40.91 39.46 39.99 39.85 39.57 39.48
47.90 43.16 37.92 31.78 36.91 41.66 39.96 42.28 43.02 40.47 30.57 33.19 34.03 37.90 42.36 43.87 44.33 45.62 45.99 48.19 49.81 51.58 51.99 52.28 53.43 52.97 52.32 51.60 47.44 46.09 45.33 45.13 45.98 46.02 45.35 43.26 41.21 41.27 40.31 40.42 40.48 39.92 40.33 40.09
45.44 38.43 40.15 40.96 42.50 43.11 42.85 42.23 42.46 41.61 40.06 33.93 37.75 39.65 42.61 42.72 44.07 44.76 46.28 47.28 48.98 49.47 50.42 51.45 50.53 49.49 48.89 46.62 45.58 44.88 43.95 44.03 45.86 43.96 41.69 40.50 39.76 39.04 38.98 38.90 39.32 40.45 40.47 40.15
46.03 38.50 39.62 37.77 43.15 42.02 39.13 41.77 41.57 41.28 41.55 39.90 39.64 39.12 43.65 44.39 45.19 44.49 45.24 46.28 47.73 49.79 50.24 50.02 49.49 48.76 47.02 46.23 44.57 44.66 43.74 43.92 41.50 39.94 39.46 40.20 39.76 38.31 38.53 38.62 39.08 39.47 39.42 39.30
43.43 40.40 35.03 32.10 37.39 36.92 29.68 37.82 40.08 41.25 42.04 40.45 36.04 40.65 43.93 43.06 44.39 43.64 44.07 45.99 46.68 49.01 49.33 49.09 48.97 48.16 47.42 46.30 45.61 42.49 41.35 40.46 39.15 39.78 39.52 38.62 39.15 38.25 38.58 39.45 39.15 38.87 38.08 37.69
42.95 40.73 35.37 29.53 29.90 21.92 38.18 44.41 42.81 41.25 41.61 41.15 41.54 42.20 44.01 43.84 44.29 45.48 45.77 45.86 46.79 48.27 48.20 47.72 46.85 45.00 43.61 42.60 40.86 39.94 39.87 39.56 39.65 38.71 38.66 39.17 39.21 38.68 38.73 38.56 38.28 37.70 36.79 35.59
46.64 38.99 32.34 27.18 27.52 35.14 39.36 41.57 40.15 38.43 37.69 42.28 41.29 43.09 44.03 44.74 44.29 44.38 47.19 47.89 46.82 47.14 46.60 45.33 43.69 41.46 39.77 39.60 39.45 39.20 37.99 38.53 37.74 37.44 36.92 38.42 38.72 38.08 38.07 36.84 36.17 35.58 34.62 34.39
44.77 42.54 32.55 28.77 25.07 21.37 36.71 42.19 45.05 43.29 31.15 43.34 43.13 42.61 43.14 42.62 35.43 40.57 45.31 47.27 46.74 46.13 44.63 42.25 40.07 39.30 38.25 37.79 38.56 37.08 35.83 36.10 36.66 37.72 38.11 38.48 38.28 37.91 37.15 36.08 35.53 35.55 34.53 34.44
30.92 31.31 28.05 24.83 25.41 31.63 43.74 44.23 45.25 30.69 32.78 43.74 44.46 44.93 44.14 41.64 42.41 44.92 44.00 40.60 41.56 40.81 39.76 39.61 38.39 36.49 36.94 37.85 37.58 36.65 36.52 35.45 38.06 38.77 38.34 38.26 38.12 37.06 36.41 34.28 34.11 33.94 33.20 31.95
33.70 30.53 27.98 31.28 30.55 26.69 46.05 42.92 36.27 41.45 43.83 44.77 44.97 45.36 44.90 44.64 45.21 43.88 40.66 38.84 38.69 37.98 37.85 37.59 36.43 36.14 36.49 37.16 37.32 36.19 35.97 38.01 38.08 37.99 37.62 37.28 37.19 36.87 35.87 33.52 32.92 32.53 30.42 28.66
34.69 39.88 34.92 35.76 34.82 43.55 45.40 44.71 45.46 45.36 43.93 44.65 44.37 45.38 46.12 45.31 44.79 38.75 37.49 37.45 37.26 36.59 36.55 37.31 36.36 36.76 37.78 37.98 37.58 35.97 36.30 37.01 37.12 36.57 36.04 36.24 36.71 35.70 34.43 31.92 29.72 27.72 27.55 25.92
42.89 45.75 39.53 39.42 43.01 43.15 45.15 46.53 47.02 46.62 45.22 45.89 46.24 46.03 46.35 45.07 39.46 37.55 36.80 36.71 36.77 36.91 36.67 38.12 37.60 37.02 36.87 38.14 37.66 36.17 36.81 37.35 36.26 34.61 34.48 34.42 33.01 32.82 32.05 31.00 30.05 27.38 24.19 24.87
42.50 43.32 41.49 40.21 42.66 44.67 44.86 45.18 46.18 46.80 46.82 42.36 40.99 41.98 43.24 40.39 37.84 36.79 36.39 36.83 37.52 37.64 37.93 37.99 36.75 35.99 35.63 35.48 35.34 35.63 36.08 36.06 34.62 34.06 33.56 32.21 31.71 30.63 29.69 29.82 28.54 28.33 28.64 29.68
43.21 41.99 35.27 33.86 43.61 42.99 42.73 44.65 45.25 42.72 41.67 40.33 38.44 37.25 37.79 37.45 36.31 37.04 37.02 37.63 37.65 37.45 38.58 37.30 36.26 34.79 35.18 35.57 35.22 35.32 35.68 35.12 33.81 32.88 31.79 29.84 29.12 28.75 28.33 27.57 28.64 31.77 31.78 30.71

GFSCGP_sfc_wetblb_063.txt.gz
Wetbulb
45.71 40.95 36.79 39.06 41.99 43.58 42.72 39.82 38.16 41.43 42.93 43.11 41.82 40.85 43.88 49.51 48.51 50.73 52.17 53.97 53.48 53.88 54.67 55.83 58.75 57.79 56.51 56.17 58.41 58.55 57.27 56.80 56.32 55.39 54.36 53.04 52.64 52.55 51.54 51.58 52.32 52.45 52.46 51.86
42.19 38.49 43.84 45.37 44.88 44.39 42.58 39.62 39.12 42.34 43.67 43.28 40.56 39.53 41.75 46.85 48.34 50.99 51.80 53.01 53.07 52.73 52.67 54.77 56.01 55.16 55.86 57.14 57.90 57.62 57.77 56.80 56.49 56.19 55.24 54.96 53.27 52.68 51.38 51.68 51.44 51.48 50.93 49.68
39.36 42.35 46.41 45.19 42.92 42.32 41.11 39.35 39.11 39.47 40.12 41.29 39.62 38.46 41.55 47.17 49.42 50.43 53.10 53.83 54.53 53.35 52.72 54.17 55.71 54.99 56.51 56.95 57.18 57.50 57.43 57.13 56.90 56.23 55.36 52.97 51.68 50.74 50.00 49.64 49.16 49.66 50.58 49.64
41.63 44.90 44.53 42.54 42.19 42.66 37.39 43.29 42.39 41.09 36.60 32.83 39.02 31.25 38.25 43.81 47.12 47.45 49.63 49.08 50.65 52.83 53.68 53.97 54.34 55.90 56.69 57.37 57.81 57.49 57.63 57.37 57.53 56.93 55.92 53.81 50.67 49.10 49.02 48.88 48.59 49.14 49.92 49.06
40.90 42.07 42.55 41.70 42.64 44.16 40.76 44.60 42.75 41.81 37.63 34.92 35.40 32.44 36.06 41.88 44.17 46.74 47.27 49.05 48.69 51.61 52.02 52.43 54.32 56.90 57.72 57.75 56.94 57.10 57.63 57.83 57.70 57.74 56.66 52.91 49.60 48.74 48.71 48.77 48.57 48.45 47.68 47.33
41.67 45.00 44.55 43.18 45.08 45.16 45.72 42.85 41.48 39.39 36.88 30.24 35.37 34.09 33.37 37.50 43.48 47.64 49.20 49.04 49.74 51.09 52.60 54.65 55.37 57.69 58.51 58.18 57.10 57.08 57.85 57.49 57.37 57.14 55.66 53.09 50.03 48.51 48.32 47.96 47.40 45.51 44.80 44.90
39.97 41.50 43.87 46.52 42.27 43.69 41.96 37.46 29.73 28.37 28.08 28.53 37.80 35.12 37.08 41.96 43.12 45.13 48.21 49.24 50.05 52.31 53.75 56.06 56.28 57.46 58.19 57.98 57.22 57.58 57.58 56.60 56.64 55.92 53.70 52.04 49.43 48.94 48.58 47.10 44.48 43.46 43.65 44.12
34.75 33.22 41.41 44.54 42.23 39.23 39.95 37.54 30.21 26.26 26.13 28.99 38.02 33.01 38.12 43.96 46.80 45.96 47.21 48.64 50.73 52.24 55.09 56.08 56.88 57.40 57.89 57.72 57.52 57.34 56.36 52.43 52.18 51.21 50.69 47.87 47.13 46.13 45.85 45.04 44.24 45.02 45.22 43.13
34.54 35.68 44.04 45.69 45.65 43.79 39.70 36.54 40.20 33.94 32.53 29.05 32.11 36.22 41.67 43.94 44.10 46.21 47.92 48.99 49.98 52.42 54.88 55.70 56.34 56.72 56.96 56.74 56.40 54.10 51.88 49.63 47.54 46.75 46.61 45.87 47.22 46.67 46.26 46.74 46.79 45.56 45.86 45.37
39.78 34.85 42.62 44.41 46.21 44.84 41.27 43.63 34.74 33.75 26.63 25.02 29.10 30.92 33.49 39.91 42.22 44.07 45.31 48.66 49.79 52.64 54.76 55.68 55.63 55.25 55.49 55.58 54.60 51.23 51.17 48.60 46.26 46.15 47.45 46.90 46.69 46.71 47.02 47.79 46.77 46.23 44.62 42.63
41.67 37.79 36.99 42.81 40.73 39.44 39.59 37.18 37.29 36.83 32.03 26.89 24.70 29.97 38.99 41.90 43.48 44.94 45.06 48.27 49.66 50.85 53.38 54.40 54.82 54.44 54.24 52.94 51.42 51.15 50.24 47.35 45.34 45.47 45.66 46.25 46.31 46.28 46.47 45.28 45.19 43.81 42.13 40.78
42.32 37.76 32.78 38.28 43.07 44.34 41.41 39.38 38.28 29.99 30.72 30.60 28.50 30.16 40.55 42.78 44.60 45.89 46.27 47.75 49.52 50.53 52.13 53.63 54.04 52.82 51.12 50.63 50.73 50.43 49.81 47.11 45.66 45.43 44.50 45.18 45.55 44.46 45.08 45.47 43.88 41.50 38.59 39.99
43.05 36.32 30.52 34.30 38.61 42.50 40.33 39.87 40.17 37.94 33.47 29.95 25.30 30.22 41.71 41.72 43.47 45.05 46.03 47.13 49.48 49.53 50.21 51.48 52.21 51.88 51.18 50.46 48.36 45.85 44.22 43.19 45.36 46.31 46.74 46.02 46.84 44.88 43.15 41.42 40.74 38.48 38.55 38.22
44.60 38.28 35.66 30.90 35.34 38.90 36.66 39.07 38.89 37.47 29.48 30.74 30.75 34.38 39.42 41.64 41.77 43.37 44.07 46.51 48.47 50.01 49.63 49.79 50.45 50.47 49.90 47.81 44.84 43.53 44.36 46.49 46.93 46.49 47.25 46.07 43.78 43.04 40.02 38.47 38.69 38.64 38.12 37.37
42.26 36.47 36.86 37.75 38.68 38.76 38.37 38.50 37.88 36.59 36.09 32.08 35.25 34.94 39.53 40.96 41.42 42.30 43.56 44.15 46.98 48.65 47.75 47.49 48.18 48.47 46.21 44.91 44.58 45.27 46.56 47.86 47.43 46.84 44.27 42.37 41.42 39.50 37.73 38.20 36.24 36.49 38.99 37.39
42.30 35.08 35.06 34.10 36.88 37.67 36.30 38.84 38.09 37.57 37.33 37.20 36.80 36.15 41.12 41.09 40.57 41.17 42.06 43.45 44.92 47.19 47.44 48.09 48.85 46.57 44.58 44.70 45.61 45.09 45.73 45.64 44.55 41.66 38.95 38.51 37.33 37.62 37.43 37.51 36.45 37.58 36.64 36.93
39.57 36.71 31.65 30.11 33.53 33.71 29.49 34.55 37.60 38.30 38.99 38.21 33.87 38.23 38.72 38.43 40.15 39.65 41.18 41.64 44.18 45.91 47.23 48.05 46.86 45.48 44.98 44.39 45.19 44.16 41.99 41.29 38.25 37.89 37.01 37.67 38.35 37.84 37.40 38.05 37.53 35.71 34.77 35.26
38.29 35.26 30.62 27.08 28.38 21.86 36.29 40.41 39.83 37.93 36.93 37.63 38.24 38.05 39.35 39.92 40.57 41.30 41.64 42.55 44.88 46.08 46.19 45.95 45.67 44.04 43.41 41.81 39.34 37.87 37.64 37.40 36.16 35.68 36.21 36.90 36.58 37.49 37.43 36.84 35.43 34.50 34.78 34.07
42.18 34.62 29.32 26.70 27.19 32.11 37.58 38.85 37.40 36.00 34.92 38.59 38.54 39.57 40.60 40.66 40.79 41.13 40.03 39.24 39.25 39.56 38.71 38.41 39.07 38.28 37.61 36.47 36.32 36.02 34.86 35.00 35.19 36.23 36.12 37.06 37.80 36.77 36.20 34.80 34.30 33.72 33.09 32.20
39.88 37.26 32.90 25.70 23.43 22.88 35.37 39.22 40.61 39.56 29.97 40.16 40.10 39.91 39.97 38.73 32.08 36.93 36.57 36.01 34.81 35.42 35.81 34.89 34.99 35.26 34.62 34.24 35.72 35.12 33.90 34.94 34.63 36.98 38.75 38.00 37.29 35.63 34.86 34.49 33.13 32.12 30.96 31.30
30.86 30.24 28.54 23.45 22.31 30.62 38.34 41.21 40.62 29.64 31.83 40.38 40.97 40.04 39.66 37.99 36.75 35.72 35.14 34.14 34.76 34.73 34.48 35.03 34.62 33.65 33.91 35.10 35.71 34.10 34.27 35.38 37.43 37.71 37.52 36.80 36.41 35.18 34.38 33.16 32.37 31.24 30.01 28.59
33.68 30.05 26.30 24.59 20.21 26.93 41.16 39.93 35.26 37.13 40.70 42.65 41.88 41.36 38.56 35.19 34.87 34.58 34.24 33.61 33.76 32.97 33.41 34.30 33.89 33.70 33.99 36.12 37.30 36.14 34.29 35.60 36.96 36.21 35.85 35.14 34.63 34.11 33.95 31.95 31.21 30.18 28.69 27.01
32.83 35.52 32.95 33.54 32.86 40.04 41.31 40.12 41.24 42.58 42.34 42.53 42.28 41.55 38.01 35.41 34.04 34.16 33.10 32.91 32.73 32.89 33.12 34.42 35.33 36.79 37.01 36.74 36.73 34.37 35.17 35.53 35.14 34.25 33.73 33.47 33.77 32.91 32.09 30.44 29.65 28.24 27.56 25.90
39.43 41.05 35.64 36.32 39.45 39.94 41.42 42.91 43.21 42.95 42.71 43.11 43.43 39.98 38.18 34.37 34.53 33.21 32.89 32.72 32.76 33.22 33.88 36.00 36.39 35.51 35.21 35.42 34.70 34.49 34.38 33.91 33.57 32.69 32.47 31.93 30.25 30.40 30.05 29.67 29.70 27.81 27.00 26.75
40.16 41.34 38.45 36.79 39.60 41.50 42.29 41.85 39.65 38.71 39.04 39.20 39.98 39.33 36.27 35.35 34.04 33.65 33.23 33.47 33.64 34.17 36.28 36.72 35.68 34.58 33.66 33.51 31.64 32.55 33.14 32.71 30.99 30.10 29.84 29.35 29.42 28.88 29.06 29.68 29.08 29.75 30.53 30.28
40.93 39.71 36.58 35.43 41.24 39.82 41.00 40.78 39.56 38.45 37.37 37.55 36.15 35.14 36.22 35.71 34.34 34.92 34.45 35.12 36.05 35.65 36.43 35.21 32.77 31.76 31.18 31.19 31.61 32.20 32.50 31.78 29.81 28.83 28.75 28.80 28.87 28.70 28.67 28.28 29.39 32.21 32.22 31.99

GFSCGP_sfc_wetblb_066.txt.gz
Wetbulb
43.67 39.72 36.35 38.18 39.97 41.22 41.14 38.67 36.67 38.64 42.22 41.15 40.98 40.67 45.94 48.26 49.49 51.50 52.44 53.06 53.21 54.36 56.67 57.04 57.45 57.86 56.16 55.70 57.48 57.51 56.27 55.57 55.92 55.03 53.03 52.38 52.48 52.08 51.96 52.83 52.45 52.90 51.43 50.17
40.64 37.04 41.57 43.46 42.62 41.94 41.13 39.55 37.89 41.05 41.60 41.32 38.71 39.73 41.83 47.89 50.26 50.69 52.87 53.05 53.12 53.55 52.41 54.12 55.92 56.14 54.97 55.06 57.24 56.91 56.65 55.85 55.82 55.68 53.77 53.41 52.54 51.99 50.84 52.22 51.93 51.65 51.12 49.90
38.16 40.90 44.52 43.81 41.55 40.77 39.19 37.95 37.08 38.53 39.09 39.46 38.77 36.46 39.66 44.80 49.11 49.46 52.21 54.34 54.51 53.56 52.65 52.39 54.60 55.62 54.65 55.50 56.59 57.82 56.89 56.23 55.91 55.40 54.74 53.73 53.46 50.59 49.88 49.67 49.02 49.72 50.20 49.33
40.32 43.21 43.17 41.88 40.64 41.15 35.78 42.13 41.07 39.21 35.48 31.56 36.53 29.95 36.56 41.80 46.07 46.99 49.34 51.26 53.08 53.85 53.22 52.77 53.74 54.94 54.64 55.58 56.51 57.74 57.19 56.57 56.17 56.00 54.66 53.84 52.85 50.31 50.10 49.32 48.54 48.54 49.18 47.96
39.47 41.04 41.09 40.31 40.89 42.56 39.89 42.67 41.28 39.88 35.93 33.38 33.30 31.31 35.48 41.83 43.09 45.80 47.46 50.18 51.88 53.93 53.37 52.58 53.48 55.40 55.47 55.32 55.79 56.43 56.73 56.71 56.83 56.71 55.96 55.34 53.91 50.14 48.82 48.25 48.02 47.26 46.47 46.25
40.14 43.12 43.31 43.00 43.36 43.55 43.81 41.53 39.41 37.25 35.69 29.96 33.56 32.72 32.78 36.43 42.92 46.08 48.52 48.85 50.71 50.45 51.37 52.27 52.08 54.69 55.10 55.09 54.85 55.59 56.31 57.21 56.79 56.61 56.61 55.54 53.04 48.70 47.59 47.20 46.52 45.43 44.78 44.11
38.27 39.87 42.37 44.58 40.15 42.13 40.92 35.69 28.98 27.38 27.29 28.07 36.16 33.58 35.81 39.77 42.40 44.63 47.15 48.75 49.08 49.63 49.23 50.35 52.62 55.14 55.61 56.33 55.93 56.47 56.87 56.47 57.05 56.47 56.95 55.76 51.59 48.60 48.08 47.02 44.95 43.29 43.23 42.52
33.51 31.35 40.50 43.28 41.22 38.72 38.48 36.46 29.36 25.52 25.54 28.41 35.57 31.52 37.02 42.68 44.69 44.96 44.90 48.29 48.17 48.09 51.05 52.60 53.37 55.82 56.49 56.97 57.57 57.07 56.95 56.75 56.13 56.13 56.15 53.17 50.67 49.23 47.72 46.25 43.92 43.59 43.73 44.03
33.05 34.26 41.70 44.16 43.89 41.98 38.41 34.85 38.47 32.22 30.25 28.54 31.01 34.95 39.50 40.47 42.12 44.43 46.41 45.05 46.25 48.42 51.05 53.75 55.04 55.74 56.27 56.69 57.41 56.95 57.27 55.80 54.72 54.00 51.77 49.44 49.27 47.42 45.83 45.76 46.29 46.00 43.90 45.48
38.46 33.01 40.93 43.00 44.48 42.78 39.71 42.17 33.50 32.16 26.79 24.87 27.58 29.14 32.19 38.61 41.10 42.61 45.40 45.93 47.02 48.82 50.67 53.59 55.30 55.78 56.89 57.15 57.93 57.69 55.77 53.53 49.89 48.99 48.92 47.73 45.46 46.06 47.14 46.10 45.54 45.75 45.55 45.24
39.25 36.00 35.06 40.77 39.62 38.46 38.28 36.00 35.67 35.45 30.66 26.52 23.95 28.98 37.39 39.64 41.90 42.87 44.45 46.01 48.01 49.56 52.00 53.74 55.12 55.94 56.21 57.11 55.53 54.09 51.66 48.25 46.41 46.25 46.00 46.12 45.58 45.50 46.42 46.20 45.92 45.59 45.15 44.65
40.84 36.15 31.02 36.57 40.24 41.64 39.69 38.42 37.06 30.20 29.63 29.44 27.26 28.68 39.60 40.49 41.41 42.96 44.57 45.62 48.16 50.08 52.38 53.85 54.59 54.70 53.94 53.36 53.10 52.18 50.05 46.27 44.14 43.84 44.79 44.09 44.38 44.55 45.31 44.61 45.21 44.75 42.93 41.40
41.46 34.31 28.84 32.37 36.24 39.50 38.14 38.91 38.28 35.62 32.26 29.90 25.13 29.79 40.35 40.45 41.18 43.37 43.32 45.13 47.31 48.92 50.33 51.67 52.22 52.21 51.98 50.89 50.55 49.10 45.40 42.99 43.27 45.28 45.23 45.15 45.29 45.36 44.06 45.04 44.18 42.42 37.79 37.82
44.14 36.69 33.56 30.12 33.21 36.90 34.85 37.63 37.86 36.78 28.42 30.22 29.68 33.35 38.11 39.77 40.25 41.59 42.31 43.01 46.06 48.12 49.15 50.60 50.84 50.16 49.22 48.25 46.73 44.72 46.11 45.93 45.98 46.56 47.07 45.62 46.18 44.88 42.50 40.56 38.91 37.66 38.69 38.54
41.49 35.00 35.42 35.95 37.11 37.36 36.85 36.81 36.08 35.05 34.52 31.45 34.16 33.32 38.16 40.07 40.14 41.36 41.44 41.00 44.83 47.70 47.39 48.50 48.53 48.11 46.14 44.75 45.23 45.97 45.95 46.06 47.45 46.47 46.73 44.98 42.18 40.31 39.44 38.65 38.33 38.14 38.88 38.25
39.97 34.80 34.23 33.20 35.24 36.39 34.43 37.56 36.38 36.85 36.38 35.13 35.07 34.69 40.23 40.38 39.28 39.82 39.97 40.61 41.72 45.60 47.55 45.82 47.90 46.77 46.59 44.99 44.97 46.31 45.90 46.10 46.86 45.48 42.49 40.50 40.09 38.27 37.87 37.05 37.67 37.98 37.62 37.25
37.95 35.34 31.34 30.27 32.76 33.33 29.61 34.14 37.11 37.30 37.27 37.27 33.00 37.15 38.33 37.57 38.90 38.52 39.53 40.38 42.57 44.26 45.95 46.10 46.56 45.40 45.19 45.83 45.57 44.88 44.63 44.74 43.05 39.84 39.10 38.21 38.03 37.62 36.25 38.07 37.51 36.61 35.68 36.27
36.70 34.51 30.98 28.25 27.89 21.18 35.33 38.32 38.27 37.16 37.30 37.24 36.47 37.25 38.25 38.45 39.11 37.66 37.37 40.08 43.84 44.93 45.12 44.20 43.63 43.11 43.59 42.51 40.84 39.50 38.68 37.49 38.04 37.93 37.07 37.59 37.76 37.49 37.38 36.81 36.15 35.31 34.92 34.26
40.49 33.98 29.13 28.48 26.91 31.14 35.34 37.68 36.69 35.25 35.29 37.62 36.88 38.06 39.29 39.87 39.68 37.83 35.81 35.24 35.59 36.98 37.13 37.31 38.30 37.39 36.12 35.38 35.80 35.79 36.09 36.90 36.45 36.38 36.93 37.45 37.80 36.64 36.39 34.85 34.40 33.96 32.76 32.12
38.55 36.39 32.29 25.76 23.54 22.82 33.87 38.41 39.23 37.84 30.58 38.96 39.28 39.24 39.05 38.02 31.89 34.11 32.83 33.81 33.00 33.27 33.86 33.56 33.93 34.04 33.56 33.50 35.32 35.54 35.51 36.41 36.09 37.29 37.84 37.87 36.97 36.53 35.19 34.38 33.86 32.13 30.47 30.10
31.69 29.66 27.68 22.54 22.56 30.24 38.05 39.18 38.83 29.69 31.43 38.00 39.80 39.62 38.49 36.16 34.36 32.62 33.22 32.49 32.90 32.70 32.67 33.59 33.38 32.96 33.54 34.88 35.96 33.76 35.01 35.70 37.45 37.74 37.48 36.78 36.39 34.91 34.65 32.59 31.06 30.29 29.53 29.06
35.09 31.30 26.09 24.49 22.17 27.60 40.13 38.73 34.18 36.95 38.33 39.78 39.43 39.86 38.04 33.61 33.02 32.75 32.40 31.60 31.76 31.46 32.32 33.65 33.52 33.42 34.56 35.24 36.30 35.45 34.52 35.94 36.74 35.74 35.02 35.22 34.57 33.56 32.58 30.56 30.23 30.02 28.83 27.59
34.47 37.88 34.36 34.61 34.24 40.59 39.77 39.28 39.39 40.26 40.76 41.49 41.19 39.89 36.77 33.82 32.52 32.42 30.93 30.96 31.13 31.67 32.35 35.10 34.28 33.87 35.05 35.91 34.57 33.16 32.22 33.28 34.13 33.91 32.63 31.61 31.35 30.52 29.64 29.03 28.71 28.03 27.53 26.69
38.44 40.02 35.12 35.89 38.79 39.40 40.56 41.25 41.04 42.15 41.72 42.05 41.28 38.37 36.97 33.81 33.08 31.41 30.96 31.09 31.90 32.89 33.44 34.32 34.04 32.39 31.69 31.61 32.24 32.56 33.38 33.01 31.89 30.05 29.36 29.10 28.42 28.88 28.47 28.82 29.06 26.91 25.35 26.33
39.31 41.26 37.21 35.45 39.65 40.65 41.55 41.58 40.89 39.74 41.05 40.48 38.31 37.01 35.60 34.10 32.40 31.90 31.22 31.81 32.49 33.18 33.44 33.34 31.84 30.41 30.23 31.83 31.34 31.59 31.09 30.06 28.28 28.06 27.62 27.16 27.47 27.03 27.08 27.87 27.49 28.17 28.25 28.05
40.65 39.19 36.46 35.81 41.84 41.15 40.28 40.65 39.49 38.99 38.51 38.14 35.77 34.51 34.85 34.31 32.80 33.06 32.73 33.26 33.66 32.99 31.88 31.25 31.09 30.93 30.80 29.01 27.24 27.41 28.25 27.05 25.67 25.24 25.23 25.15 25.20 24.77 24.71 24.25 24.72 28.78 29.34 30.16

GFSCGP_sfc_wetblb_069.txt.gz
Wetbulb
47.56 45.21 42.97 44.17 44.39 43.90 43.63 42.26 41.32 43.48 45.80 44.60 44.10 44.86 48.29 51.39 53.16 53.59 54.10 54.34 55.39 55.57 57.77 58.14 59.31 60.22 59.90 60.88 60.78 61.30 61.11 60.63 59.86 59.54 59.84 59.56 59.95 59.23 59.61 59.07 57.45 55.71 55.51 55.05
45.23 42.29 44.98 45.39 45.16 44.64 44.05 42.29 42.04 44.51 44.99 44.31 43.24 43.90 47.25 50.30 51.91 53.82 54.01 54.56 55.04 56.37 56.96 57.89 58.72 60.03 60.53 60.38 60.62 60.91 60.79 60.27 60.40 60.99 60.38 60.07 59.13 58.21 58.62 57.81 55.99 54.88 54.68 55.48
42.51 44.60 45.92 45.82 44.45 43.15 43.30 41.93 41.71 41.94 43.13 43.97 42.55 42.09 43.25 47.64 51.19 53.70 54.97 56.27 56.79 56.32 56.60 57.49 57.94 59.40 59.90 60.28 60.18 60.70 61.04 60.74 60.68 60.59 58.86 57.32 56.85 55.92 55.40 55.21 53.71 54.88 54.91 55.07
44.02 45.53 45.05 44.29 43.45 44.21 40.15 44.81 43.59 42.12 41.01 38.41 41.91 36.78 40.99 44.69 47.27 50.49 52.97 54.79 56.29 56.89 56.99 57.63 57.55 58.51 59.59 59.75 60.65 61.21 60.60 60.01 59.84 59.65 58.72 57.76 56.74 54.24 55.25 54.03 53.54 54.44 55.31 54.12
42.92 43.49 43.38 42.59 43.53 44.95 43.26 45.31 44.15 43.28 40.58 39.72 39.23 38.09 41.70 43.62 43.81 47.70 51.03 53.37 55.71 57.63 57.97 56.85 56.46 57.84 59.39 59.92 59.36 60.64 60.31 59.80 59.45 59.34 59.13 58.24 56.22 56.41 55.53 53.07 53.74 53.98 53.97 53.47
43.96 46.75 46.22 45.95 45.83 45.74 46.09 44.41 42.29 41.25 40.83 36.08 38.47 38.19 40.30 42.66 45.14 47.78 50.61 52.61 54.32 56.04 57.96 58.45 57.85 57.77 58.37 59.19 59.48 59.97 59.84 59.43 59.40 59.20 58.85 58.16 56.73 55.08 54.00 53.31 52.94 52.90 52.73 52.22
42.04 43.46 46.24 47.14 44.37 45.46 44.39 41.57 35.85 33.81 34.31 34.52 39.64 37.57 41.57 45.05 46.16 46.97 49.01 51.70 53.76 55.50 56.39 57.30 56.28 56.04 57.51 57.80 58.67 59.15 59.28 58.36 59.36 59.12 58.84 58.52 57.33 55.63 55.02 53.77 53.26 52.15 51.44 50.49
37.68 35.91 43.37 45.99 45.11 43.29 42.32 41.89 36.46 29.19 30.39 33.86 38.18 36.11 42.38 46.41 48.08 48.76 49.21 49.82 52.45 53.69 55.02 55.72 56.72 56.81 57.56 58.07 58.62 58.97 58.32 58.74 59.21 58.94 58.75 58.76 57.50 55.07 55.16 54.84 53.86 53.04 52.08 50.65
36.15 36.89 44.76 46.25 46.87 46.28 42.41 39.72 41.92 35.86 34.63 34.07 36.54 39.86 44.22 44.98 46.95 48.85 50.25 51.55 49.88 52.25 53.40 54.46 55.72 57.15 57.77 58.25 58.57 58.94 58.63 58.55 58.48 58.52 59.24 58.71 56.40 55.48 55.14 54.89 54.07 52.48 51.01 48.83
41.72 37.10 43.48 45.44 46.94 45.71 44.59 45.35 38.45 37.61 30.11 28.76 34.04 34.47 38.16 43.36 45.13 47.04 49.75 51.36 51.28 50.52 52.34 54.43 55.95 57.16 58.36 59.23 59.55 59.90 59.88 59.22 58.49 59.01 59.18 58.02 57.10 57.22 55.57 53.26 51.00 49.78 49.37 49.37
42.66 40.81 39.24 44.28 42.92 42.27 41.85 40.56 39.36 40.03 36.91 32.65 30.69 35.98 43.39 44.48 45.95 46.90 48.94 50.45 52.19 52.62 53.03 54.51 56.68 57.72 58.66 59.62 60.06 59.54 59.43 58.29 57.47 58.25 58.04 56.97 55.54 54.48 52.42 51.27 49.55 49.44 49.06 46.45
44.17 40.62 35.86 40.08 44.05 44.95 43.74 42.66 41.83 37.21 34.31 34.44 34.18 35.39 45.16 45.75 45.67 45.90 48.35 49.66 51.55 53.85 55.04 55.76 56.99 57.83 58.26 58.75 58.75 58.64 57.87 56.39 56.74 54.82 53.80 52.42 50.53 50.49 50.66 49.47 49.23 49.30 46.39 47.78
43.49 38.44 34.33 36.35 40.14 43.58 42.41 41.83 41.17 39.25 37.61 34.70 34.43 37.04 44.54 45.04 46.27 47.34 47.39 49.36 50.20 52.45 54.31 55.64 56.63 57.11 57.64 57.91 57.10 57.44 55.28 52.17 50.71 50.70 49.49 49.25 49.43 48.38 48.14 47.61 47.45 46.45 45.61 46.19
45.66 39.65 37.81 34.33 37.61 40.93 38.90 40.60 40.80 41.12 35.71 36.92 36.53 40.03 43.44 45.43 44.90 47.17 47.47 47.96 48.32 51.04 53.09 55.27 56.17 56.48 56.82 56.51 56.28 53.62 51.02 49.69 48.68 48.38 48.02 48.11 47.94 47.52 46.23 46.06 44.98 42.56 41.38 42.83
45.49 39.01 38.85 39.02 39.25 40.27 40.60 40.40 39.58 39.41 40.48 37.67 40.44 37.63 42.94 45.30 46.48 46.85 46.36 45.69 45.95 48.18 51.08 53.19 55.15 55.08 53.52 52.48 51.79 51.06 49.15 49.08 49.83 48.87 48.14 46.65 45.28 42.69 41.59 40.98 41.32 40.92 42.23 42.83
43.02 39.30 38.49 37.40 38.61 39.41 38.55 40.07 39.56 39.50 39.30 39.60 39.02 38.78 44.57 46.36 45.78 44.69 44.33 44.60 45.06 46.12 48.21 51.24 52.69 51.61 50.05 49.58 49.50 48.66 49.14 48.88 48.96 47.01 44.75 42.85 41.01 39.98 40.12 39.90 38.89 41.04 41.79 41.32
40.43 38.40 36.36 34.32 36.38 37.53 33.33 38.18 39.89 40.49 41.24 41.76 38.10 43.28 44.30 43.52 43.40 43.85 44.24 44.22 46.33 47.74 48.75 49.08 50.57 50.37 48.94 48.47 48.34 48.30 48.36 48.69 47.24 45.12 41.45 39.92 38.98 39.60 39.39 39.04 40.89 40.24 39.82 41.32
39.39 38.25 35.73 33.21 32.03 28.81 40.79 42.05 42.27 41.20 41.86 42.01 41.21 42.09 44.04 43.63 42.52 41.23 40.41 43.48 46.18 47.32 47.16 47.28 47.58 47.59 48.07 48.55 48.21 47.12 45.69 43.02 40.77 38.89 38.23 38.47 38.91 38.40 38.29 40.81 40.02 40.40 40.52 39.92
42.54 37.66 33.04 32.72 32.26 35.63 38.40 40.15 40.75 39.71 40.55 43.00 42.16 42.41 42.85 42.76 42.88 41.21 38.14 38.61 40.72 42.36 43.30 43.92 44.70 43.82 44.00 43.84 43.70 43.12 42.06 39.44 38.01 37.22 37.91 39.10 39.21 38.78 40.81 40.26 39.88 39.83 39.46 39.48
39.08 38.94 38.31 30.37 31.03 28.99 38.34 41.75 42.92 43.06 36.21 43.73 42.90 42.91 42.50 42.78 41.17 43.02 37.90 37.63 37.56 38.88 40.08 39.52 39.62 40.11 40.56 41.20 42.13 40.80 38.35 37.47 37.19 38.88 39.17 39.49 39.14 40.68 39.19 38.93 38.92 39.47 38.58 37.79
34.66 33.79 33.99 29.78 33.03 35.00 40.56 41.83 42.96 36.72 39.62 43.04 43.55 44.22 43.62 41.87 41.96 38.61 36.74 35.78 36.82 37.48 37.41 38.59 39.08 38.56 38.98 40.33 40.21 38.41 39.25 38.31 39.19 39.42 39.91 39.94 39.38 38.65 38.67 37.89 37.68 37.34 37.36 36.61
36.42 34.15 33.44 31.81 31.94 32.10 42.64 40.84 38.78 44.00 42.61 43.20 43.71 44.44 42.87 37.59 35.92 35.75 35.25 34.91 35.49 35.96 36.63 37.59 37.23 37.08 38.89 39.80 39.42 37.71 37.45 38.59 39.04 38.87 37.69 36.87 36.77 36.02 35.80 36.24 36.38 36.11 35.70 34.68
36.63 39.57 37.39 38.09 39.22 44.83 43.29 45.62 44.69 44.37 45.13 44.26 44.60 43.78 40.06 36.88 35.42 35.14 33.94 34.34 34.72 35.84 37.01 38.41 37.36 36.62 37.42 38.50 38.22 35.69 35.99 37.57 36.73 35.84 34.55 34.04 33.72 33.05 33.14 32.89 32.51 31.90 31.81 30.81
40.26 41.98 40.00 40.68 42.75 42.48 43.27 44.16 45.37 44.45 45.29 44.86 45.22 42.43 40.33 37.88 35.75 34.37 34.01 33.99 35.36 36.39 35.80 35.91 35.25 34.15 33.65 34.79 34.56 34.96 34.59 34.79 33.68 31.90 31.24 31.34 30.84 30.41 30.57 30.81 30.33 29.80 29.68 29.41
41.78 42.16 39.68 39.86 41.78 43.33 44.46 44.92 45.08 44.22 44.61 42.42 40.97 40.75 39.69 37.20 35.25 34.68 34.14 35.02 35.97 35.57 35.22 34.96 33.97 33.12 31.98 32.28 31.29 31.35 31.02 31.74 29.89 29.13 28.48 28.34 28.55 28.20 27.96 28.25 28.36 28.41 29.47 28.66
42.81 41.33 39.38 39.24 43.93 44.61 45.31 46.27 44.88 43.43 43.21 40.95 38.49 37.01 37.85 37.51 35.01 35.16 34.94 36.19 35.45 34.07 34.06 33.55 32.81 30.94 29.29 29.17 28.46 28.27 28.82 28.37 28.27 26.93 26.93 26.17 26.63 26.67 26.60 26.30 26.53 26.94 26.84 27.20

GFSCGP_sfc_wetblb_075.txt.gz
Wetbulb
53.41 49.50 47.03 49.13 50.23 49.15 48.29 46.73 45.67 47.98 50.58 48.82 48.46 48.99 50.20 55.96 56.32 55.63 54.69 57.09 55.12 55.10 58.40 59.98 58.93 60.13 60.82 61.52 61.00 60.93 61.81 62.57 64.00 63.80 62.23 61.65 61.73 63.78 64.78 65.15 65.69 65.86 64.91 64.47
50.62 46.85 50.71 51.48 50.00 48.31 47.81 46.28 46.18 48.95 49.95 48.95 48.82 48.43 50.70 54.42 55.45 56.57 56.41 55.90 57.40 57.65 57.88 58.74 60.26 60.52 59.98 60.17 60.39 61.19 62.67 63.87 64.43 64.10 62.65 62.20 62.97 64.35 65.50 65.90 64.59 64.34 61.68 61.51
47.62 49.49 51.51 49.45 48.08 46.83 47.60 46.48 46.69 46.63 48.94 50.38 48.55 47.02 49.07 52.83 55.95 57.14 57.97 57.82 58.34 58.16 57.52 58.39 59.83 60.99 61.36 60.44 60.93 61.58 62.89 64.20 65.02 64.30 62.55 62.84 65.05 63.89 62.79 63.49 62.83 62.89 62.59 63.01
48.93 51.10 49.21 48.67 47.33 48.88 45.13 49.79 48.19 47.46 46.23 40.99 49.45 39.28 47.19 50.02 52.03 55.07 56.67 57.89 57.78 58.64 58.88 58.76 59.75 60.32 61.23 61.95 63.21 63.36 64.14 63.91 64.75 65.80 63.07 62.80 62.41 61.23 62.70 62.95 62.43 59.29 59.21 59.86
47.00 48.20 48.17 47.13 47.76 49.76 47.28 49.97 48.57 48.41 46.97 46.40 45.74 42.09 45.24 49.18 48.27 51.56 55.12 57.73 58.91 59.36 59.92 59.17 59.74 60.47 61.78 62.83 63.06 63.74 64.44 64.75 65.07 65.38 64.91 63.50 62.79 62.53 63.66 62.51 61.32 58.73 57.30 58.95
49.00 52.18 50.68 49.79 50.81 50.86 50.83 48.88 48.69 48.82 47.13 40.26 44.22 43.92 42.91 46.05 47.18 49.81 53.10 56.34 58.42 59.82 60.28 60.67 61.54 61.71 61.79 65.08 65.04 65.21 64.05 64.14 65.26 65.41 65.23 64.53 63.24 62.99 61.90 60.57 58.26 57.81 56.71 57.80
47.14 48.24 50.86 51.20 48.74 50.86 49.67 47.03 40.34 38.56 39.41 38.38 46.03 43.27 45.48 49.56 50.35 51.33 51.72 54.02 57.22 59.56 60.80 60.90 60.47 61.05 61.66 62.66 64.27 64.80 64.33 64.00 65.02 65.38 64.85 65.24 64.59 63.89 61.50 60.01 58.89 58.01 57.48 57.62
42.25 40.68 48.03 50.82 49.12 47.41 47.63 47.21 41.40 34.13 35.67 38.90 45.55 40.30 44.62 50.51 51.95 52.15 52.98 54.53 55.92 57.74 60.24 61.56 62.16 61.82 61.94 63.49 64.44 64.23 64.17 63.73 64.44 64.55 64.53 64.46 64.71 63.51 61.87 61.23 60.32 59.18 57.88 59.44
42.83 42.61 49.89 50.59 50.94 50.42 47.56 44.64 49.34 43.69 43.76 40.23 43.12 45.82 49.29 50.51 49.82 50.88 52.56 54.21 55.97 57.76 58.25 59.97 61.93 63.29 63.11 63.40 63.95 64.79 64.16 63.87 64.17 64.22 65.06 64.35 63.71 63.14 62.43 62.44 61.80 59.73 58.65 58.99
46.95 42.19 47.86 49.05 50.93 50.82 48.89 50.93 43.14 44.18 35.01 33.60 40.49 42.26 42.70 46.76 48.12 50.76 51.45 52.53 55.82 57.32 58.26 59.35 60.62 62.58 64.14 64.58 63.93 64.92 64.62 63.81 64.35 64.65 64.57 63.14 62.55 62.77 62.34 62.09 60.35 58.89 57.81 58.85
48.73 46.17 45.37 48.28 46.52 45.86 46.65 45.93 46.86 46.57 43.42 37.28 36.01 40.50 48.76 47.95 49.34 49.79 51.65 52.69 53.84 56.33 57.91 59.21 60.55 62.11 63.62 65.03 64.73 64.27 64.03 63.67 63.88 64.54 64.31 62.14 61.25 62.00 60.81 60.16 58.03 57.59 56.75 55.78
49.16 46.53 42.63 44.16 49.47 50.44 49.53 47.10 46.97 41.41 39.85 42.98 41.40 41.79 51.19 51.02 51.59 52.00 52.23 52.99 54.48 55.99 57.43 59.36 60.29 61.11 62.14 63.61 64.35 64.51 64.41 63.89 64.07 64.33 63.69 61.08 60.64 57.36 55.48 53.42 53.51 53.42 51.55 51.12
49.01 44.43 39.54 42.08 45.89 48.60 46.46 48.29 48.47 47.97 46.75 41.89 39.42 41.54 50.92 51.19 51.59 52.45 52.61 53.32 53.76 55.54 56.99 58.87 60.25 60.97 61.62 62.66 63.69 64.12 64.41 64.04 64.03 63.66 60.70 57.02 53.43 52.62 51.67 51.41 50.81 50.18 48.96 48.95
50.35 45.96 42.93 39.27 42.65 46.22 43.61 45.30 47.08 46.41 43.00 42.22 42.34 43.87 47.36 48.73 49.67 52.16 53.01 53.87 54.03 54.08 56.06 58.13 59.82 60.83 61.95 62.52 63.19 63.45 63.82 64.17 63.20 58.58 57.12 54.04 53.09 51.68 50.20 49.81 50.10 49.33 47.79 46.43
49.50 43.29 44.69 45.03 46.05 45.98 45.03 44.86 45.12 44.13 45.15 42.14 44.10 44.22 46.52 48.60 50.26 51.62 53.32 53.92 53.55 53.37 54.14 55.96 57.94 60.77 62.13 62.45 62.89 62.92 63.06 61.82 60.42 57.03 54.60 51.82 50.58 49.78 50.77 49.06 47.91 46.79 45.43 45.01
50.12 43.95 44.94 42.79 45.54 45.42 43.35 44.81 45.44 45.26 45.23 45.10 45.31 44.86 50.39 51.69 51.95 51.36 51.77 52.73 52.81 53.28 53.76 54.42 56.34 59.27 61.55 62.05 61.89 60.97 58.89 56.98 56.05 52.45 50.07 50.08 50.01 48.88 46.10 44.61 44.85 44.87 44.50 44.16
47.23 46.11 43.12 39.42 44.46 44.19 40.61 43.73 44.99 45.93 46.96 46.50 43.46 47.61 50.73 50.03 50.30 51.32 51.64 52.19 52.92 53.59 54.73 55.29 56.26 59.29 60.98 61.14 57.71 54.44 53.80 53.92 52.62 50.99 49.66 48.34 47.22 45.29 44.10 42.95 42.85 43.00 44.23 44.56
46.17 45.67 45.22 40.42 39.81 33.98 44.09 48.85 48.32 46.44 47.27 48.61 48.58 49.37 50.33 50.70 52.00 52.13 53.65 53.42 53.48 54.34 54.69 56.10 58.03 58.91 59.61 57.55 54.73 53.59 52.53 50.58 49.14 47.72 46.86 46.41 45.55 44.61 44.47 44.73 45.03 45.33 46.08 46.81
46.89 45.60 42.11 39.02 38.67 41.85 44.07 45.39 46.37 45.47 45.37 49.56 49.08 50.06 50.97 51.56 52.03 51.57 52.64 52.60 54.78 55.28 56.12 56.94 57.98 58.26 57.65 54.81 53.51 51.69 49.47 48.87 47.67 47.21 47.64 47.02 46.12 44.27 42.59 43.58 45.37 46.68 46.90 45.26
45.41 47.21 44.01 40.57 36.34 33.51 43.43 48.03 50.83 50.59 43.01 50.60 50.85 50.63 50.43 50.20 45.85 48.58 51.91 52.44 52.95 53.97 54.70 55.14 56.16 56.81 55.86 54.96 53.93 51.50 49.32 48.44 47.55 47.07 45.62 44.78 43.92 45.28 45.87 45.45 46.03 45.38 44.78 43.18
40.75 41.51 40.20 40.78 39.43 42.57 48.10 49.45 51.47 41.29 43.81 51.48 51.63 51.47 50.99 48.78 50.25 52.24 52.18 52.11 52.92 52.57 52.75 53.91 54.19 53.76 53.59 53.01 51.61 48.33 47.83 47.15 46.74 45.78 45.68 46.25 45.78 44.76 44.67 44.56 43.91 42.78 42.09 41.53
40.19 39.51 39.65 41.65 38.52 36.25 49.49 47.65 44.70 50.28 54.01 53.38 53.26 52.92 52.36 52.95 50.96 50.53 50.68 50.30 50.03 50.48 50.68 52.36 52.07 51.84 52.12 51.87 50.34 48.21 46.55 46.67 46.19 45.66 44.37 44.54 43.84 42.77 43.28 42.66 42.10 41.37 40.91 39.43
40.81 44.44 42.86 44.21 44.51 51.75 51.08 51.38 53.32 54.29 53.77 54.14 53.66 53.69 53.66 51.67 49.31 49.66 48.92 48.87 49.32 49.85 50.61 51.29 50.12 49.00 49.08 49.07 48.84 46.61 45.70 45.56 44.78 43.92 42.68 42.72 41.88 40.90 40.82 40.32 39.23 38.11 37.39 35.91
45.27 47.87 45.63 45.84 48.43 50.54 52.34 53.48 53.73 54.32 53.84 54.24 54.03 53.93 54.11 51.17 50.06 48.94 49.09 49.26 49.23 49.58 49.17 49.10 47.82 46.56 45.64 46.25 45.99 45.71 45.55 45.10 43.85 42.24 41.00 40.17 38.92 37.79 37.43 36.97 36.50 36.34 35.70 34.45
46.46 47.52 46.22 46.15 48.43 50.25 52.07 53.59 54.39 54.52 53.74 53.14 53.77 53.64 53.60 51.97 49.67 49.22 48.75 48.79 48.89 48.31 48.12 47.86 46.47 45.02 44.02 44.46 43.82 43.93 43.69 43.39 40.55 38.80 37.53 36.92 35.80 35.78 35.06 35.07 34.02 33.83 31.24 29.90
47.74 46.37 45.79 44.89 50.02 50.14 50.92 53.41 55.83 54.75 53.93 53.77 53.33 52.60 53.14 52.35 49.86 49.34 48.52 48.58 47.68 46.32 46.17 44.82 43.89 42.70 41.96 41.23 40.46 40.62 40.84 39.93 37.39 35.43 35.08 34.39 34.24 33.81 34.00 33.79 32.12 27.87 28.16 27.25

GFSCGP_sfc_wetblb_081.txt.gz
Wetbulb
48.14 42.06 39.46 41.36 44.27 45.93 45.22 43.89 41.86 44.36 48.90 46.65 44.87 43.38 47.95 50.20 50.99 49.70 49.46 51.57 51.54 52.08 54.80 55.30 54.94 55.57 55.59 55.76 55.24 55.26 54.66 54.64 54.17 52.69 51.67 52.76 53.54 57.71 58.47 59.34 60.67 60.79 61.16 61.66
44.90 41.29 46.07 47.89 47.12 46.23 46.20 42.48 40.31 44.28 48.38 46.80 43.78 42.60 47.19 50.61 49.72 49.15 48.19 48.72 50.36 52.51 53.00 53.68 54.25 54.71 54.65 53.88 54.39 54.97 54.74 54.44 54.06 53.58 53.01 54.68 56.51 57.75 59.00 60.47 60.68 60.94 61.14 60.96
42.61 45.39 49.16 47.58 46.19 45.07 44.30 41.52 41.56 42.01 45.69 45.29 43.16 40.89 44.05 49.16 51.24 50.17 50.28 51.64 52.73 52.61 52.55 53.70 54.48 54.56 53.92 53.60 54.05 54.53 55.09 54.88 54.95 56.11 56.62 57.56 57.32 58.22 59.06 59.39 59.74 61.19 61.34 60.82
43.36 48.45 47.34 46.42 45.64 45.60 40.68 46.33 46.09 45.45 41.24 35.21 42.76 32.98 40.54 46.31 49.13 49.89 49.45 50.08 52.29 52.93 54.40 54.61 55.13 54.66 54.33 53.97 55.16 54.95 55.63 55.46 56.22 58.15 58.05 58.00 56.55 56.78 58.05 58.43 59.12 59.98 59.73 59.25
41.83 43.85 45.10 44.60 45.37 47.33 43.99 48.00 47.09 45.55 41.01 38.05 39.62 37.14 39.83 45.32 45.20 49.09 50.62 49.91 51.69 53.68 53.91 54.47 55.59 55.92 55.82 54.69 55.11 56.18 57.69 58.39 58.76 59.40 59.28 58.78 55.74 58.33 58.47 58.99 58.64 58.30 58.16 58.39
43.93 48.37 47.02 46.58 48.28 47.94 48.90 46.14 44.91 43.87 40.18 33.15 40.01 40.44 37.37 40.17 46.23 48.49 51.97 52.29 52.04 53.70 54.18 54.70 55.64 56.53 56.67 56.20 56.44 57.46 57.88 58.95 59.89 60.40 60.62 58.91 56.99 58.14 58.44 58.63 58.26 56.96 56.11 56.31
42.80 43.69 46.87 48.68 45.08 46.66 45.56 40.62 32.54 31.38 31.48 30.65 42.79 40.49 40.97 46.00 47.40 49.07 52.15 52.70 53.65 53.97 54.52 54.66 54.78 55.30 56.20 56.03 56.59 57.13 57.01 57.30 60.39 60.40 60.70 60.45 58.62 58.46 58.40 58.38 58.15 56.21 55.91 55.43
36.12 34.73 43.13 47.59 45.60 43.11 42.45 41.54 33.56 28.62 27.67 34.21 42.39 36.50 40.74 47.68 49.78 48.65 49.63 53.98 54.45 54.60 55.11 54.92 55.57 56.44 56.80 56.71 56.32 56.50 56.85 56.98 59.81 60.84 60.79 61.08 59.45 59.25 59.07 59.28 58.79 57.77 56.78 55.94
36.19 37.21 46.28 47.13 48.40 47.00 43.43 39.20 44.22 38.81 40.09 35.28 38.16 41.44 47.11 49.09 47.54 47.33 46.97 48.30 52.54 54.26 54.94 55.20 55.97 57.05 57.67 57.77 57.44 56.78 57.35 58.49 59.49 59.81 61.03 60.87 60.73 59.26 59.23 59.19 58.63 57.51 56.64 55.91
42.44 37.17 45.05 46.46 47.97 47.32 45.13 47.08 38.59 38.22 30.98 29.50 37.30 37.54 39.02 43.08 45.61 47.26 46.53 48.48 50.95 52.05 54.91 55.72 56.20 56.71 57.75 58.33 58.82 59.19 59.56 59.75 59.91 59.81 61.04 61.23 61.01 60.64 59.37 58.94 57.89 57.13 56.69 56.17
43.84 40.86 40.75 45.31 43.43 42.40 42.80 41.32 43.73 43.17 38.06 29.42 27.47 33.19 44.06 44.56 46.27 46.29 47.12 48.46 49.58 51.89 52.03 53.04 56.86 57.50 57.78 58.53 58.89 59.19 59.05 59.37 59.65 59.90 61.46 61.50 61.05 60.00 59.33 58.67 57.50 57.37 56.62 54.91
44.00 42.36 36.41 39.15 46.06 47.91 46.24 42.97 42.77 35.12 35.47 37.02 34.01 33.82 46.77 46.61 46.97 47.48 47.52 49.09 48.87 49.54 52.16 52.36 53.50 55.12 58.01 57.75 58.29 58.86 59.67 59.65 60.37 60.67 60.49 61.16 60.81 59.75 59.23 58.96 57.99 55.53 52.43 50.56
43.43 39.60 33.97 37.19 42.11 45.88 43.31 43.73 44.63 42.98 40.45 35.82 30.32 34.70 48.41 48.67 48.24 48.24 46.83 47.88 48.95 49.79 50.13 51.97 53.28 54.14 57.47 58.22 58.43 58.86 59.86 60.12 60.49 59.37 59.80 59.25 59.44 58.56 57.05 55.34 54.48 53.19 51.02 49.95
45.28 40.70 37.62 32.70 37.73 42.63 40.22 42.85 43.80 41.93 33.82 35.25 35.76 39.32 43.90 45.74 45.64 46.96 46.90 48.69 48.67 50.08 50.22 50.64 52.24 53.43 54.79 57.84 58.43 58.68 59.49 60.18 60.11 60.32 58.05 56.75 55.92 55.58 54.44 52.19 51.74 51.61 50.45 49.35
44.53 37.35 39.66 41.86 43.15 43.32 43.55 42.89 42.53 40.88 41.27 39.05 40.87 41.68 44.55 45.05 45.22 46.27 48.72 49.38 50.20 50.14 50.20 49.41 52.28 52.94 54.27 55.63 57.94 59.16 58.22 57.51 56.74 55.97 55.46 53.41 52.49 52.63 51.17 50.89 50.27 49.79 50.28 49.13
43.97 36.94 39.89 38.27 42.34 43.18 41.60 42.89 42.53 43.11 42.87 41.59 41.34 40.91 45.63 46.90 45.57 47.05 47.98 48.94 48.74 49.44 49.89 50.95 51.32 54.56 55.47 57.29 56.89 56.50 55.23 53.20 52.89 51.76 50.19 50.23 50.05 50.03 49.38 49.14 48.62 47.84 46.96 46.93
41.04 38.14 38.32 33.21 40.51 40.20 33.21 40.31 42.16 43.36 44.63 42.71 38.18 41.94 45.36 44.56 46.09 45.45 46.60 48.12 48.45 49.01 50.83 51.52 52.77 56.49 56.20 54.78 53.45 51.49 50.64 51.75 50.30 49.70 49.79 49.67 48.82 47.39 46.64 46.57 45.96 45.53 45.53 45.84
40.27 39.27 38.58 32.74 34.85 28.94 39.72 45.31 45.59 43.55 44.63 44.76 43.84 44.29 44.89 45.39 45.87 46.82 47.90 47.77 49.49 50.99 51.35 52.20 55.00 53.23 51.96 51.78 50.62 49.97 49.37 49.39 49.17 48.47 48.04 47.18 46.24 45.49 45.62 45.68 45.18 44.36 44.23 43.84
43.71 39.41 32.17 31.13 32.25 37.89 40.95 43.09 42.87 42.24 41.08 46.04 44.55 45.23 45.87 46.43 46.70 45.53 49.11 49.62 49.45 49.99 50.83 52.59 53.27 51.66 50.78 49.78 49.96 48.86 47.91 47.66 47.95 47.03 46.41 46.04 45.09 44.05 44.40 43.64 43.16 42.94 42.54 42.09
43.06 42.05 35.90 31.94 29.84 28.11 38.81 45.20 47.54 46.74 35.03 46.32 46.98 45.73 46.03 46.00 38.78 42.47 46.73 50.58 50.70 51.38 52.42 52.28 52.07 51.10 49.48 48.12 48.62 47.23 46.60 46.36 46.22 46.15 45.45 45.08 44.84 44.41 43.49 43.17 42.96 43.36 43.80 43.32
33.74 32.93 30.58 31.76 30.73 35.23 45.11 47.15 48.16 35.23 35.14 47.15 48.08 47.45 46.00 44.32 45.12 46.63 49.04 49.38 50.36 50.92 52.28 52.00 51.20 49.80 48.43 48.53 47.96 45.85 45.53 44.98 46.80 46.65 46.04 45.06 44.74 43.72 43.55 43.76 44.31 42.75 39.19 36.69
34.30 32.93 31.26 32.01 29.34 28.76 47.16 45.53 40.40 43.08 46.95 48.55 47.56 47.93 47.17 47.41 46.83 47.23 48.07 48.20 48.91 49.40 50.67 51.38 50.53 49.14 48.54 48.13 46.96 45.34 45.39 46.77 46.97 45.70 43.70 42.73 42.51 43.65 43.93 41.29 39.88 39.09 36.70 33.30
34.64 37.69 35.87 37.41 35.76 45.69 48.26 47.37 48.78 49.78 48.23 48.06 47.85 49.16 48.81 46.93 46.94 47.44 46.91 46.99 47.40 48.45 48.64 49.72 48.27 48.71 48.14 47.35 47.12 44.64 42.06 42.88 42.58 42.83 42.66 42.39 41.59 41.24 40.36 38.56 36.39 34.77 34.40 32.55
41.53 44.44 39.35 39.15 42.75 44.42 47.67 49.69 49.15 49.01 48.24 50.42 50.20 49.90 50.19 47.57 47.40 46.77 46.12 45.63 45.99 46.90 46.99 46.93 46.07 44.75 44.24 44.86 43.26 42.29 42.68 42.70 41.51 40.14 39.11 38.23 36.08 34.51 34.23 34.59 33.97 31.70 30.95 30.40
40.08 43.30 41.91 41.62 45.53 45.96 47.37 48.97 49.82 49.65 50.03 51.12 49.99 49.83 49.30 48.62 46.55 46.00 45.29 45.10 45.44 45.89 45.08 44.68 42.55 41.01 40.66 41.66 41.24 41.89 42.20 41.58 38.78 35.75 34.59 33.68 32.22 30.50 28.77 29.71 29.64 27.78 28.02 29.03
42.95 40.70 38.35 37.06 45.32 44.85 45.58 48.71 50.36 49.56 49.65 50.92 50.15 49.62 49.24 49.26 46.81 46.23 45.01 45.24 44.65 43.55 43.49 41.99 40.76 36.91 31.07 30.94 31.45 34.76 37.43 36.25 33.67 32.29 31.60 30.32 29.85 30.17 28.26 26.73 26.71 28.63 28.11 28.11

GFSCGP_sfc_wetblb_084.txt.gz
Wetbulb
46.24 40.74 39.09 39.72 41.67 43.28 42.51 41.00 39.84 42.64 46.73 44.85 43.47 43.24 45.34 47.18 49.98 50.22 50.64 51.53 51.63 51.98 54.69 55.38 55.76 56.29 55.80 55.57 55.36 55.11 55.09 55.09 54.72 54.51 53.97 54.03 53.63 54.99 57.00 57.97 58.57 58.34 57.80 59.57
42.78 39.78 45.00 45.01 44.18 43.17 42.59 40.65 40.29 42.84 45.27 44.57 43.03 41.34 44.37 47.82 49.34 50.99 50.27 50.07 50.94 51.55 52.75 53.83 53.17 54.54 55.05 54.94 54.86 54.64 54.49 53.65 53.20 53.51 54.37 53.91 53.90 54.36 56.20 57.55 58.08 59.12 59.74 60.16
39.32 43.51 47.42 45.24 43.82 42.54 42.33 40.40 40.52 40.47 42.89 43.52 41.24 38.72 42.36 47.34 49.36 49.90 50.34 50.84 51.42 51.26 51.07 52.29 52.85 52.61 53.04 53.44 53.62 53.71 53.37 53.31 52.84 52.89 51.47 53.46 54.11 55.62 55.86 56.64 56.88 58.18 59.55 59.69
39.96 44.61 45.10 44.16 43.03 43.91 39.37 45.03 44.16 43.11 39.48 34.18 40.54 31.83 38.43 43.67 45.70 47.43 47.47 48.29 50.37 51.64 52.48 52.26 52.70 52.99 52.16 52.77 53.70 54.22 53.83 53.44 53.35 53.04 51.91 52.12 52.22 52.72 55.44 56.25 57.26 58.09 59.38 59.85
38.94 42.25 42.76 42.24 43.58 45.89 42.49 46.57 44.61 44.50 39.92 36.23 37.95 34.30 37.93 44.53 44.05 45.02 46.87 48.69 50.40 51.82 52.22 51.89 52.55 54.26 53.17 53.32 53.18 53.77 54.26 54.18 53.77 53.90 53.58 53.26 54.77 55.61 56.08 56.56 56.97 57.98 58.26 59.35
40.64 44.74 44.06 44.49 46.65 46.62 47.80 44.37 43.25 42.15 38.89 31.66 38.36 36.96 35.93 38.66 44.57 46.88 47.74 49.33 51.06 51.67 52.40 53.00 54.11 55.08 54.28 53.90 53.46 53.73 53.51 53.99 54.22 54.78 55.30 55.18 55.50 56.04 56.58 57.52 57.58 57.92 58.25 58.47
39.60 40.49 43.73 45.68 41.77 44.56 44.12 39.14 31.21 30.32 30.51 29.36 41.08 38.27 39.25 44.48 45.42 49.47 49.29 48.96 51.54 52.36 52.31 52.98 53.88 54.04 54.38 53.46 53.15 53.48 53.55 53.83 54.75 55.17 55.70 56.81 57.42 56.52 56.60 57.44 57.80 57.38 56.86 56.44
34.42 32.58 41.23 45.10 42.69 40.98 40.95 40.08 31.58 28.33 27.31 31.79 41.10 34.49 39.88 46.43 47.66 48.58 52.53 52.27 51.15 52.45 53.02 53.17 54.33 54.67 54.62 53.74 53.06 53.46 53.80 54.66 56.44 57.17 57.37 58.12 58.54 57.76 57.89 57.97 58.66 57.91 57.78 57.95
34.05 35.40 43.23 45.17 45.70 44.33 40.88 36.78 42.62 36.80 38.23 32.58 36.49 40.26 44.77 45.95 46.02 46.62 48.27 51.75 50.96 51.31 53.21 53.23 54.21 55.07 55.48 55.17 52.99 53.13 54.55 55.90 57.21 57.95 58.71 59.14 59.74 58.83 57.77 58.25 59.03 58.52 58.78 58.37
39.77 33.97 42.41 44.24 45.26 45.26 43.74 45.23 36.01 36.70 29.94 28.24 33.88 35.87 37.42 41.65 43.92 45.23 44.84 49.68 51.46 52.75 53.04 54.17 54.59 54.65 55.49 56.43 56.11 55.36 56.04 56.30 56.76 57.60 59.39 59.67 59.92 59.45 58.87 58.17 58.25 58.38 57.78 56.95
41.35 37.61 37.86 43.11 40.33 39.04 40.54 39.47 40.41 40.91 36.99 30.13 27.02 32.06 41.37 42.94 45.09 44.59 45.80 47.85 50.55 52.59 53.14 54.04 54.83 55.80 56.44 56.54 56.68 56.53 56.53 56.58 56.63 56.91 58.64 59.45 59.93 59.97 59.27 58.44 58.17 57.94 56.68 55.84
41.05 38.74 34.18 37.65 43.20 44.45 42.68 41.50 41.89 35.02 34.48 35.50 32.37 32.81 44.53 44.94 45.64 45.98 45.24 47.34 47.34 51.70 53.89 54.73 55.09 55.54 55.89 56.59 57.33 56.99 56.84 56.62 57.14 58.08 58.44 58.92 59.57 59.71 58.94 58.34 57.52 56.68 55.60 55.16
41.02 36.92 30.71 35.20 39.21 42.29 40.10 41.68 42.79 42.60 39.60 36.02 30.37 33.22 46.25 45.84 47.20 47.36 45.48 46.07 47.17 48.02 49.78 51.89 54.22 54.77 55.29 56.02 56.66 57.19 57.68 57.93 58.69 58.98 58.52 58.59 59.02 58.44 57.94 58.13 57.08 56.60 54.29 52.48
43.73 38.01 36.44 31.92 35.27 39.92 38.10 41.33 43.25 42.31 35.14 35.47 35.21 37.84 42.11 44.35 45.10 46.47 46.62 46.68 46.99 47.62 48.29 49.32 49.82 52.98 55.41 56.05 56.29 56.93 57.50 58.24 58.57 58.48 58.37 57.96 58.47 58.68 58.35 56.66 56.86 55.66 53.41 51.36
43.04 34.56 37.53 39.20 40.93 41.71 41.05 40.52 41.99 40.99 40.32 36.34 38.47 39.06 42.16 44.70 45.78 46.14 46.80 47.39 47.36 48.07 48.29 47.76 50.03 50.76 54.18 54.69 55.96 56.85 57.14 57.95 58.45 58.03 56.45 56.14 55.32 56.46 55.62 54.57 54.07 52.07 51.47 51.24
42.79 34.94 36.47 35.25 40.03 41.71 39.60 41.75 41.93 41.60 41.29 40.88 41.71 39.91 46.38 48.15 45.53 44.97 46.67 46.94 47.06 47.47 47.42 48.07 50.09 51.34 52.60 54.71 54.85 55.49 54.08 54.62 56.12 55.62 53.28 51.62 51.04 51.40 51.76 50.90 50.12 49.92 49.74 49.44
38.88 36.96 33.90 30.09 38.25 39.35 32.75 37.86 40.53 41.85 42.91 41.77 37.22 41.68 43.87 43.40 43.79 44.27 45.36 46.19 47.17 47.79 48.14 48.73 50.68 52.42 55.20 54.89 54.43 53.71 52.55 52.58 52.23 50.98 50.30 50.12 49.54 48.49 47.80 48.47 47.87 47.22 47.21 47.57
38.92 38.80 34.41 28.66 33.02 28.49 37.79 44.07 44.73 43.27 44.05 43.60 42.86 42.89 44.63 44.44 44.56 44.50 45.54 46.23 47.10 48.23 49.70 53.74 52.78 50.91 50.23 50.57 50.94 51.50 51.32 50.71 50.15 49.66 48.90 48.60 47.89 46.61 46.70 46.67 46.34 45.89 46.25 46.06
43.58 39.48 32.39 31.11 29.01 35.14 39.23 41.76 41.95 41.13 40.15 44.70 43.08 44.59 45.20 44.61 44.34 43.75 46.82 46.66 47.95 48.62 49.88 52.18 50.83 49.69 49.19 49.35 49.76 49.91 49.71 49.61 49.26 48.43 47.98 47.73 47.08 46.22 45.95 45.32 44.62 45.13 45.31 44.73
42.23 40.22 34.90 31.65 27.33 25.30 35.88 43.40 46.55 45.78 35.60 45.46 45.72 44.82 45.19 44.13 37.32 41.66 46.67 49.32 49.03 50.79 52.03 50.34 49.56 48.56 47.96 47.44 47.98 48.40 47.78 48.05 47.31 47.51 46.35 45.98 45.80 45.43 44.63 44.19 43.97 44.13 43.45 41.62
31.14 31.33 30.62 31.12 30.14 32.46 42.04 45.18 47.09 35.42 35.32 45.81 47.09 46.97 44.63 42.74 43.43 45.60 49.10 49.35 49.91 51.46 50.52 50.05 49.27 47.60 46.67 47.21 47.21 45.28 45.21 45.24 46.97 46.23 45.70 45.42 45.51 45.13 44.67 44.15 43.57 42.50 38.72 35.72
32.83 29.32 25.61 29.79 26.73 27.28 44.68 44.67 39.29 41.83 46.01 47.11 46.95 46.44 45.65 45.91 45.77 47.70 48.41 48.38 49.78 49.69 49.43 49.18 47.78 46.49 46.38 46.51 45.67 43.72 43.13 45.12 45.61 45.49 44.33 44.68 43.93 43.45 43.51 41.48 39.65 38.25 35.63 32.58
33.18 35.49 32.48 33.10 33.08 42.50 46.30 46.96 47.53 47.99 47.18 47.63 47.34 48.01 47.32 45.48 45.77 46.86 46.43 47.06 47.65 48.87 48.67 49.36 47.62 46.62 46.58 45.84 45.08 43.47 44.57 45.00 43.13 41.74 42.02 41.85 40.89 39.66 39.32 38.44 36.96 35.32 34.19 32.24
39.62 42.61 36.68 37.46 41.77 43.45 45.70 48.62 49.32 48.11 47.81 48.86 48.32 48.23 47.15 45.72 45.61 45.64 45.32 45.19 45.90 46.47 46.19 47.63 46.35 44.03 41.66 41.63 41.00 40.44 41.43 41.23 39.57 37.04 34.38 33.94 33.13 32.80 33.01 32.76 32.87 31.81 31.12 30.76
38.26 41.76 38.46 37.84 42.38 44.97 45.91 47.04 47.43 48.41 49.50 49.12 49.20 48.55 48.88 47.66 46.04 45.00 44.09 44.65 44.10 43.34 42.39 41.45 36.47 32.56 32.30 35.34 38.10 39.57 38.00 35.88 33.45 32.70 32.01 30.99 30.56 29.96 28.15 27.67 28.17 27.78 28.81 29.88
39.20 38.63 36.61 36.09 43.88 43.84 44.56 47.38 48.44 47.55 47.22 48.67 49.72 48.63 47.75 47.80 45.89 44.98 43.90 43.56 42.09 40.02 33.88 31.93 30.75 30.12 29.89 30.47 31.35 33.31 34.96 34.19 31.96 30.35 29.95 29.74 29.37 28.41 28.22 27.58 26.99 29.13 28.61 28.53

GFSCGP_sfc_wetblb_087.txt.gz
Wetbulb
43.93 38.95 37.86 39.93 40.47 40.96 39.78 38.16 36.65 40.82 44.67 42.33 42.40 41.72 44.63 45.76 47.00 48.85 51.42 51.23 48.90 50.26 53.24 55.24 55.68 55.66 55.44 55.54 55.15 55.34 54.88 55.90 55.87 55.34 54.58 54.56 54.45 55.70 56.53 57.58 58.93 58.49 59.37 59.89
40.08 38.12 43.80 43.88 42.30 41.22 39.98 37.83 37.59 40.86 44.20 41.89 41.22 40.93 41.05 45.32 47.24 49.38 50.60 49.36 48.68 49.83 52.45 54.40 55.21 54.85 54.52 54.50 54.57 54.85 55.26 55.38 55.15 54.65 54.20 53.99 54.75 55.32 55.84 57.75 57.53 58.82 57.68 58.66
37.45 41.08 45.60 43.82 41.74 40.42 39.70 37.86 38.09 38.06 42.57 42.12 39.40 38.00 40.77 44.48 47.91 50.26 50.55 50.01 49.91 49.53 50.04 52.80 53.44 54.32 54.75 53.96 54.42 54.51 54.69 54.20 54.65 54.99 54.30 53.58 53.93 55.03 54.54 56.30 56.63 57.42 58.35 57.94
38.18 43.35 42.09 42.38 41.44 41.97 36.99 43.09 42.54 40.95 37.72 33.78 38.71 30.49 37.16 40.94 44.51 47.75 48.46 48.87 49.26 50.31 50.92 52.20 51.95 52.00 52.92 54.06 53.73 53.48 53.58 53.11 52.28 52.11 51.80 51.81 51.33 51.14 53.17 53.09 56.38 55.66 57.47 57.81
37.20 39.59 39.80 38.96 41.63 43.84 40.80 44.82 42.48 41.40 38.58 34.28 35.41 32.58 35.70 42.49 42.12 44.46 46.30 47.62 49.06 50.78 50.78 51.17 51.76 52.36 52.66 53.25 52.64 52.77 53.07 52.87 52.78 51.95 51.54 50.73 50.37 50.77 53.67 54.76 55.34 55.58 56.99 58.68
39.14 42.55 41.78 41.79 43.71 44.91 46.09 42.58 41.10 39.59 36.79 30.18 36.70 35.18 33.93 36.58 42.69 45.22 47.12 47.59 48.39 50.52 51.05 51.70 52.23 52.46 52.08 52.62 52.51 52.42 52.43 52.64 52.76 52.16 51.89 50.91 51.36 52.60 53.37 54.45 54.58 55.26 56.14 56.97
38.13 39.59 41.11 43.82 39.99 42.65 41.63 37.00 29.31 27.80 28.43 28.22 38.40 36.64 37.81 42.65 44.21 46.96 47.32 48.03 48.51 50.37 51.16 51.25 50.99 51.67 52.40 51.70 52.06 52.59 52.72 52.46 53.03 52.24 52.18 52.28 52.09 53.13 54.02 54.42 55.48 55.21 55.52 55.62
30.50 29.80 39.83 42.06 40.05 38.05 37.86 37.88 30.65 26.40 25.83 29.49 38.77 33.21 38.10 45.07 47.07 46.46 49.87 49.79 49.73 49.92 51.28 51.41 51.74 52.39 53.12 52.86 52.05 52.43 52.41 52.47 53.14 52.72 52.52 53.00 53.56 53.83 55.14 55.43 56.22 56.61 56.68 56.89
32.18 32.83 41.74 43.00 43.49 42.36 37.97 35.34 41.09 33.79 34.97 31.21 33.87 37.95 43.28 45.02 45.32 44.63 47.33 48.45 48.04 50.43 50.84 51.18 52.35 53.12 53.52 54.10 53.25 52.45 52.59 52.85 53.10 53.13 53.10 53.16 53.94 54.65 55.32 56.22 56.90 57.41 57.86 57.95
36.73 32.15 40.70 42.31 43.19 42.95 41.65 43.28 34.76 34.32 28.73 27.26 31.44 33.47 35.56 41.40 42.17 43.23 44.70 47.98 48.63 50.50 51.76 51.98 52.40 53.51 54.39 54.60 54.62 54.16 53.56 53.05 53.33 53.79 54.07 54.34 54.92 55.80 56.23 57.19 56.89 57.45 58.13 57.76
39.80 34.11 35.60 40.61 37.97 36.82 38.05 38.09 38.55 38.00 34.05 29.21 26.72 30.76 41.18 42.59 43.92 42.80 42.95 47.48 49.66 49.68 51.25 52.65 53.40 54.09 55.01 55.16 54.97 53.86 53.58 53.55 53.82 54.57 55.50 56.03 56.65 57.51 58.11 58.08 57.57 57.56 57.86 56.22
40.60 35.26 30.77 35.04 41.74 42.30 41.10 40.19 40.21 33.21 32.26 33.06 30.95 32.15 42.97 43.47 43.42 44.65 44.44 45.41 46.44 50.98 51.75 52.68 53.72 54.17 54.30 54.86 55.19 54.14 53.50 53.41 54.61 55.94 56.47 56.42 57.55 58.17 58.46 58.20 58.26 57.35 56.48 55.92
39.91 34.91 27.79 31.65 36.74 41.22 38.87 39.96 40.80 39.79 36.64 32.71 29.60 32.30 44.46 44.70 44.47 45.32 44.50 44.95 46.03 48.08 49.92 51.98 52.78 53.72 54.25 54.38 54.76 55.59 55.27 54.11 55.03 56.18 56.50 56.00 56.14 57.63 58.03 58.22 56.65 56.20 56.44 55.68
41.54 38.03 34.07 28.86 32.67 37.32 36.76 39.87 41.09 40.62 32.47 32.66 34.79 37.01 41.09 43.52 44.02 45.45 46.02 45.66 45.51 46.21 49.00 50.75 51.22 52.98 54.03 54.91 55.32 55.38 55.76 56.09 56.13 56.17 55.93 55.64 55.87 57.06 57.71 57.86 56.12 56.38 55.86 56.16
39.32 34.17 36.80 37.11 38.51 39.63 40.01 39.24 39.84 37.49 37.80 35.36 37.29 38.52 42.28 43.13 44.24 45.45 46.84 46.96 45.52 45.90 45.68 47.91 50.11 51.80 53.13 53.27 54.42 55.77 56.43 56.66 56.51 55.74 55.40 55.57 56.59 56.64 56.10 56.38 56.54 56.94 57.00 56.38
39.91 34.75 36.23 33.92 37.67 39.03 38.08 39.70 41.03 40.29 39.51 38.35 39.26 39.08 44.18 45.48 45.45 44.54 45.52 45.91 45.48 46.29 46.65 46.67 48.36 49.23 50.82 52.03 53.01 53.95 54.59 55.59 55.84 55.94 55.55 53.67 53.62 54.87 55.01 54.35 54.57 52.27 51.47 51.41
35.73 35.40 33.45 29.81 36.15 36.67 31.42 37.32 39.61 40.99 40.80 39.10 35.82 40.68 44.36 43.24 43.78 44.62 44.81 45.01 45.22 46.50 46.88 46.80 46.23 49.38 50.70 51.47 52.47 51.67 51.47 52.03 52.89 52.93 51.94 51.03 51.38 50.11 49.77 50.33 50.33 49.59 49.41 49.75
36.39 35.28 32.86 30.14 31.96 26.74 35.76 42.40 43.57 41.45 43.29 43.49 42.67 43.71 44.00 44.39 44.88 44.30 44.63 44.84 45.59 45.87 46.28 49.86 51.46 50.71 50.39 51.99 51.57 51.74 52.00 51.21 50.99 50.27 49.71 49.91 49.77 48.88 48.68 48.46 48.48 47.63 47.96 47.72
40.27 37.13 31.91 30.25 29.22 32.78 36.26 39.74 40.40 39.50 39.03 44.53 43.75 44.23 43.94 43.97 43.30 42.64 44.90 45.31 45.75 46.71 48.20 50.61 49.65 48.79 50.00 50.53 50.86 50.43 50.02 50.22 50.20 49.39 49.39 48.68 47.94 47.40 47.04 46.15 45.43 46.06 45.83 45.52
39.62 39.39 34.80 31.74 27.82 24.10 32.83 41.85 45.29 45.48 35.23 44.75 45.25 45.62 43.50 43.50 38.21 41.26 45.43 46.47 47.59 49.86 50.00 48.28 47.80 49.01 48.99 49.31 50.74 49.90 49.02 49.19 48.14 48.01 47.22 47.13 46.79 46.32 45.54 45.10 45.04 45.64 44.87 42.56
33.42 33.57 31.90 31.26 29.71 31.09 39.15 42.27 45.65 34.31 34.97 44.41 46.20 45.00 44.26 41.77 43.91 44.90 47.41 47.87 49.54 49.57 48.28 48.08 47.56 47.38 47.63 48.12 48.85 47.38 47.81 46.55 46.89 46.77 46.54 45.75 46.01 45.09 44.83 44.29 43.26 39.99 37.99 35.57
31.92 31.17 29.92 31.00 26.96 25.02 41.51 43.78 36.60 40.30 45.65 46.64 45.52 47.33 44.70 45.96 44.24 46.36 47.73 48.74 49.65 48.61 48.19 47.42 46.59 46.13 45.50 45.53 45.44 45.33 44.81 45.62 45.62 45.42 45.01 44.36 43.47 43.60 42.43 39.94 38.15 36.38 34.66 32.15
29.97 34.69 33.33 33.82 31.48 39.15 42.51 45.70 47.56 47.58 46.54 46.92 46.65 48.52 47.35 45.16 44.87 46.89 46.61 48.34 48.85 48.51 47.92 47.52 46.61 45.16 44.65 44.74 44.48 43.26 44.83 44.59 42.39 39.20 36.73 36.38 36.18 36.33 37.55 36.70 35.31 33.77 33.30 31.42
37.05 40.98 36.79 36.69 39.43 40.43 42.65 44.77 47.69 48.38 47.15 48.39 48.44 48.57 47.14 45.59 45.96 45.61 46.02 47.16 46.89 47.29 46.84 46.18 42.04 38.51 38.20 39.22 40.13 41.26 39.98 37.45 35.98 34.09 33.37 33.08 31.86 31.26 31.71 31.59 31.95 31.33 31.33 31.37
36.88 40.61 38.57 36.56 39.81 40.90 43.73 45.40 46.81 48.49 49.11 48.67 48.68 49.15 47.84 47.20 46.04 45.47 45.48 44.29 43.26 39.72 36.89 36.44 34.54 33.37 33.80 35.24 34.74 35.56 35.54 34.95 32.57 31.69 31.05 30.03 28.53 27.75 27.36 27.87 28.53 28.43 29.52 30.93
38.31 37.24 34.25 33.63 41.28 39.94 42.09 45.40 47.73 46.77 47.13 48.35 48.37 48.12 48.31 47.60 44.76 44.91 42.06 40.12 34.98 32.91 32.77 31.23 30.61 30.27 30.50 30.71 30.67 31.81 32.88 32.36 30.44 29.23 29.11 28.68 29.20 29.36 29.02 27.72 26.93 30.14 29.52 29.29

GFSCGP_sfc_wetblb_090.txt.gz
Wetbulb
42.47 36.97 35.18 39.70 39.17 39.37 37.86 36.43 34.82 37.77 41.61 39.35 39.22 38.59 41.84 43.56 44.51 46.16 49.04 51.14 49.75 49.04 53.19 55.45 55.70 55.98 56.06 55.38 55.10 55.32 55.72 55.72 56.26 56.71 56.25 55.89 56.17 56.27 56.71 58.60 58.95 59.42 59.30 58.37
39.02 36.04 41.17 42.26 41.27 39.94 38.68 36.47 35.88 38.80 42.25 40.80 39.22 39.23 42.35 42.36 44.55 45.17 47.66 48.39 48.24 49.33 52.62 54.45 54.84 54.90 54.96 54.68 55.08 55.00 55.48 55.52 55.60 56.30 56.24 55.76 56.04 55.43 56.31 57.68 58.41 58.78 59.75 59.33
37.19 39.39 44.03 42.25 39.63 38.44 37.62 37.23 35.92 36.50 39.83 40.14 37.25 36.06 39.67 42.13 45.65 48.32 49.30 49.32 49.27 49.41 49.84 52.33 54.05 54.24 54.37 54.21 54.29 54.59 54.89 55.26 55.09 55.26 54.47 54.45 54.70 54.71 54.60 55.91 56.45 57.40 57.92 58.88
37.18 42.23 41.03 40.59 39.99 40.49 35.69 41.08 40.29 38.77 35.61 31.25 36.99 28.81 36.18 39.42 42.60 46.19 48.02 48.34 48.50 49.05 50.29 51.20 52.64 53.75 53.91 54.31 54.70 55.11 54.95 54.98 55.12 54.77 53.63 53.91 54.13 52.23 53.33 54.24 55.80 56.16 57.52 57.33
35.94 38.07 38.81 37.89 40.04 41.90 39.10 42.71 40.21 39.34 35.60 32.99 34.30 30.98 34.78 39.96 40.76 43.05 45.59 48.30 48.62 49.20 50.19 50.20 52.35 53.02 54.37 54.55 54.33 54.43 54.31 53.97 54.06 53.31 53.23 51.64 51.91 52.97 52.70 53.94 54.45 54.65 55.91 57.19
37.23 41.11 40.41 40.16 42.30 43.16 44.69 40.82 39.34 37.70 35.00 28.42 34.41 33.32 32.31 35.60 40.84 43.05 45.28 47.27 49.00 49.00 49.90 50.58 52.05 52.90 52.66 54.02 53.77 52.90 53.28 53.00 52.19 51.46 50.68 50.90 50.24 49.66 50.38 51.52 52.55 53.00 53.70 54.82
35.01 37.08 41.00 42.67 38.29 41.45 40.14 36.53 28.24 26.87 27.36 27.64 35.40 34.77 36.35 40.84 42.87 44.57 45.81 46.56 47.86 49.37 50.01 50.03 50.22 51.44 51.45 52.01 52.41 52.99 52.72 52.10 52.44 51.40 51.17 50.54 50.43 50.43 50.92 51.24 52.60 52.85 53.60 53.94
28.76 27.11 36.69 41.62 40.51 38.14 38.43 37.04 29.03 25.63 24.93 28.48 37.06 32.60 37.17 43.90 45.45 45.87 46.58 46.67 47.34 47.95 50.18 50.16 50.81 51.35 51.66 51.64 51.71 52.02 52.23 51.92 52.17 51.81 51.28 51.44 51.31 51.31 52.16 52.33 52.74 53.36 54.49 54.98
30.41 29.15 39.45 41.72 42.71 41.97 36.60 33.40 39.27 31.60 32.38 29.69 32.31 36.25 41.41 43.75 44.69 44.35 43.69 46.17 46.16 47.63 49.31 50.18 51.07 51.43 52.18 51.95 51.89 52.01 52.17 52.40 52.39 52.30 51.92 51.32 51.45 51.54 51.55 52.32 53.32 54.51 54.86 55.85
36.13 29.66 38.10 40.92 41.80 41.68 39.15 40.93 32.84 32.34 26.43 25.92 29.74 31.79 33.78 39.58 42.10 43.39 43.15 45.59 45.98 48.19 49.19 50.14 50.99 51.66 52.41 53.33 52.66 52.36 52.56 52.18 52.66 52.54 52.58 52.06 51.71 51.89 52.41 52.39 53.60 54.63 55.38 55.14
38.13 34.06 33.11 38.11 36.12 35.47 35.84 36.00 36.23 36.46 32.75 27.33 25.58 29.61 39.42 41.50 43.37 43.30 42.97 44.64 46.79 47.36 49.45 50.31 51.21 52.13 52.76 53.59 53.78 53.03 52.72 52.64 52.37 52.62 52.53 52.43 52.37 52.41 52.91 53.11 53.71 55.02 55.38 55.87
38.80 35.91 29.03 33.56 39.74 40.14 38.18 36.87 37.94 31.99 29.57 30.85 29.27 32.24 41.11 42.50 42.92 43.74 43.76 44.27 45.51 48.43 48.48 50.69 50.97 51.33 52.27 52.87 53.59 53.51 53.24 52.95 53.58 53.67 53.71 53.42 53.35 53.30 53.51 53.88 54.64 55.32 55.44 56.06
38.53 34.61 28.60 30.08 34.65 38.01 35.06 37.09 38.90 38.12 35.89 32.35 28.76 31.10 42.68 42.17 43.30 44.16 43.93 44.64 44.49 46.98 48.46 48.83 50.90 51.72 52.18 53.07 53.42 53.47 53.24 53.07 53.63 54.00 53.41 53.61 54.06 54.46 54.65 55.33 55.99 56.73 56.66 56.37
40.24 34.39 31.20 28.66 31.92 36.69 33.78 36.34 38.35 38.34 30.96 32.44 33.95 34.42 39.51 42.12 43.14 44.68 45.04 44.90 44.44 44.39 47.28 48.83 49.11 51.55 52.69 53.18 53.83 53.94 53.87 53.54 53.25 52.93 52.95 52.94 53.70 54.61 55.48 56.29 56.71 56.96 56.39 56.96
38.06 29.66 32.68 34.54 36.13 35.71 36.03 36.45 37.53 36.21 36.48 33.11 34.71 36.77 40.24 42.35 43.25 45.41 45.88 45.19 44.83 45.28 45.62 47.58 48.90 50.40 51.87 52.70 53.26 54.06 54.72 54.73 53.46 52.50 52.23 52.54 53.52 54.19 53.83 54.92 55.52 55.82 56.89 56.99
38.60 28.70 34.19 30.63 35.41 36.81 34.58 37.31 37.73 38.00 37.04 35.93 36.49 35.89 42.65 45.04 43.09 43.51 45.14 45.93 45.68 44.94 45.54 45.88 47.75 49.45 50.39 51.84 52.80 53.55 53.77 54.19 54.40 53.78 52.92 53.30 53.26 53.12 53.04 54.11 54.82 56.06 56.55 55.81
34.33 33.10 32.87 28.48 34.37 33.48 29.44 34.49 37.06 37.34 39.17 38.75 34.13 38.41 41.03 42.47 42.57 43.66 45.47 44.68 45.04 45.67 45.61 45.61 45.95 47.57 48.23 49.08 50.12 50.05 50.64 51.92 52.72 53.28 52.23 51.45 51.84 52.62 53.79 53.70 53.76 53.88 53.50 52.47
31.39 33.80 32.92 29.53 31.31 26.21 34.61 40.27 41.01 38.85 39.83 40.36 40.19 41.29 42.53 43.15 44.95 45.37 45.22 45.19 45.02 45.45 45.41 45.39 46.55 48.37 49.67 50.91 50.96 51.48 52.24 51.75 51.65 51.08 50.69 50.70 50.88 50.36 50.36 50.90 51.07 49.29 49.09 48.91
33.71 33.75 30.13 28.90 29.64 31.96 35.39 38.49 38.07 37.72 37.94 42.13 41.62 42.23 43.78 43.79 41.77 42.49 44.71 44.12 44.90 44.51 45.86 48.97 48.85 49.84 50.28 50.12 50.85 50.83 50.39 50.41 50.03 49.58 49.94 50.16 49.80 48.55 47.81 47.29 46.18 46.38 46.07 45.35
35.96 36.77 31.77 30.85 26.59 23.78 34.48 39.98 42.61 43.29 32.47 42.86 42.77 42.52 42.82 43.04 37.72 41.16 44.30 45.39 46.84 49.25 48.61 48.08 49.14 49.16 49.89 50.12 50.82 50.21 49.51 48.89 48.06 48.03 47.52 48.17 47.50 46.87 45.52 45.53 45.37 44.89 43.36 40.65
31.41 32.26 29.18 29.31 28.99 31.06 39.44 42.48 43.26 31.30 33.58 43.31 43.71 43.42 43.63 42.11 44.90 45.67 46.77 48.29 48.62 47.90 47.11 47.59 47.87 47.28 48.13 49.17 49.43 47.56 46.91 45.54 46.34 46.43 46.07 45.81 45.49 44.70 44.18 41.88 40.83 38.75 35.80 33.50
27.67 29.98 30.05 31.83 29.29 26.75 41.21 41.89 37.39 39.46 43.62 44.63 44.73 44.54 44.77 44.41 44.58 45.03 47.93 48.01 47.88 47.97 47.20 47.07 46.73 46.31 46.73 47.94 47.51 45.29 43.91 44.95 44.03 41.97 40.54 40.05 40.49 40.63 39.40 37.42 36.40 35.21 33.23 30.97
28.15 33.37 31.55 33.73 33.12 40.91 41.47 42.24 44.24 46.94 44.79 45.02 44.93 46.05 45.93 45.31 45.78 46.24 47.82 47.65 47.68 47.23 46.64 47.11 45.96 44.36 44.38 44.89 45.27 42.39 40.65 39.36 38.52 37.37 36.23 35.95 35.95 35.97 36.39 35.19 34.25 33.03 32.34 30.68
33.20 38.23 33.95 34.73 38.50 39.83 40.86 43.46 44.18 45.99 45.75 47.38 47.47 47.70 46.32 44.86 45.84 46.80 47.57 47.30 46.15 45.34 42.66 41.59 40.40 39.05 38.01 39.65 38.99 38.05 38.09 37.70 35.83 33.66 32.48 32.01 30.97 30.92 31.63 31.98 32.25 31.96 31.50 30.52
33.35 36.13 35.01 35.61 40.08 41.69 41.75 43.29 43.87 45.40 47.91 47.45 48.65 47.98 48.35 46.34 45.03 46.68 44.41 39.23 37.51 36.19 35.22 34.86 33.83 32.41 31.98 32.95 33.11 34.16 34.11 32.91 29.50 28.21 27.93 28.28 29.38 29.61 28.71 28.67 29.16 28.81 29.10 30.67
35.26 33.92 31.85 31.32 39.95 38.34 39.24 42.78 45.82 44.16 45.17 44.70 45.78 47.47 47.93 46.47 42.35 36.41 33.97 34.23 33.68 32.44 32.35 30.77 30.11 29.04 29.01 29.35 29.45 30.25 31.36 31.07 29.77 29.42 29.96 30.22 29.96 29.48 28.21 27.71 27.50 30.41 30.10 29.85

GFSCGP_sfc_wetblb_093.txt.gz
Wetbulb
44.70 40.73 38.53 41.99 43.46 42.59 41.60 40.08 39.69 42.26 44.99 43.43 43.63 43.14 45.85 48.85 48.04 48.83 52.64 54.63 53.51 53.79 54.88 55.69 56.36 56.82 56.39 56.70 56.27 56.47 56.11 57.11 57.05 56.98 57.37 57.82 57.44 58.61 59.00 59.72 59.95 60.66 60.79 60.40
40.99 36.51 42.71 44.81 43.40 42.88 42.33 40.38 39.90 42.87 44.53 43.45 43.25 43.26 46.88 47.62 48.57 49.62 50.37 52.85 54.36 53.38 53.43 54.64 54.59 56.09 55.67 55.67 56.53 56.28 56.07 56.59 57.25 57.78 57.92 57.64 57.70 58.30 58.74 59.56 60.14 60.10 60.29 59.99
38.17 41.30 44.07 42.51 41.21 40.06 41.08 39.99 40.37 39.93 42.77 44.05 42.52 41.51 44.63 47.16 48.36 49.79 50.81 52.90 54.48 53.45 52.75 54.00 54.47 54.64 55.53 55.10 55.88 55.63 55.96 56.20 57.08 57.52 56.91 56.15 56.03 56.11 58.01 59.04 59.02 60.69 60.55 58.84
40.04 43.76 41.74 40.93 40.24 41.90 37.41 43.14 42.43 41.00 39.60 35.57 42.67 34.94 42.10 46.16 46.87 47.99 50.50 51.56 52.64 53.16 53.59 54.30 54.85 54.46 54.43 55.80 56.08 55.88 56.20 55.69 56.04 56.36 56.52 56.28 55.30 55.29 56.41 58.18 58.13 58.48 59.92 59.52
38.39 39.70 39.65 39.02 40.97 43.21 40.41 44.32 42.57 42.34 39.10 38.66 39.40 37.34 41.07 43.22 44.48 47.54 50.01 51.40 52.53 53.53 53.76 53.60 54.53 55.65 55.80 56.64 56.01 55.77 55.85 55.58 55.69 56.40 56.08 55.78 54.51 56.18 54.69 56.45 58.11 57.06 57.33 58.01
39.44 43.44 42.19 41.79 43.00 44.31 45.46 43.05 42.29 41.10 39.35 33.08 37.97 38.23 39.18 41.94 45.22 47.75 49.71 50.55 52.37 53.00 53.50 54.26 55.05 56.00 55.37 56.07 55.98 55.82 55.15 54.79 55.06 54.90 55.82 56.26 55.43 55.28 54.21 54.63 55.03 56.40 57.05 58.00
37.47 38.97 42.07 43.64 39.80 43.56 43.13 40.02 32.79 31.32 31.39 31.54 39.17 36.83 40.73 45.28 47.38 48.23 49.55 50.88 52.21 53.41 53.31 53.60 53.46 53.98 54.02 54.18 55.40 55.23 55.36 54.44 54.21 54.10 54.41 54.94 55.51 55.98 56.01 55.75 56.37 55.97 56.42 57.20
30.18 28.45 38.53 41.94 41.95 39.51 39.51 39.29 33.26 27.11 29.43 33.51 39.06 35.77 41.18 48.12 50.02 49.93 50.42 51.10 51.88 52.78 53.57 53.62 53.99 54.12 53.78 53.69 54.28 54.76 54.53 55.17 54.96 54.42 54.55 55.19 55.23 55.28 55.97 56.59 57.00 56.99 57.83 58.02
31.92 31.16 40.87 40.86 43.43 43.45 39.25 36.17 41.90 35.45 35.76 33.60 36.92 40.21 45.14 47.77 48.47 48.17 48.95 49.20 50.68 51.63 53.11 53.93 54.07 54.28 54.35 53.54 53.40 53.54 53.89 53.98 54.95 55.38 55.14 54.83 55.18 55.13 55.07 56.03 56.60 56.77 57.55 58.05
36.08 31.84 38.98 40.99 42.66 43.24 41.35 43.29 35.31 36.09 28.67 27.36 33.14 35.89 38.45 43.04 46.31 48.29 48.59 49.36 50.84 51.26 52.23 53.68 54.23 54.59 54.92 55.39 54.28 53.41 53.79 53.36 54.45 55.69 55.63 55.29 55.33 55.31 55.81 56.09 56.02 56.67 57.78 58.12
38.54 35.97 35.96 40.13 37.93 37.95 38.27 37.38 38.86 38.93 35.75 30.79 29.71 34.62 44.93 45.86 48.20 47.61 49.76 49.55 50.00 51.95 52.25 53.24 54.37 55.08 55.47 55.94 55.59 54.85 53.96 55.03 55.16 55.76 55.93 55.57 55.57 55.52 56.02 55.98 56.32 56.80 57.87 57.86
39.67 36.44 31.51 34.81 41.36 42.45 41.15 38.67 39.30 33.49 32.60 35.51 34.43 35.71 45.59 47.44 48.34 48.04 49.29 49.49 49.13 52.80 53.18 53.62 54.43 54.68 54.77 55.15 55.50 55.23 55.38 55.20 55.98 56.13 56.04 55.84 56.14 55.45 55.70 56.04 56.53 57.50 57.16 58.54
35.42 33.01 28.11 32.45 36.97 40.51 37.54 38.98 39.72 39.53 37.85 33.88 31.44 35.46 45.60 45.55 46.56 48.29 48.76 50.57 49.63 49.74 52.76 53.52 54.11 54.08 54.61 55.15 55.52 55.59 55.64 55.83 56.24 56.21 56.09 55.87 55.88 55.61 54.79 55.89 56.59 57.33 57.33 57.48
39.31 33.78 29.54 26.79 31.72 35.08 33.06 36.25 37.47 36.88 33.45 35.15 35.60 37.76 43.72 45.69 46.06 48.89 49.38 50.88 50.20 49.11 51.31 53.23 54.17 54.79 55.03 55.35 55.98 56.08 56.07 56.53 56.59 56.27 55.88 55.73 56.06 56.10 56.11 56.57 57.09 57.76 57.63 57.41
38.26 30.85 33.30 33.97 34.81 34.65 34.71 34.03 35.28 34.88 36.69 33.54 37.52 38.82 42.82 46.24 47.66 49.84 51.11 50.39 49.09 49.26 48.72 51.70 53.68 54.46 55.23 55.44 55.90 56.38 56.58 56.72 56.74 55.98 56.11 56.02 56.78 56.97 56.93 57.73 57.75 58.03 58.67 58.97
34.81 32.32 33.51 30.79 34.27 34.97 32.44 35.99 37.37 37.47 38.38 38.52 39.14 39.62 46.01 48.17 48.53 47.74 48.95 49.22 49.46 50.36 49.77 50.73 52.36 53.61 54.45 55.20 55.90 56.23 56.62 56.74 56.42 55.54 55.41 56.07 55.92 55.92 56.68 57.31 57.65 58.44 58.63 58.97
31.10 30.63 31.42 28.03 34.23 34.42 30.89 35.07 37.43 39.16 40.72 40.84 36.90 42.70 45.85 45.44 45.87 47.81 49.33 49.44 48.95 49.95 49.74 49.95 50.15 51.87 54.30 54.99 55.61 55.91 56.14 57.08 56.40 55.50 55.34 55.09 55.23 55.09 55.98 56.50 56.90 57.25 57.87 58.15
30.99 31.09 30.29 27.53 31.04 24.12 36.11 41.14 41.86 39.30 40.75 43.17 43.79 44.87 45.81 47.32 48.76 49.13 49.82 49.73 49.74 49.55 49.85 49.96 49.06 50.41 52.01 53.04 53.18 53.93 55.01 55.77 56.01 55.82 54.63 54.98 55.02 54.11 54.35 55.14 55.25 53.38 50.96 49.52
34.69 31.45 27.36 25.84 27.16 32.60 34.49 39.41 38.85 37.26 37.77 44.06 42.83 45.08 46.97 48.28 46.08 46.83 48.58 48.73 49.36 49.73 48.81 50.29 51.07 51.89 52.06 51.86 52.61 52.89 52.53 52.39 52.21 52.10 52.17 52.53 52.62 50.75 49.30 48.60 47.29 47.06 45.10 42.52
34.24 33.94 29.97 29.23 24.99 22.99 34.46 41.74 44.25 43.81 35.06 45.12 45.55 45.57 45.49 47.03 42.11 46.21 47.98 48.48 49.95 50.05 50.23 50.07 50.76 50.91 51.43 51.73 52.52 51.40 50.02 48.98 47.51 47.55 47.64 48.18 47.94 46.95 45.98 45.22 43.39 41.02 38.98 36.99
28.06 28.25 25.71 26.89 26.50 32.03 39.77 42.83 45.69 32.60 36.69 44.65 46.59 46.91 45.79 44.56 47.29 48.74 49.35 48.13 47.25 47.23 48.08 49.51 49.66 49.55 50.09 50.51 49.63 47.33 46.58 45.21 45.99 45.99 45.71 45.09 44.40 42.69 41.88 40.66 39.27 36.80 34.59 32.81
30.37 28.16 27.18 28.77 27.03 24.31 42.64 43.01 37.23 40.65 44.37 45.58 47.27 47.78 47.45 47.99 47.59 49.17 49.09 47.79 47.38 46.50 47.49 48.13 47.44 47.20 47.73 47.33 46.26 44.13 41.71 42.10 41.92 41.43 40.39 39.75 39.53 39.23 38.77 37.06 35.80 34.41 32.65 30.85
27.99 34.07 33.01 33.35 31.09 41.64 43.30 42.29 44.98 47.44 44.49 46.53 47.40 48.44 48.17 46.75 47.49 48.17 46.84 46.38 46.06 45.28 44.91 44.89 44.09 42.58 43.05 44.51 43.64 39.69 39.53 39.31 38.12 36.80 35.24 34.78 34.76 34.87 35.31 34.62 33.40 32.23 31.61 29.79
34.88 38.46 35.29 35.29 38.71 40.31 42.24 44.67 45.39 45.72 45.83 47.82 49.31 48.90 48.57 47.51 47.58 46.72 46.00 42.79 41.08 41.22 40.55 39.14 37.16 34.98 34.25 36.71 37.88 37.69 36.80 36.24 35.29 34.14 33.57 32.87 32.53 32.19 32.60 31.95 32.12 31.83 31.37 30.29
35.68 37.81 35.88 35.11 38.22 41.19 43.03 43.99 44.25 45.40 47.61 47.98 48.74 49.16 48.13 47.15 41.99 40.30 38.21 36.93 35.75 35.42 35.47 35.45 33.69 32.41 31.65 32.72 33.36 34.53 34.58 35.13 33.82 33.38 32.43 31.32 30.53 29.85 29.05 29.38 29.36 28.71 29.55 30.09
37.39 36.09 33.49 32.40 39.16 40.05 41.27 43.19 44.51 45.62 43.39 42.76 45.42 48.37 47.93 43.69 38.88 35.93 33.63 33.67 33.53 32.39 32.63 31.98 31.92 31.33 30.90 31.35 32.11 33.19 34.56 34.76 33.59 31.95 31.35 31.15 30.69 30.20 29.14 28.63 28.04 29.34 28.89 28.89

GFSCGP_sfc_wetblb_096.txt.gz
Wetbulb
43.31 42.94 41.29 44.76 46.36 46.64 45.72 43.79 43.42 45.99 48.25 46.86 46.98 46.72 48.97 52.46 53.21 53.29 54.77 57.27 58.45 59.05 60.29 59.98 59.73 60.11 58.32 59.17 58.47 57.82 58.39 59.34 59.61 59.03 58.40 58.92 58.54 59.92 60.69 61.39 61.39 61.88 61.06 61.62
42.80 38.93 44.12 46.57 46.48 45.47 44.76 42.71 42.59 45.84 47.96 46.94 46.48 45.87 49.22 51.34 52.42 53.58 54.15 55.92 57.71 58.95 59.15 58.65 58.55 59.30 58.49 58.28 59.03 57.50 57.45 58.56 58.56 58.94 58.59 58.99 59.62 59.45 59.91 60.51 60.88 61.01 61.30 62.31
39.99 43.63 45.74 43.42 43.93 42.57 43.23 41.93 42.36 42.66 46.36 47.63 46.18 44.32 45.89 49.61 52.68 53.81 55.25 56.38 57.57 58.42 58.51 58.27 57.33 57.06 58.14 57.27 58.34 58.28 58.49 57.55 58.13 58.77 57.77 57.35 57.97 58.83 58.62 59.33 59.67 60.03 61.10 62.14
42.22 45.65 43.98 43.04 41.36 42.93 39.23 44.44 43.79 43.14 42.69 39.56 45.44 37.81 43.64 48.46 49.78 51.65 52.97 55.93 57.14 58.15 58.89 59.02 58.54 56.92 56.51 57.19 60.24 59.79 58.84 57.80 58.41 58.54 58.28 57.08 56.28 55.01 57.67 59.14 59.94 60.17 60.54 60.00
41.02 42.34 42.26 41.56 42.90 44.51 41.41 45.20 44.12 44.06 42.84 42.71 42.89 40.14 42.42 47.88 47.55 50.07 52.39 54.00 57.36 58.77 59.00 58.93 59.10 58.43 57.17 57.51 58.08 58.55 59.14 57.33 57.65 58.68 58.33 56.88 56.62 56.69 58.27 58.64 60.63 60.67 59.87 60.31
39.96 45.27 43.32 43.83 45.11 45.71 46.39 44.76 45.00 45.21 43.61 36.84 41.32 40.86 41.36 45.27 48.37 49.54 51.73 54.09 56.89 58.27 59.06 59.71 59.98 59.80 59.39 59.00 59.09 58.08 58.28 57.29 57.20 58.69 59.24 57.51 57.85 56.05 56.39 57.27 57.77 59.97 59.96 61.64
36.76 38.06 43.01 44.87 41.30 44.11 43.75 42.17 35.98 35.15 35.20 34.65 42.51 40.45 42.53 48.28 50.66 51.54 51.76 53.60 56.63 58.50 58.90 59.11 58.76 58.38 59.22 58.38 58.42 58.29 57.83 56.53 58.00 59.50 58.46 57.87 58.63 58.28 56.70 57.41 57.47 59.19 58.46 58.16
34.09 31.27 39.12 44.08 42.24 40.78 40.95 41.45 35.63 30.02 33.58 37.06 42.55 38.36 43.76 50.29 52.31 53.21 54.21 54.78 56.33 57.88 58.92 59.30 59.42 59.07 58.94 58.85 57.78 57.68 57.88 57.43 56.94 56.18 56.83 58.37 59.69 57.94 58.38 59.60 59.42 59.08 58.61 59.28
34.93 34.89 42.54 42.20 43.98 43.48 41.34 38.38 43.54 38.11 39.94 36.17 40.95 44.13 48.37 50.18 50.79 52.35 52.81 52.98 55.06 57.09 58.60 59.15 59.80 59.74 59.21 59.12 58.71 58.12 58.14 57.39 57.59 57.69 57.23 57.30 58.90 58.23 58.73 59.93 59.82 59.28 59.93 59.91
37.23 33.58 41.49 42.27 44.17 44.05 42.83 45.01 37.35 39.58 30.78 30.50 37.24 39.77 41.72 45.59 47.56 50.68 51.86 52.87 54.48 56.74 57.85 59.25 59.72 59.81 59.65 59.47 59.68 59.17 59.40 58.83 58.90 58.60 58.81 58.34 58.64 59.04 59.35 59.86 59.42 59.82 60.04 59.99
40.07 36.68 38.18 42.02 40.40 38.80 39.46 39.34 40.53 41.10 39.95 33.79 33.16 38.74 47.65 47.40 48.64 50.17 52.16 53.33 54.59 56.64 57.33 58.73 59.91 60.36 59.96 59.62 59.48 57.59 57.51 58.46 58.75 59.77 59.80 59.43 59.32 59.41 59.54 59.06 59.32 59.36 59.97 59.93
38.78 37.08 32.87 36.58 44.03 45.24 44.09 41.75 41.13 36.05 35.13 38.97 38.16 38.81 49.30 50.09 50.81 52.16 52.60 53.70 54.22 56.34 57.99 58.62 59.50 60.12 59.74 59.47 59.21 57.69 56.04 57.10 58.39 59.43 59.81 59.79 60.03 59.94 59.34 59.48 59.41 59.84 59.31 60.22
37.70 35.21 30.94 34.48 39.87 42.46 40.06 41.95 42.02 41.66 41.21 36.81 35.17 39.38 48.36 49.85 49.69 51.65 52.38 53.73 54.22 54.28 57.56 58.21 58.67 59.18 59.56 59.60 59.45 59.29 58.69 58.14 59.40 59.51 59.57 59.44 59.45 59.39 59.29 59.13 59.22 59.96 59.80 59.79
39.16 34.94 32.47 30.09 34.14 38.04 35.77 38.28 40.61 39.08 35.73 37.47 38.70 40.38 44.57 46.76 48.10 49.54 51.38 53.77 55.02 54.81 56.14 57.57 58.12 58.98 59.65 59.92 59.94 59.80 59.68 60.10 60.09 59.81 59.35 59.04 59.32 59.57 59.41 59.64 59.64 59.98 59.69 59.34
38.45 31.73 34.54 35.31 36.03 36.18 35.80 36.11 37.77 37.67 39.03 35.97 39.38 40.90 43.88 46.51 47.61 49.48 51.96 53.37 53.69 54.63 54.12 55.80 57.63 59.03 59.66 59.93 60.18 60.42 60.58 60.32 60.45 59.77 59.42 59.37 59.79 60.03 59.87 59.52 59.51 59.52 59.57 59.46
36.86 32.20 34.84 33.01 36.96 36.59 34.22 36.90 38.10 38.55 39.91 40.68 41.21 40.64 47.82 49.08 49.85 49.61 50.71 51.55 51.94 53.71 55.16 55.84 56.29 58.07 59.39 59.71 59.89 60.22 60.47 60.69 60.52 59.72 59.46 59.99 59.79 59.67 59.47 59.34 59.46 59.71 59.75 60.16
33.92 33.70 31.84 29.10 35.70 35.89 31.65 36.12 37.94 39.31 41.64 42.36 39.35 44.42 48.21 47.73 48.18 49.89 51.80 52.68 52.79 53.89 54.63 55.40 55.86 56.16 58.62 59.67 59.94 60.27 60.66 61.23 60.14 59.91 59.82 59.77 59.70 59.08 59.19 59.34 59.18 58.56 58.67 59.32
33.08 31.97 30.57 28.39 32.06 24.73 37.32 43.29 43.08 41.12 43.36 45.39 45.74 46.67 47.97 49.26 50.52 51.94 52.82 53.19 53.50 54.13 54.38 55.23 56.08 55.10 56.30 59.71 60.27 61.11 60.77 60.29 59.67 59.56 59.19 59.16 58.91 58.57 58.79 58.56 57.82 56.56 52.44 49.22
38.04 34.56 29.00 26.51 27.74 32.72 36.19 40.28 41.62 41.04 41.07 46.18 46.86 47.87 48.48 50.03 50.91 50.62 53.14 53.45 52.88 52.68 53.35 54.72 55.69 55.98 56.59 56.38 58.17 58.94 59.17 59.09 58.18 55.97 56.35 56.92 57.17 54.80 51.71 48.73 47.90 45.69 42.45 38.57
38.14 36.39 31.82 29.66 24.24 22.27 34.96 43.68 46.26 45.36 36.22 47.37 47.48 47.49 48.99 50.32 44.99 48.20 53.13 52.78 52.94 53.25 54.19 54.43 55.30 55.49 55.35 55.25 55.74 53.67 51.96 50.53 48.72 48.60 48.24 48.05 47.55 46.11 43.42 41.45 39.11 38.13 36.33 34.84
30.76 31.73 28.28 28.03 26.50 31.20 39.59 43.68 46.82 34.08 37.19 46.18 47.14 47.09 48.52 48.61 50.96 53.29 52.24 49.71 51.60 51.30 51.30 51.99 52.18 51.32 52.14 52.47 50.41 47.64 46.52 44.66 44.60 43.85 43.12 42.06 41.30 39.70 38.85 37.24 36.17 34.79 32.87 31.43
31.51 30.06 27.95 28.71 27.31 24.79 42.76 42.52 36.63 40.69 45.78 47.02 46.20 46.52 48.25 51.45 51.14 51.93 48.58 47.88 47.70 48.16 48.07 49.03 48.04 47.86 49.54 49.06 46.27 42.79 40.64 40.82 40.34 39.46 38.49 37.92 37.79 37.48 36.69 35.34 34.41 33.14 31.85 30.58
30.56 35.02 34.08 34.16 32.50 41.39 43.73 42.36 44.14 44.98 45.30 46.29 45.66 46.47 49.79 50.72 51.17 47.52 46.38 45.83 45.15 44.09 42.11 40.94 39.97 41.01 42.02 42.87 42.03 38.62 38.38 38.70 38.30 38.08 36.88 35.96 35.63 35.37 35.65 34.49 33.64 32.67 32.02 30.54
38.04 40.68 36.57 36.89 39.08 40.87 41.52 42.54 44.49 45.56 46.98 48.17 49.40 49.95 50.97 48.78 49.06 46.40 45.59 44.50 42.25 40.70 39.23 38.60 37.66 36.32 36.13 38.15 38.19 38.38 38.95 39.07 38.29 36.68 36.22 36.07 34.63 33.69 33.25 32.70 32.21 31.98 31.52 30.29
38.74 39.75 37.32 37.28 39.65 40.93 42.35 44.45 45.09 45.95 48.34 47.05 47.73 50.33 50.93 48.15 46.31 43.74 41.76 40.65 39.66 37.32 37.35 37.09 36.12 35.87 35.49 36.90 38.08 40.30 40.84 40.03 37.30 35.65 35.19 34.23 33.01 31.41 29.64 29.70 30.33 29.36 29.63 31.52
40.70 38.49 36.12 35.22 41.51 41.07 41.20 44.29 46.08 45.46 47.37 46.70 46.14 50.59 50.18 47.19 43.61 41.01 36.94 36.04 35.65 34.78 34.93 34.26 34.77 34.74 34.88 36.14 36.98 38.52 39.83 38.85 36.43 34.52 34.49 34.34 33.94 32.93 30.85 28.47 26.90 28.21 28.02 27.54

GFSCGP_sfc_wetblb_102.txt.gz
Wetbulb
47.49 41.16 37.90 40.70 42.70 42.92 42.61 41.88 41.76 44.78 47.87 46.69 48.13 48.46 49.51 51.91 52.23 51.85 52.56 53.86 54.70 55.70 60.72 63.05 62.72 62.82 61.59 61.71 60.40 59.78 60.57 61.07 61.12 60.15 59.99 60.17 59.98 61.32 62.98 63.46 62.02 62.07 61.73 60.81
44.75 40.39 44.45 45.28 44.73 42.59 41.73 41.18 41.02 44.55 47.15 46.70 47.15 46.87 49.47 51.04 51.67 52.06 51.74 52.48 53.80 55.87 59.99 61.74 61.72 61.83 60.54 59.67 59.45 59.52 60.33 60.05 60.42 60.31 59.97 59.91 60.05 60.53 61.73 63.04 62.29 62.13 60.93 60.34
41.45 43.57 46.43 44.41 43.97 42.14 41.48 40.01 41.08 40.64 44.71 46.77 46.16 44.89 47.26 50.17 51.61 52.66 53.14 53.47 54.15 55.53 58.94 60.39 60.61 60.74 59.95 58.67 58.67 59.05 59.35 59.78 60.36 60.47 59.69 59.34 60.34 60.51 60.46 61.20 61.31 61.09 60.49 60.07
41.82 45.49 44.13 43.23 43.12 43.29 38.51 43.45 42.62 41.72 40.72 36.57 45.37 37.33 45.25 48.25 49.31 51.36 52.54 52.98 52.93 55.36 57.01 60.65 60.32 60.32 59.69 58.73 59.36 60.04 59.50 59.50 59.84 60.02 59.63 58.42 57.71 57.51 58.86 60.59 60.46 60.11 60.21 59.36
39.32 41.25 41.12 40.77 41.88 44.98 42.02 44.85 42.37 42.04 40.65 40.55 40.79 38.57 42.59 47.37 46.56 49.11 51.44 52.72 54.63 56.01 56.67 60.25 60.06 60.51 61.00 59.65 58.73 59.47 59.74 59.02 59.03 59.15 59.86 58.92 57.31 58.03 58.62 58.84 58.49 58.76 58.69 58.42
42.09 45.11 43.37 43.82 45.44 45.69 46.65 43.35 42.44 42.16 40.01 33.78 39.17 39.10 40.42 44.22 46.65 48.83 51.96 52.90 54.86 55.50 57.46 60.61 61.11 60.99 60.49 60.59 58.83 59.09 58.67 58.39 59.19 58.98 59.62 58.78 57.78 57.71 57.33 57.65 57.33 57.13 57.36 57.71
41.40 41.54 43.76 43.70 41.61 44.42 43.88 40.03 32.37 30.37 31.48 31.25 41.17 39.70 42.15 47.49 49.48 50.59 51.53 53.73 55.70 58.53 58.64 59.54 59.91 59.26 59.37 59.00 58.28 58.32 57.87 56.90 58.81 58.35 59.24 58.44 57.63 57.95 57.36 57.54 57.40 56.83 56.59 56.78
35.12 33.46 42.23 44.54 40.65 39.09 40.23 40.32 32.87 25.65 28.03 32.91 39.36 35.77 42.84 50.06 51.36 52.05 53.81 54.91 56.23 56.77 59.01 59.33 60.24 59.38 59.19 59.02 58.01 57.77 57.59 56.75 57.72 57.99 58.11 58.08 57.68 58.21 57.79 57.56 57.69 57.51 57.09 57.28
35.67 35.97 44.98 43.76 43.59 42.13 38.86 36.87 42.75 36.25 37.50 33.07 35.95 42.18 48.60 50.69 49.90 51.14 51.79 53.86 54.73 56.84 58.11 59.26 60.49 60.21 59.53 59.03 58.45 58.79 57.69 57.09 57.28 57.95 58.14 58.03 57.74 57.83 57.85 58.24 58.24 57.70 58.05 58.85
39.12 33.68 41.92 43.74 43.54 42.62 40.40 42.23 35.13 37.25 27.22 26.35 34.05 37.25 39.68 45.68 47.93 50.49 51.01 52.59 54.02 56.00 58.13 59.35 60.26 60.56 60.50 60.18 59.96 59.05 59.27 58.34 57.85 58.77 58.68 57.98 58.22 57.80 57.25 58.53 58.27 57.91 58.26 58.62
38.32 36.45 36.19 41.35 40.50 39.03 38.17 36.88 38.34 38.49 36.49 30.13 29.34 34.90 46.77 47.23 49.56 49.81 50.96 53.55 54.90 55.10 57.17 59.24 60.15 60.99 60.98 60.75 60.46 59.49 59.19 58.88 58.51 58.98 58.91 58.60 58.07 58.42 57.48 57.14 57.98 58.84 58.96 59.04
36.95 34.19 31.88 35.53 42.44 44.86 43.24 40.04 38.85 33.03 32.43 36.88 35.47 35.80 48.28 48.82 49.95 50.76 50.96 53.00 55.10 55.96 57.30 59.24 60.17 60.79 60.60 60.05 60.07 59.62 59.69 59.42 59.19 59.47 58.81 58.18 58.46 58.75 58.14 57.88 56.60 58.14 59.01 58.97
38.82 34.49 28.18 31.17 36.61 40.79 39.23 41.94 42.42 40.76 39.44 34.97 31.76 35.03 47.44 48.84 48.49 50.70 51.59 51.76 53.18 56.43 56.81 58.62 59.73 60.38 60.41 60.15 60.03 59.67 59.72 59.68 59.84 59.89 59.28 58.75 58.39 58.75 58.19 58.21 58.89 59.50 58.86 58.86
39.01 34.76 31.81 27.89 32.54 36.64 34.43 37.25 39.24 40.52 33.01 34.66 36.25 38.22 42.65 46.34 47.39 49.04 50.49 51.92 52.25 53.84 55.56 58.06 59.07 60.05 60.70 60.47 60.25 60.03 59.58 60.17 60.16 59.69 59.26 58.62 58.72 58.77 58.72 58.42 58.70 58.95 59.32 58.68
37.71 29.90 32.82 33.76 35.11 35.61 35.31 35.24 36.25 35.51 38.34 34.60 38.23 39.51 43.65 46.30 47.01 49.38 50.69 51.41 51.69 51.82 53.19 55.77 58.34 59.40 60.62 60.63 60.52 60.75 60.16 60.05 60.15 59.33 59.32 59.10 59.57 59.74 59.80 59.26 59.24 59.15 59.37 58.72
38.08 29.62 31.97 30.57 34.97 35.49 33.35 35.50 36.35 36.85 37.68 37.76 38.89 38.83 44.88 46.90 48.09 47.57 48.87 49.70 49.78 51.25 52.23 53.22 57.24 59.05 59.95 60.83 60.61 60.70 60.34 59.38 59.84 58.93 58.60 59.59 60.05 59.96 59.55 59.65 59.46 59.21 59.15 59.27
34.35 32.79 29.93 26.37 33.59 33.69 29.37 34.20 35.64 36.94 39.12 39.02 35.33 40.52 44.23 44.64 46.23 47.73 48.83 50.04 50.47 50.81 51.60 52.60 55.62 57.35 59.83 60.59 61.45 60.70 60.94 60.44 59.30 58.91 59.29 59.38 59.71 59.27 59.16 59.61 59.12 58.45 55.09 47.51
32.92 32.85 32.06 27.36 30.64 22.04 35.32 40.59 40.72 39.56 40.24 41.18 41.56 41.86 42.81 43.89 46.75 51.11 52.58 50.78 51.31 51.75 52.08 53.84 56.17 56.93 58.09 60.95 61.22 61.35 61.72 60.88 59.99 59.46 59.77 60.00 59.56 59.08 59.34 55.87 45.46 42.31 40.63 38.29
37.81 33.67 28.78 25.67 26.18 31.93 34.94 38.90 39.65 39.23 39.45 44.43 43.45 45.78 47.82 49.31 50.15 50.68 52.28 54.11 54.53 54.82 55.43 55.69 56.56 57.43 57.49 59.09 60.97 60.90 60.60 60.84 60.15 59.43 59.40 59.44 59.47 49.00 44.44 40.88 38.74 37.67 36.07 35.08
36.66 37.29 31.20 28.85 23.55 21.47 34.07 40.84 44.16 42.95 34.13 44.61 44.50 43.53 44.62 46.81 42.67 47.00 50.59 54.03 53.27 54.48 55.63 56.35 57.21 57.86 57.17 55.77 59.48 59.36 58.54 56.06 49.58 48.29 47.29 44.98 43.58 40.77 37.87 36.77 35.29 34.69 33.93 32.69
30.62 31.45 27.81 28.39 26.33 31.35 39.30 41.43 43.71 30.84 34.02 43.40 44.82 44.59 44.99 44.05 46.81 49.51 50.63 51.51 52.24 51.88 52.14 54.57 53.06 52.52 51.22 50.02 48.27 45.75 44.11 42.30 41.75 41.16 40.01 38.51 37.17 35.80 36.34 34.96 33.39 32.87 31.42 30.56
30.15 29.12 28.06 29.83 26.66 24.08 42.88 41.97 35.98 41.12 43.61 44.22 44.85 45.51 45.53 46.83 49.08 48.68 50.70 47.85 47.20 46.79 46.34 48.82 48.17 46.71 47.30 46.83 43.25 39.96 38.18 39.28 38.98 38.60 36.74 36.11 35.67 34.99 34.06 32.49 31.88 31.32 30.40 29.23
30.20 34.68 32.11 33.62 33.37 41.98 44.11 43.63 45.81 44.98 43.34 44.25 44.34 45.73 46.35 46.50 47.94 47.78 47.65 44.02 42.31 42.33 42.34 42.32 40.82 39.94 40.41 41.31 40.55 37.29 37.33 37.63 36.93 35.84 36.31 34.71 34.39 33.97 33.62 32.08 31.38 30.60 30.55 29.61
37.40 39.58 35.47 35.66 39.16 40.66 42.69 44.79 44.96 44.69 43.78 44.49 45.46 46.30 46.62 46.27 47.91 48.00 45.12 42.45 40.30 40.21 39.22 39.47 38.62 37.53 37.13 38.16 37.84 37.06 36.58 36.17 34.78 33.00 32.42 32.10 31.07 30.50 30.93 31.94 32.30 31.48 30.56 29.54
36.86 38.95 37.28 37.44 40.62 42.06 43.43 44.27 44.78 44.78 44.84 45.28 46.50 47.24 47.89 48.50 46.49 44.81 40.76 38.65 37.66 37.30 37.49 38.07 37.38 36.99 36.73 37.14 36.57 36.50 35.69 34.50 31.92 30.61 29.68 28.37 27.67 26.79 25.83 26.10 26.18 26.04 27.35 27.48
38.73 37.38 35.55 34.41 40.61 40.17 40.99 45.04 45.94 45.05 44.92 46.54 45.79 47.08 44.94 44.13 41.23 38.03 35.21 35.37 35.55 34.97 35.95 37.00 37.48 36.90 36.65 36.98 36.20 36.44 36.37 34.68 32.47 30.45 28.99 27.73 26.85 25.62 24.45 23.28 22.59 25.98 25.60 25.59

GFSCGP_sfc_wetblb_108.txt.gz
Wetbulb
43.07 33.99 30.79 34.23 34.49 37.56 34.33 32.29 31.15 34.05 38.70 37.05 38.40 39.42 41.62 43.96 45.32 45.89 47.68 48.40 47.00 48.75 50.82 57.51 58.57 58.53 58.28 58.52 58.31 58.11 57.54 58.22 58.12 56.70 58.79 60.76 60.08 61.21 61.37 62.70 63.07 63.76 63.56 63.01
38.90 34.79 39.35 38.67 36.43 34.79 33.73 32.04 31.74 35.24 38.24 38.08 37.83 37.84 41.39 42.86 44.93 46.49 47.55 48.14 48.53 48.05 54.47 56.94 57.67 57.89 57.93 57.63 57.93 57.20 58.09 58.32 57.80 57.02 56.98 58.74 59.77 61.53 61.75 62.07 63.17 63.30 62.62 62.40
36.22 39.15 43.85 40.07 37.85 34.84 33.88 31.75 32.20 33.34 37.04 37.79 36.30 36.27 38.89 43.38 45.81 47.64 48.58 48.75 48.98 48.85 54.04 55.75 57.03 56.60 56.80 56.84 56.94 57.33 58.37 59.11 58.84 57.42 57.32 56.36 57.94 59.35 60.82 60.74 61.08 62.36 62.25 61.95
37.51 42.42 40.85 39.33 37.98 38.81 33.82 38.78 38.07 37.16 34.56 31.02 37.23 28.61 36.50 40.24 42.17 44.93 46.38 47.37 48.34 48.61 55.63 56.53 56.63 55.90 56.44 56.38 56.30 57.31 58.64 58.61 58.67 58.00 57.28 56.64 54.93 56.90 58.56 60.97 61.00 62.01 61.64 61.29
35.21 35.57 36.34 36.77 38.00 39.59 36.82 39.78 38.53 37.94 34.11 30.36 32.49 28.33 35.26 39.34 39.44 42.51 45.03 46.78 48.02 47.83 54.91 56.12 56.36 56.65 56.41 55.70 55.90 57.14 58.17 58.34 59.27 58.81 58.42 57.87 57.06 57.45 56.90 58.89 60.06 60.93 61.14 60.77
36.68 39.85 38.22 36.57 39.10 38.36 40.12 37.70 37.62 35.96 32.79 26.84 32.44 30.82 32.99 34.24 39.10 42.93 46.16 47.70 49.08 47.75 54.31 56.73 57.35 56.42 55.30 55.88 55.72 56.79 57.58 58.16 58.46 58.45 58.34 57.85 57.42 57.74 57.62 58.43 58.41 59.58 60.31 60.10
36.53 36.79 38.40 40.08 35.68 38.35 36.60 32.71 25.73 24.48 24.30 25.71 34.88 32.02 34.52 39.01 42.59 44.74 47.25 48.67 50.80 52.52 52.85 55.82 55.12 55.12 54.65 54.98 55.38 56.28 57.10 56.72 57.76 57.67 58.15 57.85 57.89 58.03 57.87 58.91 59.12 58.76 59.36 59.00
30.15 28.36 35.92 39.54 36.14 34.11 33.18 32.95 26.51 21.75 22.84 26.69 34.53 28.15 34.49 42.43 45.71 48.97 50.64 50.82 51.29 50.98 53.45 55.70 55.54 55.53 54.97 55.11 55.30 56.45 56.53 56.58 57.37 57.44 57.97 57.80 56.50 57.55 57.35 58.71 58.81 58.64 58.61 58.75
30.26 31.14 38.90 40.46 40.02 37.72 33.49 30.08 36.38 29.68 30.35 26.87 29.99 35.09 40.00 43.19 46.00 48.08 48.60 50.55 50.04 52.39 54.04 55.52 56.08 55.51 55.31 55.03 55.32 55.84 55.90 56.59 57.22 57.63 57.92 57.27 56.99 56.12 57.11 57.23 58.32 57.87 58.46 58.99
33.55 27.68 35.06 37.61 39.74 39.89 35.58 36.92 28.32 29.55 22.37 21.70 27.59 29.30 31.48 38.83 42.24 45.89 47.31 48.24 49.68 51.79 54.11 55.97 56.23 55.46 55.87 55.45 55.91 55.42 55.76 56.23 56.96 57.72 57.56 57.03 56.46 56.50 56.54 56.45 56.64 57.47 57.85 57.67
32.25 29.67 29.79 35.13 33.44 31.65 34.23 33.84 34.26 31.68 30.57 24.74 23.17 27.14 41.14 41.78 43.49 44.02 46.43 48.83 48.82 50.22 51.12 55.44 55.91 56.50 55.80 55.85 55.46 55.17 55.10 55.35 56.30 56.76 57.12 56.43 56.10 56.60 56.95 56.79 56.62 56.14 57.22 57.17
32.98 28.64 23.55 27.89 34.47 36.19 38.83 34.95 35.21 28.14 25.46 28.79 28.60 28.98 42.37 45.13 46.54 46.49 45.93 47.17 50.18 50.63 49.49 53.79 55.26 56.36 55.23 55.12 55.05 54.85 54.81 55.00 55.81 56.73 57.03 56.56 55.70 56.63 57.04 57.02 56.68 56.41 55.93 56.71
32.68 26.69 22.76 24.77 29.17 35.64 32.37 35.10 33.95 35.06 33.44 28.15 24.10 27.60 42.25 44.37 46.35 46.42 46.28 47.90 49.67 49.75 49.25 52.34 55.69 55.60 55.31 55.03 55.16 54.94 55.10 54.62 55.40 56.36 56.38 56.50 55.40 55.16 55.70 56.30 56.24 56.39 56.17 56.13
37.49 29.17 25.63 21.15 25.63 29.01 26.61 30.34 32.11 33.08 25.98 28.12 27.86 32.49 36.88 38.98 43.44 45.76 45.45 47.40 48.54 48.82 49.95 51.93 55.19 55.83 55.60 55.84 55.51 55.31 55.02 55.33 55.59 56.33 56.99 55.40 54.99 54.42 55.05 56.02 55.94 56.21 56.41 56.39
33.04 25.42 28.06 29.05 29.84 29.53 28.43 28.46 29.48 28.46 30.59 27.70 30.41 31.67 36.56 39.48 42.87 46.06 46.87 46.82 47.23 48.06 50.91 51.71 53.88 54.65 55.92 56.02 55.72 55.90 55.79 55.60 55.77 55.82 56.06 56.19 55.69 55.09 54.06 54.63 55.07 55.52 56.27 56.39
33.33 25.44 27.15 25.82 29.45 29.44 26.98 29.27 29.55 30.24 31.09 31.23 32.85 32.99 40.24 43.75 44.17 45.41 46.59 48.88 49.38 50.24 51.13 51.66 52.54 53.65 56.71 56.84 56.60 56.68 56.32 55.84 56.17 55.55 55.46 55.63 56.30 56.09 54.69 54.38 54.28 53.77 54.53 55.44
29.76 27.80 25.32 22.07 28.29 27.94 23.16 27.57 29.21 30.49 32.97 32.86 28.78 35.37 42.64 42.81 44.88 46.27 47.72 48.49 48.52 48.82 49.27 50.54 50.54 50.32 49.84 57.06 57.66 56.80 56.67 56.75 56.36 55.93 55.93 55.84 55.70 55.41 55.07 55.07 55.05 53.06 45.64 42.80
28.57 27.65 26.35 22.05 25.07 15.28 27.55 35.05 35.06 32.65 34.42 37.46 39.24 40.90 42.62 42.38 46.54 47.14 48.93 48.11 47.67 47.82 47.99 49.18 48.60 47.71 47.48 47.53 57.35 57.78 57.65 57.08 56.49 56.15 56.26 56.23 56.10 55.54 55.48 51.69 44.47 41.54 39.85 37.78
32.37 28.24 19.97 16.35 19.75 25.31 28.42 34.18 34.82 32.76 32.54 40.71 40.02 41.16 42.12 43.42 45.09 43.82 48.50 49.00 47.56 46.57 47.14 47.49 46.52 45.67 45.20 45.49 50.68 57.72 56.98 57.12 56.52 55.75 56.05 56.37 56.23 49.53 44.49 40.87 38.72 37.42 35.75 34.74
31.89 30.59 25.15 21.58 17.86 18.07 29.59 36.78 40.69 38.81 29.47 40.85 41.74 41.03 41.03 41.58 35.48 38.42 47.04 47.63 45.78 44.92 44.47 44.34 43.43 43.48 42.99 43.84 46.03 53.97 53.42 55.14 48.95 46.58 46.90 49.04 45.52 42.66 39.08 37.00 35.74 35.28 34.30 33.14
27.17 26.21 22.52 22.50 16.54 24.57 34.77 37.78 39.69 27.84 31.10 41.40 41.08 41.36 40.29 38.08 40.27 43.47 46.79 44.28 43.10 41.91 41.37 42.03 40.90 39.98 40.84 42.67 43.41 41.68 42.16 40.87 44.13 43.20 42.76 42.25 40.69 37.78 36.11 34.69 34.03 32.71 31.65 31.07
27.56 24.58 21.74 24.16 16.95 18.38 39.00 38.69 32.71 35.97 38.74 39.56 39.46 39.90 39.94 41.41 44.62 45.25 42.38 40.58 39.69 38.46 38.81 39.34 38.70 38.37 39.56 41.65 42.23 39.87 39.57 41.39 41.77 40.50 38.60 37.06 36.09 35.65 34.49 32.86 32.01 31.41 30.45 29.23
27.26 31.31 26.05 24.68 25.57 36.35 39.98 39.39 41.61 40.92 38.81 38.71 38.32 39.07 41.67 43.57 44.49 42.08 39.32 37.72 37.30 37.70 37.54 38.14 37.21 36.69 36.91 37.94 39.37 38.22 39.69 39.54 38.31 37.20 36.12 34.74 33.94 33.07 32.72 31.46 31.27 29.49 29.37 28.15
33.30 35.70 32.68 31.56 35.11 36.67 40.31 42.34 42.90 42.60 38.70 39.14 40.93 42.94 43.99 42.16 42.96 39.64 36.91 36.29 36.34 37.22 37.43 37.64 36.39 34.76 34.17 35.09 35.26 35.62 36.25 36.24 35.18 33.96 33.19 33.29 32.51 32.09 31.37 30.74 30.31 28.70 27.14 25.52
33.21 34.45 33.14 33.71 35.15 37.57 40.00 42.08 42.38 41.27 41.16 40.62 42.36 41.85 41.91 41.10 37.77 36.68 34.51 34.17 33.49 33.25 36.41 36.42 34.61 33.47 32.42 33.00 32.70 33.01 32.79 32.31 30.37 29.67 28.98 27.81 27.15 25.79 25.22 25.91 25.56 25.26 25.84 25.09
36.97 34.37 30.57 30.15 37.28 37.58 38.26 41.71 42.41 40.89 41.46 43.23 39.95 36.42 35.62 36.01 33.49 31.90 29.57 29.68 30.07 30.65 31.86 32.21 33.93 33.20 32.55 31.96 31.06 31.19 31.34 30.01 27.92 26.38 25.50 24.83 24.16 23.56 23.09 22.64 22.81 26.80 26.29 26.58

GFSCGP_sfc_wetblb_111.txt.gz
Wetbulb
41.93 33.37 29.00 33.25 36.96 37.71 33.89 32.19 30.96 31.71 36.42 33.84 34.51 35.01 37.81 40.37 40.86 41.50 42.49 44.43 45.80 46.77 49.70 49.94 56.92 57.38 57.79 58.85 58.92 58.78 58.60 58.20 58.92 59.06 59.68 59.45 59.29 60.95 61.18 62.30 61.99 61.84 62.46 61.66
36.53 33.50 36.75 37.44 35.67 33.65 32.30 31.00 30.67 33.04 35.71 34.77 33.68 34.73 38.65 39.10 39.85 42.01 43.12 45.05 46.50 47.72 47.49 54.44 55.42 57.07 57.67 58.22 58.43 58.11 58.63 58.10 57.58 58.14 58.94 60.16 60.09 60.93 61.42 62.08 63.00 62.76 62.68 61.74
32.88 35.86 42.19 40.04 36.86 33.68 32.83 30.90 30.34 31.18 34.15 35.14 33.42 34.05 37.09 39.92 41.19 44.06 45.21 46.30 47.28 47.57 46.51 52.88 55.74 56.02 57.17 57.17 57.37 57.79 57.78 58.16 56.84 56.48 56.56 57.64 59.57 60.43 60.20 60.88 61.47 62.54 62.84 62.09
35.69 39.01 38.55 38.25 37.28 37.06 32.37 36.01 35.20 33.39 31.14 28.58 35.81 27.95 36.68 37.33 38.66 40.75 42.73 44.40 45.24 45.55 49.39 54.14 56.20 55.50 55.74 57.07 57.46 57.29 57.78 57.30 56.82 56.70 55.85 57.24 58.20 58.22 59.67 60.22 61.46 62.05 62.65 62.47
33.31 34.90 36.67 35.82 36.67 39.10 35.88 39.57 37.02 36.40 32.55 28.66 31.19 26.34 34.23 37.00 37.80 39.58 41.48 43.25 44.06 46.32 50.85 53.84 56.03 56.43 56.57 56.59 56.58 56.94 57.46 57.55 58.06 57.26 56.44 55.38 54.07 56.42 58.80 60.44 60.17 61.30 61.67 62.14
35.11 38.68 38.31 37.35 38.85 38.98 39.32 35.63 35.27 34.11 31.22 24.91 30.95 28.97 31.96 32.23 36.90 39.40 42.82 45.18 49.04 49.18 48.34 51.99 56.20 56.74 56.20 55.31 55.45 56.42 56.58 57.65 58.57 58.31 56.18 55.60 54.46 54.87 55.51 57.70 58.97 60.16 61.04 61.24
35.73 36.27 37.48 39.69 34.96 37.35 35.01 31.10 23.49 22.29 22.84 24.43 32.29 29.34 32.99 36.98 40.32 42.12 45.58 47.71 49.49 50.52 51.32 50.08 54.11 55.14 55.28 54.49 55.05 56.12 56.66 56.74 57.89 58.06 57.36 56.42 56.51 57.44 56.08 55.90 57.13 58.15 59.84 60.00
29.53 27.20 35.29 38.35 35.80 33.82 32.39 31.27 24.44 19.48 20.28 24.30 32.16 26.22 31.40 40.52 42.73 46.67 48.03 48.58 49.70 50.38 50.83 53.23 54.69 55.26 54.73 55.06 54.96 55.86 56.28 57.02 57.39 57.55 57.56 57.93 57.70 57.84 58.03 57.89 57.95 58.82 58.71 59.89
29.75 30.28 37.97 38.18 38.47 37.39 33.05 28.56 33.78 27.02 27.27 25.30 27.34 31.30 36.63 40.47 42.93 45.30 46.16 48.11 47.97 48.80 49.50 52.14 55.27 55.33 55.08 54.88 54.94 55.38 55.64 56.77 57.09 57.24 56.91 57.55 57.70 57.61 57.86 58.36 59.29 59.51 60.04 59.58
33.87 26.48 33.67 36.01 38.38 37.71 35.59 37.02 26.73 27.54 21.66 20.48 24.22 26.18 28.82 35.98 39.94 43.37 43.52 46.10 47.35 47.52 48.16 50.82 55.40 55.00 55.06 55.51 55.42 55.66 55.88 56.19 55.90 57.21 57.36 56.84 57.13 56.93 56.91 57.85 57.67 58.18 58.88 58.59
31.81 29.06 28.78 33.53 31.10 29.48 31.63 31.04 31.51 31.34 27.46 22.75 20.85 23.99 37.37 39.49 42.08 41.67 43.25 45.56 46.43 47.06 49.33 50.38 53.00 55.43 55.22 55.26 55.60 55.42 55.12 55.38 55.40 56.92 57.40 55.80 56.81 56.48 56.20 56.04 57.43 57.61 57.82 58.19
33.39 27.93 22.86 25.94 32.58 34.24 34.42 33.33 33.31 27.97 26.27 28.11 26.61 25.21 38.36 39.20 43.79 44.19 45.03 45.90 47.14 48.76 49.61 50.18 50.83 55.00 54.39 54.84 55.40 55.04 54.69 55.16 55.64 56.33 57.07 56.44 56.38 56.81 56.32 55.78 55.72 56.97 56.78 57.13
32.76 27.13 20.95 23.03 28.43 32.51 31.06 32.04 32.19 33.09 32.90 26.66 25.60 25.95 39.51 40.02 40.60 45.00 45.38 47.14 48.23 48.95 48.90 49.30 50.84 54.95 55.10 55.20 55.64 55.24 54.23 54.53 54.99 55.81 56.68 56.47 56.55 56.55 56.30 55.92 55.94 55.82 56.55 56.55
37.14 27.85 24.37 19.59 23.55 27.05 24.59 27.58 29.78 31.27 23.35 25.96 25.89 27.48 34.04 36.41 37.42 43.55 45.01 46.73 47.27 48.07 48.58 51.25 52.26 54.77 55.32 55.38 55.30 55.41 55.16 54.24 54.85 55.04 55.84 55.63 55.82 56.28 56.12 55.80 55.66 54.66 55.44 55.84
32.04 24.42 25.92 26.91 28.36 27.91 26.82 26.62 27.31 26.04 27.50 23.18 26.02 27.67 32.34 36.20 38.13 41.51 46.06 46.63 46.40 48.17 50.51 50.84 50.58 54.08 55.42 55.64 55.64 55.77 55.20 54.14 54.49 54.61 54.97 54.83 55.81 55.52 55.52 55.11 55.30 55.90 55.24 55.14
32.87 25.65 26.61 24.81 27.62 28.06 25.62 27.99 28.09 27.95 28.42 27.91 28.51 27.72 35.57 39.66 41.82 43.65 45.56 46.54 46.17 47.23 48.69 49.80 49.58 50.18 50.79 52.78 56.03 55.91 55.48 54.63 54.49 54.43 55.24 54.91 55.22 53.97 54.00 54.21 54.49 55.36 55.52 54.60
28.19 26.72 24.63 20.20 26.35 26.17 21.69 25.87 27.48 28.28 30.17 29.36 24.88 30.81 37.69 40.98 42.68 44.64 45.73 46.80 47.26 47.60 47.81 48.46 47.54 47.58 48.13 48.27 50.61 56.48 56.22 56.12 54.79 54.49 54.39 55.71 54.62 53.47 52.83 53.64 53.36 53.20 48.02 45.50
27.58 26.85 24.77 20.75 24.10 13.23 25.89 32.10 32.06 30.38 32.34 34.83 32.66 35.73 41.03 41.52 45.17 46.67 47.67 46.73 46.49 46.33 46.37 46.98 45.76 45.76 45.97 46.33 48.40 54.22 57.12 56.04 55.68 55.06 54.89 54.99 54.43 53.75 53.45 51.90 46.38 42.43 41.47 39.52
31.26 27.08 18.91 14.47 18.29 22.87 26.04 30.03 31.50 32.26 31.80 37.84 35.57 39.86 41.05 42.50 45.01 43.66 47.74 48.02 46.02 44.93 44.65 44.69 44.27 43.88 43.95 44.26 46.27 53.91 56.68 56.50 55.93 55.54 55.30 55.28 54.73 50.90 46.26 42.18 39.47 38.49 37.02 35.59
30.81 30.55 24.32 20.11 15.93 10.89 25.52 35.60 38.34 37.31 27.48 39.50 39.67 39.30 40.20 41.20 37.61 39.35 45.78 44.65 43.24 42.17 41.64 41.68 41.79 41.83 42.40 43.36 47.48 48.87 52.71 54.21 53.27 54.66 54.52 53.54 48.59 44.96 40.87 38.64 37.05 36.13 35.07 33.34
25.99 27.12 22.68 20.79 13.88 22.32 31.97 35.25 39.67 23.80 29.99 39.06 40.46 39.94 39.48 37.75 39.78 43.29 43.35 41.27 40.57 39.53 39.15 40.05 39.58 38.25 39.69 42.37 44.09 45.25 44.90 42.56 42.07 43.45 45.64 45.12 44.46 42.08 38.97 36.57 35.73 34.57 33.14 32.41
26.07 24.48 23.25 23.85 16.13 16.11 36.97 37.20 32.06 36.68 40.34 40.69 41.12 40.03 39.12 42.38 45.08 42.27 39.43 38.21 37.74 37.13 37.64 38.53 38.11 36.96 37.90 40.04 41.01 41.14 41.95 42.21 40.63 38.96 38.21 37.74 37.40 37.01 35.88 34.13 33.24 32.59 31.59 29.88
24.73 29.56 27.11 25.72 23.68 34.43 38.17 39.00 42.17 42.92 38.87 38.47 37.66 38.65 41.69 42.28 42.17 40.32 37.95 37.29 36.72 37.41 37.47 37.71 36.38 35.66 35.55 36.50 38.06 36.65 38.10 40.55 37.45 35.51 34.24 33.55 33.43 33.16 33.56 32.71 31.16 30.13 29.75 28.64
31.88 34.79 31.83 30.42 33.79 35.52 38.69 40.80 42.59 43.15 40.90 39.46 40.90 42.74 42.35 40.92 41.07 37.78 36.67 35.72 34.69 35.25 36.29 35.92 34.70 33.53 32.76 33.42 33.57 34.58 35.47 35.82 34.56 33.15 32.29 31.60 30.47 29.75 29.92 29.96 30.24 28.89 27.09 26.08
31.85 34.53 31.57 33.90 34.38 36.31 38.44 39.42 39.95 40.79 41.95 39.97 38.63 37.28 37.86 37.35 35.68 34.94 32.69 31.89 32.08 32.40 34.25 34.83 32.99 31.97 31.28 31.65 31.31 31.79 31.86 31.05 28.56 27.62 27.20 26.35 25.87 25.44 25.16 25.61 25.10 24.57 25.30 25.27
35.95 32.72 29.56 28.80 35.35 35.44 36.46 39.90 41.26 39.88 38.29 39.32 37.61 34.35 32.49 33.61 32.06 30.83 28.96 29.30 29.69 29.65 31.40 32.71 32.35 31.15 30.52 30.20 29.70 29.54 29.84 28.85 27.14 25.63 24.82 24.62 24.72 24.94 24.58 24.02 23.89 27.38 26.94 27.40

GFSCGP_sfc_wetblb_114.txt.gz
Wetbulb
39.61 31.72 27.06 30.38 35.61 37.04 33.28 31.54 29.85 30.24 36.24 34.30 35.04 33.75 34.07 37.16 37.26 38.41 39.81 40.14 41.73 44.37 47.10 47.17 49.83 54.13 56.57 58.74 58.80 59.37 59.52 58.80 59.44 60.08 59.97 59.89 58.84 59.76 61.17 61.35 61.38 61.16 61.28 61.39
34.37 30.85 34.86 35.65 35.93 34.64 32.75 30.08 31.01 32.72 35.65 34.37 31.41 32.63 35.98 37.70 38.43 39.82 40.18 40.91 42.18 44.02 47.00 47.71 49.17 54.43 56.05 58.14 58.59 58.79 59.18 58.84 60.28 60.46 60.29 59.79 59.63 60.64 61.02 61.06 61.03 61.02 61.55 60.24
32.80 33.59 38.38 37.23 34.33 32.23 30.20 28.91 28.79 30.67 33.63 34.02 31.55 31.90 34.21 38.10 38.90 41.69 42.63 42.93 43.59 43.80 44.47 46.40 47.86 53.61 54.83 56.92 57.73 58.44 58.55 59.17 59.68 59.64 59.90 59.71 59.83 60.15 60.22 60.65 60.22 61.04 61.32 59.88
34.08 36.53 35.64 37.27 35.66 36.16 31.78 35.48 35.60 34.66 29.73 25.87 33.92 24.98 33.07 36.62 37.25 39.25 40.97 40.66 40.64 41.64 45.17 46.44 47.29 53.06 54.40 56.71 56.33 57.53 58.35 59.12 57.46 57.54 59.16 58.99 58.39 57.69 59.58 59.68 61.22 60.74 61.48 60.37
31.44 34.38 34.22 33.14 35.29 38.82 33.92 37.61 35.40 34.16 30.96 27.72 28.51 26.61 29.91 36.01 35.73 37.11 39.58 40.66 42.57 47.36 47.61 48.55 49.66 54.24 54.64 56.07 55.67 57.00 58.59 58.38 57.52 57.32 57.87 58.51 57.79 58.55 59.75 60.33 60.16 61.28 61.53 61.02
33.95 37.24 37.09 37.01 39.32 39.47 39.22 34.99 33.90 32.32 29.10 22.71 29.31 28.01 29.63 30.86 34.90 37.09 41.04 45.45 47.48 47.45 48.20 49.44 51.53 53.49 54.20 55.75 55.29 57.43 57.34 57.57 57.44 56.53 54.89 55.77 54.55 57.30 58.78 59.38 59.52 60.18 61.15 61.36
34.16 34.92 37.43 39.13 34.88 36.07 33.31 30.08 23.59 22.00 22.81 21.71 31.18 27.94 31.77 35.59 38.23 42.57 44.05 45.82 47.15 47.35 47.19 47.81 49.44 53.35 54.92 55.94 55.78 56.77 56.86 56.91 57.36 56.43 55.81 54.25 54.16 56.61 57.79 58.79 59.48 59.54 60.04 60.47
28.62 26.43 33.65 37.24 35.59 33.14 31.33 30.77 24.73 19.52 19.68 22.37 30.77 24.21 30.27 37.73 41.69 44.04 46.01 47.07 47.67 47.25 47.40 48.39 50.19 52.60 55.38 55.93 55.66 56.28 56.20 56.57 56.71 56.65 56.41 56.15 54.70 55.35 55.01 55.76 57.69 58.81 59.99 60.54
28.10 29.40 36.93 37.21 37.79 37.08 32.67 29.16 33.47 26.70 25.68 23.49 25.09 29.02 34.66 39.07 40.63 43.06 43.07 45.49 45.60 46.07 47.02 48.04 49.85 51.06 54.09 55.36 55.22 55.83 56.20 56.79 56.31 56.21 57.61 57.52 57.67 57.56 57.09 56.43 55.98 56.85 58.60 59.61
30.76 26.61 33.13 35.76 39.09 36.41 35.04 36.85 27.74 27.89 21.96 20.38 22.48 24.75 27.06 36.48 39.03 41.65 41.72 42.91 43.87 45.23 46.59 48.27 49.52 50.89 51.89 55.22 55.97 55.90 56.52 56.73 56.57 56.41 57.28 57.29 57.48 57.48 57.82 56.87 57.97 57.70 59.16 59.59
31.35 27.52 28.87 32.06 30.54 29.61 31.56 30.34 31.65 31.55 28.33 22.75 20.88 23.25 36.15 34.54 40.36 41.08 42.11 43.82 44.21 44.98 47.07 48.15 49.42 50.55 52.10 55.77 55.89 55.70 56.02 56.38 56.14 56.48 57.12 57.07 57.03 56.89 57.15 57.43 57.65 58.16 58.62 58.96
31.24 27.78 24.40 26.84 32.69 33.46 34.93 32.54 32.43 25.49 25.03 27.49 26.21 25.15 37.79 34.57 36.57 39.30 43.42 45.78 46.65 47.30 47.87 49.43 51.10 52.13 53.55 54.90 55.56 55.60 55.72 55.87 55.71 54.91 57.05 57.03 56.95 56.81 56.29 56.29 57.07 57.52 57.32 58.04
32.73 27.49 20.68 23.36 28.88 31.51 29.56 29.95 32.05 31.50 29.52 24.34 21.03 24.28 37.52 36.74 36.75 37.28 43.19 44.19 46.60 47.52 47.10 47.72 51.15 51.03 54.42 54.94 55.16 55.22 55.54 55.32 55.59 54.77 56.36 56.15 56.49 56.45 56.08 56.08 56.29 56.86 56.51 56.84
36.62 28.73 24.47 19.45 24.09 28.25 25.78 27.58 28.37 28.71 20.79 22.74 24.81 25.86 30.72 32.43 34.43 35.74 38.13 43.70 45.88 47.78 47.14 47.68 50.23 50.38 52.01 55.60 55.48 55.02 55.44 55.59 55.22 54.86 56.16 55.82 56.35 56.41 56.23 56.12 55.81 55.99 56.37 56.13
32.62 24.40 26.51 26.40 27.94 27.46 26.11 25.93 26.25 24.64 25.85 21.53 24.58 24.08 29.16 31.93 34.04 35.41 38.01 43.91 45.81 46.04 46.43 46.69 49.31 49.31 49.16 51.33 55.84 55.88 55.30 54.97 54.89 54.34 54.96 55.02 56.06 56.47 56.21 55.61 55.37 55.38 56.06 55.96
31.59 24.73 26.15 24.28 27.52 27.05 24.94 26.03 26.33 26.42 26.89 25.75 26.73 25.95 33.34 34.97 35.92 35.64 40.08 44.29 45.61 46.24 46.77 47.58 49.72 48.68 47.74 48.31 49.21 55.76 55.14 54.49 54.67 54.04 54.20 54.80 55.46 55.47 55.57 55.11 55.23 55.21 55.08 55.30
27.21 25.46 24.19 19.62 25.16 25.09 20.19 24.93 25.77 26.51 28.20 27.59 23.38 28.85 32.51 32.74 35.45 41.37 43.18 45.71 45.93 46.89 47.17 47.42 47.29 46.13 46.43 46.23 47.43 48.52 55.40 54.85 53.83 54.42 54.92 54.43 54.78 54.30 54.73 54.83 54.99 54.04 49.22 47.81
26.74 25.78 24.16 20.09 22.99 11.77 23.44 29.76 29.25 27.61 29.43 30.56 31.13 32.37 35.48 36.14 42.24 44.08 46.34 45.93 46.04 45.50 44.74 44.33 44.20 43.87 44.26 44.86 45.71 47.58 50.33 55.16 54.43 54.15 54.75 55.00 54.67 53.73 53.76 53.24 46.56 43.51 42.05 40.62
30.61 26.81 18.61 13.61 17.91 21.59 24.11 28.01 28.90 30.21 28.67 34.27 33.28 35.72 36.48 40.55 42.92 41.49 46.69 45.59 43.75 42.21 41.83 41.57 42.44 41.81 42.09 43.25 44.50 46.96 49.83 55.54 54.67 53.91 53.93 54.24 54.39 52.51 48.41 44.29 41.20 39.52 38.00 36.22
29.33 28.73 23.69 20.86 15.45 10.04 23.72 30.65 36.75 35.18 22.64 36.00 36.23 37.59 38.02 39.13 35.78 39.98 43.76 42.18 40.71 40.17 39.78 39.50 40.41 40.29 39.99 40.69 43.42 47.00 53.21 54.99 54.05 54.14 53.78 53.57 51.57 48.48 44.22 40.77 38.57 36.91 35.30 33.61
26.40 26.36 22.36 22.23 19.31 21.93 28.74 32.42 36.41 22.69 25.44 35.71 37.89 39.38 38.23 36.98 38.78 42.56 41.80 39.67 39.17 38.43 37.99 39.23 39.67 37.86 37.34 39.43 41.98 43.34 42.65 41.69 44.41 45.78 46.87 47.41 46.84 43.44 40.46 37.78 36.56 34.84 33.26 32.30
25.20 23.40 22.63 23.90 19.01 13.88 35.41 35.31 28.52 36.16 39.72 39.77 40.39 41.12 39.65 40.79 43.62 40.87 38.86 37.87 36.76 37.09 37.49 37.61 36.86 35.86 35.40 36.68 39.18 38.90 38.57 38.97 39.56 39.56 38.54 37.75 38.20 38.09 36.82 34.94 33.88 33.20 31.98 30.49
23.57 28.48 26.11 26.56 23.89 32.96 36.03 37.74 40.25 40.99 39.51 39.56 37.71 38.65 41.68 40.66 40.65 38.03 36.95 36.30 35.72 35.56 36.31 36.16 34.98 34.11 33.56 33.88 35.21 34.84 36.19 36.97 35.47 35.03 33.95 34.18 34.18 33.76 33.46 32.29 31.42 30.24 30.14 29.17
31.04 34.18 30.32 30.47 33.62 34.25 35.71 38.94 41.28 40.27 39.12 41.63 41.29 41.60 41.65 39.51 38.89 36.27 34.20 33.19 32.96 33.67 34.76 34.74 33.42 32.06 31.32 31.81 31.99 32.33 34.16 34.66 32.50 30.88 30.09 30.70 30.88 30.01 30.13 30.73 30.27 29.20 28.99 28.26
32.07 34.32 30.54 31.47 34.50 35.88 38.24 38.93 38.39 39.72 40.77 35.71 35.44 34.86 35.90 35.30 33.73 32.46 30.93 30.77 30.95 31.45 33.05 33.45 31.83 30.93 30.18 30.48 29.84 30.42 30.58 30.15 28.11 27.41 27.39 27.13 26.75 26.12 25.76 25.93 25.82 25.86 26.76 27.11
33.49 32.18 29.87 28.56 34.89 34.83 36.76 39.61 38.85 36.09 35.43 36.74 34.02 31.70 32.56 33.05 31.30 30.37 28.66 28.90 28.93 29.08 30.36 30.32 30.16 29.53 28.70 28.73 27.96 28.24 29.16 28.76 27.51 26.77 26.50 26.15 25.66 25.52 25.63 25.35 25.49 29.08 28.55 28.67

GFSCGP_sfc_wetblb_117.txt.gz
Wetbulb
40.33 35.98 33.20 35.74 37.74 37.69 37.33 36.00 35.43 36.94 40.24 39.00 39.24 39.05 40.32 41.46 40.80 41.75 43.58 45.39 46.64 48.56 51.09 51.96 52.93 53.74 54.94 59.60 60.65 62.09 62.77 63.12 62.92 61.42 60.40 60.15 59.30 59.20 60.35 61.42 62.18 63.01 62.89 62.82
37.62 34.39 39.05 37.97 37.30 36.29 36.08 34.95 34.88 36.79 38.79 37.49 37.05 37.48 40.31 41.12 42.25 43.59 44.64 45.67 47.05 48.77 49.60 52.07 53.91 53.64 56.23 59.32 61.28 61.97 62.47 61.71 63.07 62.83 62.11 62.20 60.83 61.20 60.76 62.34 62.76 62.69 62.68 61.59
34.45 36.52 39.19 37.43 35.62 33.67 34.28 33.42 34.03 33.79 36.39 38.06 36.49 37.01 39.13 41.42 41.90 43.99 45.62 46.99 46.87 46.98 51.53 53.14 53.96 55.10 56.52 58.66 60.58 61.23 62.15 61.00 63.05 63.48 62.66 62.70 61.65 61.47 61.17 61.48 61.37 61.58 61.16 61.60
35.56 39.20 36.84 36.63 35.61 36.30 32.09 36.41 35.41 34.07 34.07 31.43 38.39 30.62 36.85 40.11 41.12 42.60 44.16 44.94 48.19 51.99 52.86 53.03 53.21 54.04 56.77 57.80 61.25 61.84 61.47 61.09 61.68 62.74 62.04 61.18 59.71 58.35 60.16 61.30 60.99 61.33 60.44 59.69
33.38 35.78 34.25 33.85 35.32 37.87 35.01 39.18 36.44 36.65 34.90 33.59 34.35 31.66 35.00 38.58 38.10 40.74 43.71 47.97 50.91 52.25 52.00 51.83 52.90 53.99 57.02 58.58 60.21 61.57 61.16 60.26 59.87 60.72 61.42 61.46 59.50 59.80 62.46 62.13 60.64 61.67 61.27 59.34
35.00 39.68 38.86 37.01 38.44 39.49 41.28 38.26 37.13 35.69 34.54 27.65 32.89 32.75 33.11 36.12 38.66 40.51 46.68 49.78 50.94 51.49 52.24 52.41 53.76 54.72 55.90 59.15 59.61 60.12 60.10 58.90 58.60 59.64 60.39 60.64 59.60 59.20 60.35 60.97 60.07 61.22 60.96 60.02
34.30 33.82 38.62 40.11 36.61 38.66 38.39 34.52 27.07 24.98 25.49 25.67 33.38 31.44 34.30 39.01 42.11 45.62 46.42 48.16 49.94 50.53 50.45 51.08 52.07 53.05 54.32 57.23 56.89 58.09 58.55 57.68 58.41 58.81 59.51 59.71 60.26 61.31 60.92 60.54 60.95 59.66 60.58 60.81
29.09 28.10 35.23 39.18 37.61 35.35 35.42 34.71 28.36 22.08 23.76 26.90 32.47 29.15 34.71 42.81 45.68 46.32 46.90 47.94 48.56 49.41 50.02 50.71 52.05 52.98 53.84 54.92 57.65 56.94 57.11 57.30 57.79 58.77 59.30 60.71 61.51 61.03 61.31 61.22 61.38 60.81 60.28 60.52
25.85 29.26 37.94 38.27 39.43 38.73 33.53 30.62 37.17 30.57 30.12 27.86 30.87 33.28 39.55 42.63 42.87 43.45 44.42 46.70 47.37 48.59 49.54 50.72 52.43 53.29 54.88 54.93 55.89 56.44 56.85 57.52 57.98 58.27 59.63 60.09 59.97 58.95 58.69 59.06 60.01 61.36 61.23 61.65
30.85 24.65 34.17 35.64 39.38 38.50 36.64 38.36 30.05 31.36 23.43 21.92 27.44 29.55 31.70 35.41 37.40 39.62 41.34 44.49 47.85 49.71 49.92 51.04 52.78 53.95 54.70 57.03 57.01 57.98 57.17 57.18 57.76 58.63 59.97 60.21 60.32 59.97 59.36 59.53 59.02 59.67 59.98 60.26
32.59 29.15 29.52 34.19 31.08 30.29 33.37 32.46 33.07 33.38 31.07 25.62 24.24 28.94 37.99 36.90 38.52 37.92 40.16 42.80 47.10 49.32 49.73 50.07 51.76 53.62 53.54 55.86 58.20 57.25 56.80 57.17 57.22 58.85 59.89 59.93 58.92 59.04 58.97 58.62 59.19 60.23 60.53 60.94
33.15 29.57 24.77 27.93 34.98 36.69 36.13 33.60 33.38 28.79 26.84 29.96 29.10 29.58 41.16 38.76 38.61 38.96 39.42 40.89 46.03 49.65 50.06 49.94 51.47 52.50 52.55 51.01 56.09 56.67 56.72 56.57 57.10 58.81 59.10 59.20 58.88 58.27 57.83 58.04 58.94 60.00 59.22 60.07
34.04 27.55 21.82 25.08 31.96 33.88 30.27 30.76 34.10 33.13 31.35 27.46 25.81 29.06 39.99 38.97 37.53 38.77 38.59 40.03 42.51 49.00 48.88 49.12 49.84 49.72 50.81 50.65 50.53 56.16 56.24 56.27 56.48 57.56 58.51 58.25 58.51 57.40 57.42 58.11 58.08 58.90 58.70 58.18
36.51 29.74 25.63 20.68 24.03 29.27 26.76 29.48 30.76 30.91 25.77 26.07 28.24 30.34 33.87 35.04 35.32 36.55 38.17 39.53 41.72 48.59 48.69 48.90 49.29 49.12 50.13 50.66 49.88 52.03 55.95 56.24 56.30 56.92 57.84 57.81 57.84 57.24 57.29 57.44 57.37 58.34 57.92 56.84
33.85 25.55 27.69 28.49 29.57 29.54 28.63 28.32 28.96 27.72 28.79 24.79 28.53 28.17 32.15 34.52 35.63 36.84 38.58 39.35 40.40 46.55 48.30 48.82 49.24 49.81 49.66 49.08 48.86 49.16 54.91 56.12 56.20 56.10 57.17 57.51 58.02 57.62 57.31 56.90 57.03 57.00 57.06 57.09
32.60 25.26 27.85 25.42 28.71 28.59 26.34 29.12 29.13 29.00 29.47 29.11 29.51 28.69 36.26 37.23 37.67 37.47 38.64 40.29 44.57 47.20 48.84 49.36 49.60 48.92 46.74 46.54 46.80 47.21 49.07 55.69 55.98 55.86 56.74 57.57 57.33 56.86 56.80 56.24 56.22 56.14 56.08 56.03
29.41 27.19 24.50 20.09 26.66 26.56 21.74 27.04 28.38 29.47 31.25 30.45 26.13 31.40 35.76 35.06 36.31 37.74 40.45 44.36 46.73 47.22 46.88 45.98 45.75 45.74 44.77 44.29 44.93 45.97 47.47 50.69 55.01 55.09 56.50 56.28 56.49 56.03 55.95 56.06 55.75 55.10 51.75 49.33
28.85 27.44 26.44 21.42 23.57 13.53 26.87 32.38 31.68 29.65 31.32 32.88 32.54 34.31 36.11 36.96 38.96 40.82 47.40 46.78 46.03 44.81 43.37 43.34 42.66 43.21 43.81 43.75 43.94 44.74 46.60 49.43 54.73 54.86 55.32 55.65 55.88 55.45 55.67 55.02 49.52 46.24 45.17 43.69
31.75 29.00 23.43 19.47 19.36 23.83 26.73 29.93 29.56 28.35 29.21 35.99 35.06 37.18 38.35 40.82 40.96 42.49 46.46 45.21 43.25 42.07 41.36 41.22 41.56 42.30 41.94 42.23 41.62 43.32 46.46 50.63 54.29 54.42 54.52 54.71 55.69 54.32 52.23 47.16 43.53 41.15 39.41 37.49
29.52 30.72 25.47 21.83 16.44 13.82 26.03 34.11 38.07 36.34 24.55 36.65 36.16 35.60 38.77 41.38 35.59 39.90 43.57 41.34 40.92 40.61 39.92 39.84 40.74 40.76 39.56 38.93 40.26 42.52 42.75 45.83 53.69 53.99 54.38 55.10 55.03 51.71 47.39 42.67 39.99 38.30 36.28 34.13
26.79 26.46 22.66 22.61 20.66 24.32 31.47 35.14 37.62 22.90 27.32 38.39 37.57 36.15 39.90 38.64 41.44 42.15 41.03 39.77 39.59 39.20 38.80 38.91 38.74 36.77 36.16 36.71 38.11 38.61 38.59 37.19 39.33 46.25 52.50 51.85 50.68 46.85 42.93 39.38 37.34 35.19 33.69 32.66
25.50 24.18 24.78 24.92 21.70 18.49 36.60 36.15 29.98 35.67 38.33 37.56 39.93 39.52 39.04 42.68 41.61 39.75 39.14 37.71 36.59 36.03 37.01 36.88 35.94 34.94 34.58 34.76 35.18 35.13 35.26 36.67 37.67 38.63 40.92 40.58 40.51 39.67 38.30 36.39 34.95 33.93 32.70 31.25
23.93 28.01 25.85 28.05 26.25 34.17 37.22 36.68 40.49 41.59 38.35 38.54 40.35 42.06 43.00 41.46 39.04 37.57 36.03 35.04 34.58 34.72 35.44 35.40 34.01 33.05 32.77 32.50 32.47 31.47 32.87 34.08 34.18 34.64 34.49 34.98 35.08 34.88 34.89 33.84 32.84 31.89 31.90 30.60
30.90 33.99 30.38 30.23 34.11 35.92 36.51 39.42 40.77 41.03 39.53 40.26 38.21 38.11 38.94 36.60 36.18 34.97 34.54 33.16 32.53 32.85 33.49 33.41 32.27 30.73 29.97 30.53 30.37 30.61 31.03 31.37 31.10 30.18 30.92 31.87 32.17 32.01 32.34 32.27 31.88 31.19 30.10 29.17
31.78 33.47 31.05 31.04 33.70 34.27 37.17 36.63 37.98 37.33 37.74 35.72 34.88 34.92 34.48 34.95 32.56 32.19 30.83 30.56 30.54 30.46 31.00 31.44 30.29 28.92 28.39 28.83 28.23 29.49 30.08 30.28 29.57 28.73 29.04 29.10 28.91 28.31 27.80 28.26 28.27 28.44 29.67 28.95
32.93 30.72 28.23 27.90 31.67 32.28 32.65 32.83 35.49 34.73 34.39 34.21 34.30 33.23 31.87 31.80 30.17 30.05 28.03 28.36 28.20 27.83 28.18 28.38 28.72 27.35 26.88 26.96 26.89 27.43 28.53 29.22 28.37 27.16 26.65 26.91 27.22 27.91 27.64 27.11 27.12 29.87 28.90 28.60

GFSCGP_sfc_wetblb_120.txt.gz
Wetbulb
43.57 38.84 37.15 39.87 41.50 40.93 39.85 38.95 38.52 41.80 44.34 43.35 43.35 44.26 45.81 47.65 47.40 46.02 46.43 48.81 50.07 51.40 53.15 54.43 58.38 60.53 61.57 62.50 62.39 63.14 63.42 65.08 66.51 66.02 65.55 63.68 62.38 62.17 62.81 64.25 65.19 64.22 65.58 64.74
41.45 36.89 40.28 41.44 41.26 39.74 39.04 37.26 37.46 40.28 42.76 41.75 41.92 41.79 44.67 45.38 46.12 47.46 47.97 48.96 50.31 50.73 52.38 56.15 58.49 59.96 60.92 62.57 63.21 63.81 64.38 65.61 66.34 65.03 64.85 64.48 63.70 63.56 63.59 62.87 64.20 63.52 64.13 64.87
38.09 40.25 43.00 41.57 39.98 38.01 38.60 37.27 37.23 36.59 39.68 40.48 39.79 38.87 41.74 45.37 46.99 47.79 49.00 49.74 49.79 51.83 54.00 56.07 57.77 59.19 60.56 61.80 63.35 63.60 64.62 65.28 65.41 66.14 64.26 65.06 64.18 63.92 61.61 62.11 62.10 63.09 65.02 65.42
39.22 42.10 40.34 39.19 38.14 39.81 35.81 40.83 38.83 36.75 35.54 33.19 41.18 33.70 40.49 43.34 44.04 46.19 47.15 48.24 52.04 54.21 55.50 56.25 57.09 58.16 59.29 62.01 63.95 64.18 64.57 64.52 62.96 64.53 63.44 64.31 63.47 62.56 63.55 63.46 63.79 64.41 65.09 64.51
37.10 38.01 37.85 36.57 38.38 39.50 37.55 40.61 38.46 37.60 37.17 36.73 37.89 35.32 39.42 42.28 42.09 43.77 46.99 50.82 53.05 54.74 55.05 54.73 55.88 57.60 58.86 61.32 63.30 64.17 64.15 62.38 62.52 63.44 65.41 65.10 64.92 64.68 64.61 62.41 63.09 63.88 62.15 62.27
39.94 43.75 39.79 39.07 39.88 40.02 41.14 38.78 39.13 39.07 37.60 31.47 36.85 36.42 37.38 39.96 41.90 43.47 49.15 51.03 52.27 52.63 53.70 54.78 56.33 57.74 58.37 60.13 61.74 61.89 61.72 61.48 61.82 62.76 64.79 64.93 65.16 63.93 63.56 62.70 63.26 63.31 60.50 60.12
38.33 39.66 41.45 41.40 37.39 40.59 38.53 35.48 29.32 27.04 28.48 28.80 37.81 35.20 37.70 42.40 45.19 47.67 48.39 49.74 51.01 52.63 53.53 54.40 55.24 56.45 57.80 59.15 59.89 60.44 59.15 59.64 60.17 60.81 62.83 63.96 63.84 63.72 62.72 62.98 62.84 62.52 60.73 58.86
31.14 31.08 37.87 39.19 37.01 35.68 36.17 35.87 28.92 22.10 26.38 30.92 36.97 32.17 37.84 46.66 48.07 48.48 48.53 48.86 50.46 51.95 53.22 53.71 55.33 56.91 57.91 59.10 61.25 60.84 60.41 58.76 59.61 59.78 60.85 62.61 63.44 62.44 62.32 63.20 62.91 62.30 61.31 60.69
30.18 31.10 40.46 40.57 40.97 38.49 35.13 32.71 39.63 32.26 32.89 29.53 34.35 38.38 43.37 45.34 44.16 45.10 46.01 47.43 49.62 51.33 52.30 53.35 54.35 56.42 57.31 57.82 59.17 61.36 60.57 60.28 59.32 59.08 60.10 61.11 62.27 63.86 63.15 63.70 63.78 64.04 62.41 61.49
33.81 27.88 36.65 37.72 40.82 41.73 37.52 39.76 31.34 32.77 24.22 24.16 31.55 33.86 35.58 39.95 39.83 40.51 40.82 42.05 45.48 49.27 51.10 52.66 53.82 55.25 56.13 56.84 57.26 56.54 61.31 59.63 59.36 58.97 59.73 62.01 62.72 63.84 63.88 63.22 63.76 63.77 62.32 62.15
35.47 32.73 32.74 37.36 33.02 31.49 34.80 34.42 34.39 34.87 33.11 27.05 27.10 32.15 43.40 41.66 41.35 39.89 41.17 41.89 43.72 46.79 49.67 52.08 53.69 54.39 55.33 56.68 56.84 55.47 56.69 58.42 58.31 58.95 59.08 61.63 61.82 62.49 63.18 60.95 61.23 61.77 61.15 60.69
35.83 32.84 28.16 32.02 37.76 38.64 36.51 34.05 34.56 30.62 29.44 33.69 33.02 32.56 44.30 44.57 42.98 41.46 41.74 42.42 43.85 45.22 50.28 51.91 52.94 54.14 54.70 55.23 55.64 55.04 52.07 57.53 58.12 58.84 59.10 60.53 61.90 62.14 62.25 61.19 61.54 61.60 60.59 62.57
35.34 30.48 24.95 28.66 34.10 36.06 31.16 33.89 34.16 32.79 33.63 31.24 29.12 32.91 45.30 45.12 43.20 42.98 42.09 42.69 43.67 44.46 49.46 51.24 52.69 53.32 53.57 53.98 54.28 54.00 51.60 51.37 57.83 58.47 58.99 59.48 61.09 60.80 60.56 60.46 61.13 60.24 59.80 60.11
36.93 31.61 27.71 23.91 25.84 30.83 28.41 29.44 32.67 31.89 27.86 29.83 32.84 35.10 38.59 39.70 39.99 40.91 41.79 42.69 43.74 44.54 47.42 50.49 52.31 53.61 53.74 53.29 52.82 52.65 49.29 49.85 56.79 57.65 58.20 58.86 59.86 59.75 59.98 61.22 59.92 59.51 59.34 59.42
35.36 27.68 30.24 30.69 31.91 31.86 29.95 30.10 31.28 29.55 31.26 28.21 32.40 33.16 36.29 38.80 39.71 40.46 41.44 42.30 43.04 44.47 46.49 50.35 52.22 53.58 53.36 51.79 51.16 49.71 48.20 49.27 52.89 56.46 57.43 58.19 59.19 60.47 60.75 60.96 59.16 59.33 59.43 58.63
35.54 27.96 30.26 27.56 31.14 31.41 29.16 31.33 32.04 32.51 32.94 33.12 33.63 33.26 39.80 40.59 40.49 40.11 41.10 41.86 43.01 45.87 49.06 51.09 51.36 51.12 49.97 49.24 47.46 45.98 47.04 47.65 48.68 55.94 56.38 58.47 59.07 59.31 59.93 60.13 58.80 58.38 57.81 57.48
32.33 29.85 27.22 23.15 29.25 28.99 24.43 29.76 31.11 32.45 34.35 33.87 30.25 35.65 39.16 38.17 38.94 40.52 41.57 42.67 45.58 47.99 48.91 48.98 48.88 48.51 48.63 48.85 46.53 44.31 45.31 47.04 47.89 53.06 56.61 57.95 58.87 58.71 59.54 58.96 58.25 56.91 55.06 52.33
31.66 30.08 28.56 23.70 26.41 16.71 29.98 35.60 34.46 32.25 33.83 35.64 35.72 36.90 38.34 39.50 41.92 44.33 45.78 45.17 46.87 47.05 46.84 47.19 47.16 46.73 47.31 47.38 47.25 44.13 44.30 45.84 47.83 49.94 55.98 57.28 57.89 57.66 58.81 57.77 56.21 51.18 48.90 46.17
35.34 31.16 25.67 22.09 22.90 27.22 30.02 32.98 32.45 31.49 31.51 36.69 36.35 38.69 40.24 42.35 44.10 45.03 46.97 46.97 46.01 45.56 45.58 45.89 45.96 45.00 45.02 43.71 42.57 42.34 43.84 44.06 45.04 49.15 55.11 56.14 56.99 56.55 56.96 52.75 49.28 45.38 41.90 40.18
32.48 33.22 28.06 25.50 19.21 16.49 28.57 34.75 38.35 37.97 28.21 39.59 39.41 38.57 36.69 38.12 37.06 41.68 43.60 43.80 43.16 42.84 42.97 42.62 42.88 42.74 41.17 39.16 39.42 40.76 39.77 39.35 38.90 41.01 50.07 55.56 55.78 55.44 51.13 46.22 42.46 40.98 38.34 35.95
26.76 29.39 25.19 24.03 23.37 26.92 34.50 37.43 39.52 25.51 30.16 40.12 38.56 35.95 33.23 36.86 38.76 40.35 40.85 39.63 39.51 39.77 40.20 40.05 40.18 38.26 36.64 36.19 36.51 36.73 36.57 36.11 37.39 39.19 41.05 54.06 54.14 50.17 45.46 41.55 39.11 37.20 34.90 33.82
26.43 25.88 26.59 27.26 24.26 20.35 38.01 36.79 30.96 37.30 41.47 38.68 37.72 38.70 40.20 41.65 40.56 39.50 39.36 38.15 37.43 37.40 37.62 37.40 36.37 35.18 34.74 33.79 33.91 33.28 32.29 34.04 35.97 37.57 37.41 45.37 45.79 42.71 40.38 37.77 36.36 35.36 33.83 31.85
25.87 28.97 26.67 29.91 29.54 37.99 38.81 37.76 41.38 41.56 39.98 39.11 38.90 39.35 39.60 38.56 38.08 37.71 36.37 35.37 35.62 35.28 35.25 35.70 34.36 33.21 32.53 31.75 31.29 30.64 31.60 32.41 34.99 34.72 34.55 33.74 37.71 38.37 37.72 35.81 34.36 33.62 33.28 31.60
31.11 34.17 31.23 30.40 32.58 32.82 34.62 35.43 37.84 39.22 37.01 36.61 37.25 37.88 37.90 35.67 35.56 34.70 33.35 32.68 32.70 33.25 33.44 34.30 33.86 32.18 29.84 29.47 29.41 29.79 31.22 31.67 32.30 32.25 31.96 33.04 31.95 32.31 33.29 33.61 33.58 32.98 31.96 30.64
32.31 34.35 30.62 31.32 32.22 33.42 34.90 34.74 33.35 35.30 35.70 35.53 36.85 36.85 35.70 35.71 34.19 32.89 30.82 30.04 30.85 31.50 31.89 32.70 31.58 31.28 29.32 27.98 27.70 29.05 30.12 31.32 29.76 30.78 31.23 31.37 31.62 29.55 29.30 30.73 30.60 29.77 30.35 29.67
33.65 30.23 28.44 27.77 31.24 31.41 32.87 33.23 35.38 34.56 34.61 35.11 35.84 35.43 35.06 34.61 33.07 32.85 30.94 30.21 29.47 28.98 29.57 29.45 29.53 29.70 29.67 26.50 25.93 27.34 29.32 30.16 29.19 28.44 28.65 28.91 29.76 29.51 28.54 27.45 26.84 29.87 29.19 29.22

GFSCGP_sfc_wetblb_123.txt.gz
Wetbulb
46.58 40.58 38.29 41.42 43.33 42.46 41.13 39.94 38.90 42.33 44.93 43.72 44.34 45.19 47.35 50.06 50.95 50.37 50.88 51.16 50.77 51.21 53.31 55.00 56.21 58.88 60.44 62.22 63.33 63.33 63.60 65.50 64.02 65.06 66.84 68.79 68.61 66.87 65.59 66.91 70.14 69.18 68.07 68.65
42.39 40.09 43.35 43.69 43.24 42.27 41.64 39.45 39.15 41.60 42.95 41.87 42.06 42.48 45.46 47.27 48.96 49.60 49.80 49.67 49.81 51.48 53.17 54.27 57.05 59.22 60.87 61.73 63.29 64.88 64.70 65.02 65.13 65.25 66.92 68.40 67.98 63.77 63.92 65.37 67.64 68.31 67.84 66.61
39.70 41.77 44.71 42.89 42.01 39.62 39.88 38.98 39.11 38.30 40.79 42.07 41.49 39.87 41.78 44.63 46.53 48.19 49.22 49.75 50.79 51.57 52.42 54.99 56.86 58.67 60.56 61.37 63.62 64.75 64.74 65.49 66.17 66.81 67.21 65.40 64.32 63.38 62.48 63.80 64.33 66.45 65.98 66.77
41.26 43.91 42.28 41.61 39.93 41.61 37.90 42.40 40.40 38.88 37.78 33.87 41.67 32.78 39.95 42.70 44.53 46.45 48.14 49.36 50.75 52.71 55.11 55.77 55.85 57.24 59.54 61.39 64.00 65.39 65.56 65.64 66.35 67.17 66.34 63.87 62.22 61.35 61.87 62.78 63.76 65.52 65.69 65.69
38.94 41.45 40.66 39.46 40.50 42.12 39.35 43.06 40.71 39.71 37.43 37.53 37.43 35.30 39.23 43.62 42.82 44.50 47.08 49.18 52.25 54.62 54.70 54.65 55.49 57.07 58.75 61.21 62.03 63.71 65.52 65.51 65.61 65.65 65.93 63.81 62.88 64.59 64.95 65.59 64.15 64.28 65.03 65.76
39.85 44.42 43.74 42.90 42.65 42.68 43.62 41.08 40.00 39.12 36.70 29.54 35.99 36.24 37.54 40.50 43.40 45.31 47.53 51.14 53.21 53.79 54.00 54.76 56.18 57.55 58.48 61.43 62.53 62.42 63.01 62.95 62.82 63.35 64.05 63.64 63.31 64.85 64.64 64.15 63.50 64.30 65.14 65.02
37.55 39.35 43.32 44.54 40.79 42.90 40.66 36.32 28.11 26.10 26.88 28.45 38.11 35.66 38.05 42.90 45.18 46.60 48.23 51.20 52.00 53.47 53.84 54.20 54.92 56.51 58.13 59.47 61.01 62.38 62.00 61.56 62.10 62.51 63.47 63.66 64.41 64.06 65.10 63.35 63.26 63.75 61.80 61.49
31.47 30.18 39.52 43.58 40.81 38.74 38.91 37.26 28.72 22.37 26.05 31.12 37.96 32.73 38.54 44.18 49.08 50.72 51.47 51.48 52.21 52.78 53.80 53.98 54.55 56.06 57.25 58.41 59.12 60.79 61.86 61.29 61.03 62.41 62.17 62.43 64.11 64.15 65.19 64.73 64.04 64.23 62.77 61.42
30.37 31.19 39.48 41.54 42.97 42.40 38.18 34.58 39.40 32.02 33.87 29.90 34.94 38.95 44.00 47.12 47.16 48.00 48.95 49.78 50.24 51.29 52.38 52.97 54.02 55.30 56.78 56.67 57.86 59.03 61.06 61.73 60.76 60.53 62.05 61.17 62.06 63.84 64.90 64.76 63.86 64.53 64.08 62.82
34.35 28.28 36.93 38.36 42.46 41.54 38.48 41.54 31.43 31.85 24.17 23.43 31.96 33.64 36.25 41.96 43.05 45.71 45.31 45.12 46.25 48.07 49.39 51.34 53.46 54.51 55.32 56.78 57.77 58.64 59.34 61.19 61.56 61.04 61.19 60.52 60.89 62.93 63.92 64.50 64.42 64.48 64.81 63.16
36.16 32.65 31.84 36.64 35.06 35.00 34.30 34.45 36.28 35.57 32.66 27.50 26.54 31.15 42.27 43.45 42.84 42.50 43.02 43.61 44.95 45.32 46.40 49.68 52.42 54.44 55.59 56.72 57.44 57.43 57.87 57.78 60.04 60.30 60.49 60.44 60.61 62.19 63.22 63.20 63.81 64.32 64.36 63.53
36.30 32.41 27.78 31.10 37.84 40.24 37.72 35.31 33.68 31.43 29.58 33.04 32.83 32.56 43.88 45.22 44.58 44.92 43.95 44.02 44.83 45.75 46.22 48.01 52.10 53.65 54.69 55.52 56.06 56.10 55.86 56.45 56.79 59.41 59.52 60.17 59.83 61.71 61.29 62.26 63.09 64.35 63.30 63.85
35.78 30.95 24.68 27.72 34.02 38.54 33.69 34.08 34.30 33.74 32.79 28.56 28.91 31.68 44.31 44.60 45.02 45.00 42.97 43.51 44.40 45.58 46.51 46.72 50.40 52.19 54.00 54.87 55.16 54.98 55.24 55.29 56.33 57.12 58.83 59.31 59.19 60.59 61.03 60.89 62.63 61.75 61.77 62.45
37.40 31.87 28.60 24.06 27.91 30.25 29.43 31.14 33.55 31.94 27.63 30.04 31.30 33.32 38.09 39.78 43.00 41.89 42.42 43.66 44.43 44.98 46.03 46.95 48.65 51.97 54.03 55.47 54.56 54.02 53.52 54.74 54.26 52.77 57.74 58.47 59.28 60.03 60.55 61.57 61.02 60.73 61.67 61.65
36.17 27.80 30.79 31.75 33.09 32.80 32.20 31.58 32.42 30.05 31.14 28.20 33.30 34.06 36.80 41.04 41.03 42.10 42.73 43.07 43.40 44.05 45.82 48.33 50.40 53.22 53.99 54.16 53.71 53.30 51.84 53.02 52.69 50.55 52.10 57.67 59.08 59.96 59.67 59.99 60.04 60.30 60.57 60.30
36.17 27.92 31.08 27.95 32.10 32.71 30.22 32.18 33.00 33.36 32.69 33.06 34.32 34.61 41.18 42.52 42.62 41.53 41.92 42.53 43.15 43.97 46.19 49.71 52.06 52.01 51.77 51.87 51.89 51.50 50.71 48.41 50.85 49.19 49.73 56.16 58.86 58.54 59.11 59.33 59.38 59.58 59.73 59.50
33.09 30.80 28.27 24.10 30.52 30.44 26.08 31.09 32.68 33.60 34.96 34.21 30.24 35.95 40.49 39.16 39.92 41.02 42.82 43.92 44.42 44.73 49.40 50.19 49.69 50.16 50.32 50.17 49.89 48.96 48.59 48.88 47.50 48.71 49.73 51.55 57.83 57.93 59.82 59.30 58.85 58.60 58.53 56.02
32.48 30.87 29.52 24.78 27.78 18.05 31.11 36.29 35.73 33.82 34.97 36.46 36.76 37.88 39.17 40.24 43.19 44.65 45.58 44.93 46.04 48.57 48.57 48.56 49.22 49.11 49.17 48.81 46.83 45.36 46.64 47.00 46.22 45.87 46.89 49.85 57.03 58.46 59.45 58.41 57.25 55.25 52.63 47.12
36.28 31.91 26.02 22.14 22.27 27.79 31.17 34.17 34.59 33.49 33.33 38.22 37.66 39.11 41.05 42.65 42.34 43.00 47.77 48.43 47.29 45.95 46.79 46.78 47.33 46.89 46.80 44.06 42.96 42.97 43.62 44.11 43.81 42.02 43.03 44.12 55.87 58.45 58.60 55.82 51.33 47.59 44.55 41.92
33.89 34.20 28.83 26.49 20.66 18.11 28.88 35.74 39.62 38.90 29.37 40.52 40.94 39.84 39.73 39.41 33.21 38.28 40.89 42.09 41.83 42.76 43.04 42.99 44.34 43.65 41.79 40.01 39.63 40.28 39.50 39.47 38.82 37.66 38.82 41.29 43.67 57.07 55.32 48.75 45.27 43.38 40.58 37.96
28.11 29.64 26.51 26.66 24.78 28.04 35.56 39.07 40.50 26.93 30.48 40.44 39.48 37.55 35.91 33.19 36.97 39.47 40.14 39.49 39.62 40.92 40.03 41.03 41.37 39.29 37.27 37.17 36.35 36.47 36.86 35.25 35.08 36.92 38.48 39.98 42.52 53.00 49.24 44.01 40.95 38.37 36.25 35.30
26.54 25.43 26.26 27.64 25.67 22.29 36.36 38.21 32.59 36.52 40.52 38.79 38.99 36.27 33.57 37.97 38.92 38.88 38.46 37.25 37.74 37.61 38.81 40.13 39.69 38.26 37.06 34.47 33.00 32.76 33.46 33.77 34.62 36.23 36.41 36.35 43.12 46.56 43.74 40.54 37.32 36.04 34.72 32.98
26.33 29.11 27.34 29.44 28.44 35.67 35.63 34.38 36.24 37.29 38.48 37.19 36.46 36.53 38.55 37.10 36.55 36.31 35.23 34.83 35.24 36.61 37.82 38.98 38.47 38.01 37.23 34.57 30.71 29.72 30.86 32.37 33.11 34.45 33.94 34.46 34.94 39.58 40.15 37.78 35.25 34.24 33.86 32.15
31.52 35.08 30.98 30.54 32.02 32.15 34.62 35.22 35.09 34.77 33.86 36.35 37.70 38.23 38.45 35.87 36.22 35.59 34.88 35.41 35.63 36.06 35.54 36.59 35.84 35.16 34.46 33.37 30.85 28.74 30.44 31.92 31.78 31.68 32.31 32.67 32.55 32.10 34.31 35.39 35.04 33.74 32.39 31.01
33.65 34.62 30.77 32.51 33.08 33.39 35.24 35.45 35.21 36.03 36.18 36.59 37.98 37.86 36.60 35.95 34.46 34.57 33.51 33.28 33.48 33.03 33.33 33.36 32.28 31.13 31.96 32.05 29.42 27.60 29.34 30.86 30.55 30.43 31.34 31.72 31.47 30.04 29.12 29.50 30.61 30.53 31.56 31.55
34.33 30.37 28.92 28.77 32.89 31.34 33.87 34.54 36.35 35.19 34.30 35.36 35.19 35.14 36.29 34.92 33.30 33.37 31.51 31.09 30.19 29.72 29.90 28.84 28.65 28.24 28.55 29.84 28.50 26.23 28.03 30.04 29.80 29.11 29.21 29.80 30.11 29.34 27.93 27.13 27.16 29.85 28.66 28.76

GFSCGP_sfc_wetblb_129.txt.gz
Wetbulb
40.27 33.69 32.06 34.75 35.45 36.67 36.07 34.62 33.77 37.36 41.01 38.57 38.73 38.44 40.28 42.74 44.16 43.62 44.60 45.40 46.08 49.10 51.21 52.17 52.05 51.47 52.82 54.50 55.61 56.73 56.96 56.10 58.21 62.05 65.59 65.07 65.45 65.28 65.48 66.31 66.56 68.22 68.38 67.75
36.84 32.16 38.61 41.12 41.00 39.42 37.62 35.03 34.38 37.72 39.86 39.00 38.41 39.15 38.71 40.87 43.81 44.43 44.06 43.95 44.20 45.70 49.70 49.56 49.98 52.81 54.10 55.30 57.98 58.78 59.27 59.27 58.87 56.08 59.75 64.13 66.37 65.83 66.34 66.21 65.46 66.23 67.50 67.38
32.27 36.37 41.22 40.78 38.80 37.46 36.89 35.54 35.16 35.35 38.26 38.43 36.77 34.64 36.53 40.73 43.80 45.39 46.12 46.02 46.29 45.83 48.00 51.56 54.03 53.30 53.53 56.58 58.24 59.15 59.43 60.31 60.40 59.64 56.18 59.91 62.12 62.93 63.58 65.47 65.21 65.59 66.17 66.92
33.57 38.13 36.28 35.58 35.16 37.06 32.73 38.76 38.42 36.70 33.78 29.37 34.80 27.52 35.57 37.41 40.15 42.93 44.02 44.76 45.27 45.99 50.71 53.37 52.04 53.16 54.31 55.15 57.65 59.04 59.69 59.67 60.99 61.46 58.39 60.51 59.97 59.44 61.42 64.28 65.48 65.39 65.59 66.30
31.12 33.08 32.79 32.27 34.44 36.84 33.72 38.09 37.11 36.72 32.89 31.33 33.20 29.76 34.24 37.85 37.62 40.02 42.96 44.45 45.78 46.95 51.19 50.45 50.61 54.50 55.49 56.08 56.38 57.23 58.83 59.32 60.10 60.85 61.08 60.36 59.80 59.82 60.48 61.22 62.44 63.86 64.21 65.65
33.53 36.59 35.01 34.71 38.07 38.06 38.99 36.02 36.12 34.67 31.40 26.02 31.97 29.61 31.02 34.43 37.87 40.80 43.07 44.45 46.11 49.07 49.43 51.68 51.80 55.21 55.64 55.89 55.87 55.98 56.05 57.65 58.88 59.71 60.10 59.11 60.55 60.22 60.30 60.57 61.58 62.10 62.81 63.52
32.27 32.80 34.89 39.27 34.63 37.28 36.19 33.05 24.89 23.56 22.56 23.11 33.97 30.90 32.95 37.92 40.41 41.95 42.90 47.17 47.08 49.54 49.03 49.31 50.51 52.06 52.76 54.00 54.23 55.56 55.14 55.80 58.62 59.53 59.64 59.66 60.93 61.39 61.20 60.89 61.05 61.01 61.40 62.36
24.90 22.74 31.94 36.08 33.34 31.37 31.78 33.19 27.04 20.19 21.22 24.03 33.78 27.74 32.82 39.93 42.52 44.25 44.93 48.84 49.44 48.45 49.08 49.43 50.11 51.36 51.92 52.73 53.70 54.63 54.68 54.73 57.06 58.97 58.84 59.75 60.55 61.42 62.53 61.93 61.62 62.12 61.65 61.92
24.79 25.30 34.34 35.74 35.93 33.94 30.95 27.95 35.08 29.32 30.02 26.33 27.72 32.41 37.47 41.07 41.87 43.76 44.25 48.55 47.22 47.49 48.39 48.83 49.67 51.00 50.92 52.57 53.20 53.27 53.37 53.84 53.97 55.66 58.70 59.00 60.02 61.48 61.92 63.08 62.38 63.04 62.87 61.97
30.26 22.53 32.17 34.10 35.48 35.42 33.95 36.61 26.40 29.92 21.72 20.02 25.55 26.39 28.40 36.74 41.28 42.05 43.93 46.00 47.91 47.84 47.88 47.99 48.63 50.31 50.94 52.58 52.88 53.29 52.97 52.63 52.80 53.37 54.80 56.47 58.95 60.32 61.60 62.34 62.33 62.38 62.27 61.74
31.24 27.85 26.57 31.36 29.09 27.88 30.06 29.30 31.27 31.37 28.92 22.69 22.02 23.71 38.16 37.13 40.52 41.22 41.51 45.33 45.33 44.37 44.96 44.74 46.71 49.35 51.37 52.16 52.07 51.84 51.81 51.76 51.14 51.37 52.79 53.33 55.72 59.02 59.88 60.98 61.59 61.97 62.30 61.39
32.60 28.10 21.78 25.61 33.03 35.73 34.33 30.77 33.01 25.71 23.51 25.42 24.71 25.75 37.71 37.49 40.49 41.08 40.44 43.93 44.00 43.18 43.46 43.77 43.23 47.19 48.96 50.13 51.27 50.58 50.80 51.10 50.93 50.96 50.93 51.34 53.06 56.59 59.71 59.84 61.02 61.75 61.89 61.33
33.10 26.05 19.32 21.82 28.92 32.79 28.96 31.25 32.51 32.23 30.59 22.97 21.95 26.69 38.27 38.53 37.85 41.74 41.80 42.63 42.06 42.17 42.63 43.23 44.15 49.67 51.03 51.02 51.23 50.97 50.01 49.72 50.00 49.26 48.93 49.97 50.94 53.12 56.83 59.32 60.51 61.32 61.49 61.22
35.53 28.61 24.24 18.74 22.87 28.73 26.10 28.82 31.57 30.71 24.55 24.07 25.78 28.18 34.04 35.60 35.99 38.19 41.25 43.11 42.88 40.75 41.71 42.50 48.57 48.61 48.72 49.37 50.17 49.63 49.51 48.87 48.41 48.06 47.88 47.83 49.53 50.66 52.23 56.84 59.32 60.77 61.33 61.09
33.06 24.30 27.28 27.80 29.15 29.67 29.16 28.96 30.36 27.99 28.23 24.33 28.47 29.43 33.49 36.15 36.89 37.95 40.50 42.39 43.55 43.57 44.71 46.85 47.29 46.97 47.25 47.28 47.30 46.95 46.01 45.78 46.17 46.40 46.84 47.34 48.34 49.19 50.22 53.04 58.84 60.35 60.77 60.76
33.33 23.05 27.87 24.83 29.43 29.80 27.37 29.03 29.80 30.05 30.52 29.07 31.17 30.90 37.62 39.09 40.03 39.46 40.16 43.19 43.60 44.10 45.05 45.44 45.58 45.74 45.35 44.41 43.64 42.80 42.52 42.96 44.29 44.56 44.64 46.20 46.85 46.09 46.45 50.67 55.10 59.18 59.80 59.08
30.38 27.09 24.51 20.83 27.36 26.67 22.15 27.33 29.83 30.87 31.46 31.28 26.55 32.58 37.39 37.10 38.69 39.39 39.56 40.50 40.57 41.30 41.17 40.80 41.49 42.18 41.87 40.38 40.07 38.91 39.69 41.23 42.61 42.91 42.65 43.25 43.48 42.71 42.87 44.99 47.50 58.04 58.35 57.19
29.30 27.26 26.22 22.02 24.04 15.30 28.51 32.85 32.43 31.37 32.27 33.67 33.90 33.83 35.26 36.29 38.86 39.08 39.45 38.14 38.62 39.71 39.92 39.19 39.55 39.80 38.98 38.12 37.52 37.60 38.22 39.48 40.26 40.38 39.16 38.56 38.58 39.34 41.05 42.58 45.64 53.33 54.24 52.59
31.79 27.36 24.00 16.51 19.82 24.83 25.89 28.71 29.23 30.37 29.21 33.79 34.60 33.86 35.23 36.55 38.12 36.34 38.44 39.39 38.63 38.37 38.84 39.01 39.47 38.98 37.13 36.07 35.36 35.08 35.71 36.40 37.44 36.10 35.03 35.94 36.54 37.32 38.96 40.06 42.47 46.77 47.55 46.44
31.75 31.50 27.06 25.14 19.50 16.68 24.15 30.43 34.00 31.13 24.75 32.42 35.52 33.79 32.82 34.51 29.30 32.68 37.64 37.69 36.76 37.87 38.59 38.15 39.20 38.60 35.63 33.82 33.63 32.50 31.91 33.08 32.41 32.68 33.13 34.90 35.70 37.14 37.85 38.42 40.81 45.77 45.54 40.44
22.86 21.25 22.61 23.54 21.22 24.16 29.04 31.67 33.83 22.19 21.26 33.74 34.65 33.98 33.71 32.30 34.21 36.17 36.40 35.79 36.99 36.47 35.62 35.91 36.04 34.47 33.84 32.55 31.71 29.84 29.23 28.70 30.25 31.13 32.69 34.09 35.38 36.53 37.65 38.62 40.00 41.07 39.08 37.11
21.79 16.73 18.88 20.55 10.45 12.04 32.74 30.75 23.56 28.99 33.49 34.20 34.20 34.11 33.44 34.57 35.16 35.08 34.77 33.86 34.37 31.77 31.76 32.09 31.13 30.77 31.54 30.41 29.84 27.23 26.44 28.11 28.89 30.06 31.95 33.00 34.39 35.51 36.60 38.76 41.05 38.37 37.06 34.75
17.91 27.85 24.78 26.93 25.71 32.52 34.45 32.69 34.50 34.48 33.04 33.56 34.44 34.51 34.13 32.97 32.74 33.38 32.26 31.94 31.41 30.08 29.32 29.66 28.26 28.25 28.90 28.59 28.03 25.80 26.38 27.21 27.59 29.58 31.16 31.61 33.10 33.25 33.64 35.97 36.04 35.00 35.30 33.85
31.25 34.42 25.56 27.70 30.73 30.65 33.25 34.65 35.12 35.87 35.23 34.78 34.70 34.18 33.47 32.03 31.70 31.53 30.11 29.16 28.86 28.24 27.36 27.95 26.56 25.80 25.48 26.68 26.85 26.04 26.27 26.85 26.99 27.95 29.68 30.00 30.01 29.84 29.26 31.50 33.04 32.90 32.36 31.95
31.41 33.27 28.94 27.56 31.02 31.57 33.41 34.65 34.21 34.05 35.08 34.29 34.28 33.48 32.08 31.31 29.99 29.48 28.36 26.64 26.22 26.52 26.76 26.52 25.32 24.38 24.34 25.44 25.91 25.95 25.44 25.96 25.63 27.28 28.73 28.20 28.18 27.84 27.60 28.39 29.25 31.34 31.72 31.92
31.84 29.54 23.79 25.29 32.16 31.43 32.31 33.95 35.05 32.89 33.04 33.74 32.35 31.45 31.54 30.46 28.87 28.63 27.15 26.23 25.00 24.46 25.18 25.14 24.05 23.48 23.35 24.48 25.43 25.84 25.64 25.57 24.89 25.57 26.96 26.59 26.62 26.21 26.63 26.26 26.47 30.50 30.33 30.30

GFSCGP_sfc_wetblb_132.txt.gz
Wetbulb
38.89 33.21 30.64 34.41 34.90 34.72 33.25 31.28 30.21 33.93 37.87 34.69 36.37 37.10 39.29 41.54 41.01 40.93 40.34 41.59 42.08 43.38 46.45 49.04 52.24 51.90 51.95 51.96 53.19 54.37 59.78 64.33 64.52 64.15 64.72 63.92 64.48 64.23 64.51 64.55 67.05 66.72 68.33 67.88
32.28 30.06 36.84 38.23 38.01 36.11 34.00 31.34 31.25 35.31 37.83 35.80 34.63 34.53 38.42 40.03 40.10 41.41 42.90 40.66 41.78 43.18 45.82 47.65 49.12 51.08 52.40 53.74 56.60 57.59 57.34 56.85 58.49 59.94 63.92 64.12 64.71 64.35 65.63 65.38 64.54 66.29 66.90 67.03
28.29 32.81 36.90 35.03 32.80 32.97 32.17 31.86 31.99 32.00 34.87 35.50 33.31 32.31 34.78 38.60 39.99 42.00 42.92 43.19 43.68 43.70 44.74 50.94 52.98 52.10 54.00 54.88 57.11 58.32 58.81 59.39 59.39 58.14 56.17 60.84 62.83 63.02 63.79 63.52 64.08 64.47 65.61 66.36
30.73 34.82 33.96 32.40 31.35 32.82 29.17 34.62 34.28 32.70 30.06 26.04 33.88 26.01 34.72 36.12 37.68 39.87 41.44 41.86 41.91 43.31 48.52 53.44 52.85 52.54 54.38 54.87 56.44 57.67 58.16 58.26 60.63 60.21 55.99 59.10 61.14 62.85 64.15 65.06 65.35 64.79 63.96 64.87
29.89 31.66 31.18 29.85 31.49 33.58 31.75 36.55 34.05 33.12 29.85 27.30 31.45 24.74 32.21 34.72 35.28 37.00 39.30 41.97 41.58 43.46 50.66 50.47 52.00 53.89 53.14 53.93 55.18 56.05 57.13 57.06 57.78 59.44 60.04 59.56 58.42 58.59 59.46 62.15 64.27 64.43 64.27 65.70
31.57 34.57 32.04 31.64 34.77 34.94 36.89 34.72 34.06 32.23 28.56 22.96 30.01 28.47 27.12 33.66 35.11 38.14 41.75 42.77 43.03 44.14 48.52 51.94 54.16 54.44 54.52 53.56 53.32 54.64 56.45 57.90 58.19 58.74 58.57 58.44 59.47 59.79 58.91 60.44 62.59 62.69 62.45 64.45
29.87 30.46 32.31 35.19 30.74 33.16 31.90 29.51 22.28 20.47 20.53 21.52 31.95 29.02 30.90 36.33 38.24 39.47 40.16 41.63 43.09 45.32 47.48 51.63 53.12 53.18 52.20 52.33 53.65 54.60 55.11 55.11 57.13 57.29 58.34 58.27 58.73 59.61 60.19 59.32 61.17 60.92 61.13 61.96
22.40 21.38 29.69 34.40 31.10 27.91 27.67 29.51 20.47 16.05 18.91 23.66 31.37 24.52 31.07 38.31 40.90 43.02 45.09 43.69 45.08 45.43 48.83 52.53 52.18 51.70 52.60 52.93 53.45 53.94 53.94 53.39 54.65 54.79 56.07 57.04 58.08 58.69 60.15 61.39 60.64 61.57 61.67 61.95
22.92 23.94 32.65 33.95 34.08 31.78 28.44 23.42 31.12 24.78 25.64 22.06 26.24 30.47 34.91 38.32 38.82 41.57 42.20 44.20 44.04 44.50 47.65 49.31 50.16 51.98 52.32 52.58 52.38 52.91 52.57 52.36 52.77 53.53 53.57 54.37 54.77 57.63 58.80 60.34 60.93 62.02 62.22 61.88
28.58 21.53 30.79 32.34 33.45 32.74 29.22 32.42 23.01 23.92 10.60 14.37 25.51 26.56 27.66 33.10 34.99 38.34 40.29 41.85 42.64 47.80 47.80 48.46 49.07 51.49 52.47 52.83 52.82 52.31 52.19 51.01 50.96 51.55 52.02 51.86 52.51 54.12 57.03 59.87 61.20 60.98 62.35 62.19
29.35 25.34 25.74 29.98 27.05 25.51 27.33 26.37 28.27 28.47 25.12 19.10 18.96 25.55 35.17 34.07 37.03 36.89 40.40 42.81 43.10 42.84 43.88 44.12 48.64 51.98 52.00 51.13 51.13 51.07 51.00 50.60 50.20 49.96 50.69 50.85 51.09 52.15 54.23 58.12 59.19 60.49 62.32 61.74
31.45 26.79 21.56 24.38 31.32 34.30 31.55 28.97 28.56 22.78 21.66 25.49 25.30 24.21 37.51 36.97 37.86 38.26 37.84 40.57 42.85 44.40 44.04 44.50 49.40 49.78 49.96 49.86 49.66 49.63 49.72 49.43 49.31 48.46 48.46 49.15 50.49 50.84 50.80 52.22 56.34 60.39 60.97 62.01
31.45 25.11 15.79 21.12 25.39 32.26 28.75 30.47 31.03 30.40 29.21 23.12 19.78 21.08 37.60 37.10 37.28 37.18 38.31 40.31 42.36 43.07 43.32 46.38 48.31 48.54 48.52 49.02 49.08 47.91 47.45 46.61 46.34 47.09 47.16 47.65 48.30 48.76 49.04 49.19 51.84 55.53 59.78 61.01
34.50 27.31 23.53 18.49 22.76 26.64 25.05 28.58 30.27 29.22 23.24 23.48 24.24 24.52 31.97 34.68 35.18 35.90 38.99 40.99 43.20 44.54 44.72 46.26 45.75 45.56 44.96 45.26 44.95 44.83 44.33 44.54 44.62 45.52 45.28 45.19 46.26 46.70 46.93 47.03 48.80 52.71 56.73 59.89
31.52 22.91 26.45 27.12 28.37 28.56 28.18 27.49 27.90 26.13 26.76 22.89 26.52 26.31 31.43 35.27 36.52 37.79 39.74 42.14 41.84 41.33 41.62 42.05 42.37 42.17 40.96 40.83 40.63 40.71 40.78 41.44 43.36 43.12 42.75 42.48 43.72 44.93 44.13 44.35 45.43 47.38 50.73 58.08
31.76 19.87 24.23 23.90 27.95 28.51 25.79 27.60 28.52 28.93 29.32 27.89 29.06 29.36 36.04 38.79 40.08 39.72 39.48 39.64 39.13 39.64 39.84 40.03 40.32 40.10 38.94 38.30 37.60 37.98 38.12 39.38 41.35 40.91 40.81 40.82 40.12 40.04 40.75 41.60 42.75 44.58 48.75 52.86
31.09 28.50 24.87 20.63 25.83 25.73 22.55 25.75 28.21 29.92 31.29 31.48 26.34 30.99 34.73 34.67 37.87 36.58 37.35 38.02 37.45 37.41 37.51 37.69 38.27 37.83 37.44 36.04 35.84 34.49 35.91 37.34 37.55 38.98 38.31 37.58 37.56 37.49 38.00 39.26 40.82 42.12 44.72 47.38
28.82 25.83 25.89 22.30 23.94 14.60 25.56 30.90 31.43 30.30 29.12 30.70 31.45 32.33 33.49 34.19 37.13 37.33 37.70 36.62 35.96 36.41 35.99 36.29 36.85 36.58 35.26 34.12 33.68 34.29 34.24 33.76 35.51 35.20 34.54 34.77 35.29 35.86 36.82 38.27 39.28 40.16 42.00 45.09
30.98 27.36 24.68 18.76 20.71 24.27 26.10 27.65 27.19 26.54 26.54 30.31 29.74 31.57 33.56 35.31 36.90 35.32 36.26 36.09 35.59 35.01 33.79 33.52 34.52 34.79 32.46 31.38 31.90 31.87 31.52 31.50 31.84 30.95 31.41 32.39 33.75 34.57 35.90 36.93 37.83 38.70 40.02 42.01
30.19 29.13 21.17 23.14 18.51 14.15 24.57 29.36 32.17 31.23 22.91 30.60 33.04 32.02 33.25 33.98 28.57 32.09 35.29 35.38 33.28 32.61 31.92 30.78 31.73 31.68 30.69 29.30 30.17 29.48 28.71 28.57 27.74 28.53 29.42 31.29 33.41 34.33 34.95 36.17 36.96 38.42 39.73 41.65
19.83 17.86 13.37 17.68 16.69 22.97 28.93 30.47 32.85 19.40 19.16 31.96 33.85 32.87 32.75 31.27 32.87 35.25 34.23 32.89 31.87 30.17 29.32 29.71 29.20 28.18 28.20 28.23 28.18 26.65 26.39 25.91 27.36 28.19 28.89 30.88 32.77 33.77 35.11 35.68 36.22 37.32 39.88 38.13
20.62 17.53 12.68 17.50 7.71 10.66 31.78 30.27 24.04 29.17 33.40 33.47 33.64 33.19 32.10 33.54 33.50 32.99 31.74 30.02 29.48 27.83 27.79 28.16 26.35 26.40 27.15 27.11 26.23 24.67 24.23 26.30 26.95 27.58 28.63 29.84 31.38 32.63 32.97 32.29 34.27 37.73 36.85 34.32
17.09 24.13 18.73 24.97 24.82 32.22 34.36 32.64 34.26 33.91 32.64 32.99 33.52 34.05 32.42 32.08 30.12 30.43 28.63 27.44 27.29 26.96 26.98 27.58 25.58 25.75 25.60 25.74 25.76 24.06 24.47 25.47 26.40 26.47 26.97 28.83 29.75 30.50 30.75 30.04 31.51 33.95 35.03 33.04
27.73 32.65 24.57 24.40 28.91 31.29 32.46 34.51 33.92 34.89 34.24 35.18 33.79 32.43 31.09 29.73 29.00 28.47 28.28 26.49 26.07 25.86 25.90 27.33 23.96 23.70 22.86 23.94 25.30 25.53 25.34 25.35 24.70 24.52 25.47 26.50 26.16 27.18 28.72 28.61 29.52 31.13 32.64 32.45
25.79 32.68 26.85 25.11 29.90 32.28 33.65 33.23 33.68 33.72 34.90 33.21 32.69 31.74 30.44 29.60 28.47 27.78 27.14 25.75 24.83 24.74 24.08 26.07 23.21 23.00 22.45 23.36 24.00 25.48 24.48 24.63 23.92 23.28 23.55 23.33 24.19 25.91 26.62 27.11 27.68 28.92 30.62 32.69
30.90 28.98 20.75 19.77 30.60 30.61 31.26 33.23 35.13 32.07 31.82 30.85 29.80 29.36 30.08 29.01 27.92 27.57 26.79 26.17 24.46 23.91 23.09 23.49 23.34 22.71 22.59 22.65 23.39 25.50 24.35 24.19 23.50 22.61 23.11 23.01 22.69 24.24 23.78 22.61 24.69 28.88 30.38 31.42

GFSCGP_sfc_wetblb_138.txt.gz
Wetbulb
33.58 30.98 27.36 27.83 31.51 32.86 30.75 27.54 26.76 30.18 34.46 30.41 30.93 32.58 35.24 35.84 35.44 35.60 37.09 38.74 38.99 40.87 42.50 43.54 44.09 43.92 45.76 47.84 47.18 48.67 61.15 66.47 66.65 66.11 65.19 65.38 64.58 64.69 65.10 65.14 65.34 65.69 66.05 66.49
29.15 25.10 30.96 32.48 31.50 29.41 28.19 27.33 26.23 30.14 33.21 31.54 30.03 31.96 35.84 34.25 35.65 36.46 37.00 37.50 38.71 39.36 41.24 43.18 43.18 44.94 48.51 49.71 49.95 48.56 56.28 65.57 66.61 66.88 66.70 66.38 65.76 65.37 65.56 66.09 66.23 66.38 66.32 66.65
26.33 29.19 33.81 31.94 29.41 28.50 26.48 25.49 26.14 26.86 29.60 30.16 28.80 28.93 30.96 33.42 34.99 37.54 39.01 38.95 39.28 39.62 40.21 42.81 44.18 45.02 49.99 51.01 53.32 53.20 55.80 63.17 66.73 67.09 66.23 63.47 63.88 63.17 62.99 63.67 65.09 66.15 66.23 66.58
27.52 31.37 31.12 29.01 28.51 28.66 24.28 30.26 29.88 29.33 26.41 20.63 29.44 21.20 30.75 31.47 32.66 36.61 38.32 41.04 42.81 43.59 45.30 45.57 43.98 44.78 51.55 53.18 54.49 56.63 61.36 65.11 64.94 65.57 65.00 63.95 62.38 61.74 62.08 64.06 64.66 64.03 65.68 65.94
26.53 29.37 29.03 27.04 28.54 30.17 27.66 31.17 29.12 29.06 25.71 23.38 24.77 20.29 28.21 31.35 31.96 35.82 38.52 41.66 42.94 43.09 43.44 44.31 45.26 43.63 52.60 53.30 53.70 56.33 58.92 59.05 58.81 59.71 61.84 60.23 60.17 60.76 60.73 62.50 62.66 63.25 63.11 64.50
28.51 32.00 30.66 29.25 32.03 30.95 32.22 28.28 27.03 26.45 24.21 18.15 23.26 21.90 21.66 28.07 33.02 35.94 38.69 41.68 41.43 41.93 43.14 44.36 46.30 48.74 50.79 51.44 52.89 54.45 57.40 56.95 58.52 58.57 58.66 59.09 58.83 58.23 58.26 59.39 61.22 63.25 62.89 62.66
27.48 27.60 30.04 32.83 27.92 30.30 28.87 23.82 17.13 15.49 17.87 16.98 25.16 21.49 24.56 31.84 34.72 36.99 38.18 39.71 40.38 41.67 42.99 44.54 45.89 49.36 50.74 50.97 54.14 55.80 55.88 56.43 56.39 56.59 56.51 56.83 57.29 57.47 57.90 58.03 58.84 59.85 61.36 61.02
20.94 20.45 27.10 31.74 28.43 24.69 23.93 23.77 16.20 9.73 13.13 15.79 23.70 17.36 23.67 33.70 36.07 38.28 39.96 39.34 39.54 40.95 42.40 43.99 48.26 48.50 49.82 51.12 51.54 51.82 52.11 52.01 52.08 52.43 52.13 52.46 53.41 55.12 56.84 57.30 57.46 59.02 59.87 59.90
21.02 21.15 29.56 31.07 30.76 28.57 23.83 20.71 26.04 19.59 21.17 16.94 19.24 23.29 29.24 34.07 34.72 37.17 38.37 39.43 38.79 41.62 43.24 44.51 49.01 49.63 49.67 49.39 49.41 49.51 48.99 48.49 48.14 49.34 50.11 50.34 51.30 51.57 52.58 54.79 56.82 58.16 59.06 59.62
25.72 20.11 27.80 29.30 30.41 29.14 26.93 28.85 19.66 19.78 4.86 8.50 13.05 17.93 21.72 28.92 32.30 36.06 37.74 38.31 40.20 41.42 42.94 44.75 49.57 49.06 47.87 47.43 46.65 45.99 45.97 45.94 46.89 47.62 48.03 48.40 48.64 49.41 50.00 50.84 51.29 53.99 57.07 58.26
27.14 23.89 23.52 26.63 23.92 21.94 25.31 24.04 25.11 23.64 20.31 15.27 14.49 16.73 32.36 32.67 35.05 35.43 37.77 40.25 42.27 41.32 41.66 40.41 40.23 42.57 44.74 43.79 43.26 43.22 43.40 43.83 44.61 45.02 45.58 46.01 46.42 46.99 47.91 48.14 48.03 48.56 51.61 53.63
28.91 25.43 20.40 21.95 28.06 29.93 28.29 25.36 23.82 15.66 16.65 21.35 21.33 19.44 35.42 35.50 36.89 37.57 39.28 39.68 40.26 39.45 39.05 39.67 38.20 35.91 39.29 40.15 39.91 39.87 40.54 41.72 42.97 43.52 43.37 43.13 43.28 44.09 44.07 44.55 45.66 46.88 47.02 49.04
29.07 23.17 14.77 19.77 22.59 28.08 24.94 27.01 28.31 27.90 26.44 18.41 16.21 20.55 34.45 35.78 37.10 38.90 37.64 38.69 37.58 37.94 36.31 36.95 35.88 33.57 33.68 36.57 36.82 37.11 37.67 37.61 38.95 40.88 41.40 40.73 40.29 39.97 40.18 41.39 42.73 44.05 45.15 45.84
33.65 25.82 21.79 15.41 19.97 22.66 22.51 25.22 26.96 26.63 21.37 20.74 21.23 23.55 30.20 32.29 34.64 36.24 38.30 38.48 38.59 38.05 36.45 36.04 34.64 33.03 32.66 34.15 34.07 34.95 35.16 35.16 36.17 38.61 38.72 37.43 37.56 37.96 38.38 39.49 40.31 40.98 42.29 43.84
29.50 21.66 24.41 25.10 25.81 25.33 24.79 24.66 24.71 25.25 25.98 22.77 25.49 27.06 29.22 31.74 34.13 36.58 36.53 36.45 35.82 33.89 33.64 33.86 34.25 33.91 33.55 33.16 32.84 33.28 33.81 33.85 34.43 35.33 35.09 34.59 35.45 36.07 36.89 37.78 38.52 39.49 41.45 42.72
29.41 18.41 22.65 22.21 26.22 25.87 24.64 24.15 24.84 27.44 27.07 25.76 28.14 27.97 31.98 33.48 35.04 33.99 33.74 33.42 31.67 31.38 31.36 31.74 31.81 31.80 31.63 30.74 30.32 30.66 31.52 31.96 32.56 32.19 31.82 32.56 32.90 33.18 34.46 35.82 36.74 38.46 39.84 40.88
27.72 25.96 24.31 19.61 24.77 24.86 20.91 23.96 24.52 27.01 27.23 26.76 23.25 28.13 31.70 30.84 33.11 32.05 31.38 31.19 30.04 29.74 29.52 28.98 29.06 29.30 29.88 29.25 28.90 27.90 29.69 30.80 30.59 30.31 30.16 30.05 30.61 31.03 32.54 34.62 35.62 36.47 37.19 38.82
27.26 26.69 25.79 20.92 23.43 13.22 22.37 28.66 27.68 27.11 26.85 28.37 28.63 29.34 30.26 30.13 32.86 32.29 31.74 29.80 28.46 27.89 27.09 27.40 27.37 27.42 28.32 28.29 27.81 27.95 28.96 28.65 28.59 27.98 27.92 28.38 28.99 30.01 32.34 33.11 33.56 34.53 35.71 36.43
29.22 26.55 23.07 15.55 18.55 22.12 24.95 26.23 25.56 24.49 24.93 28.63 27.56 29.71 29.87 30.97 33.20 30.64 31.07 29.89 27.82 26.88 27.02 27.25 27.22 26.64 27.23 26.13 26.44 26.53 27.08 27.00 26.61 26.04 26.08 27.32 28.38 28.81 30.47 30.30 32.07 33.05 33.11 34.22
27.18 26.18 19.06 20.18 16.84 13.55 23.09 27.19 30.66 30.30 20.58 30.28 30.04 29.82 28.93 29.26 23.25 27.49 29.05 28.48 27.07 26.46 25.99 26.08 26.28 25.06 25.13 24.54 24.84 24.79 24.92 25.08 24.42 25.07 25.83 27.34 28.30 28.77 28.52 29.87 30.42 31.29 31.72 32.89
18.43 16.55 11.12 19.23 5.64 14.59 26.33 29.22 31.45 20.24 19.23 31.69 31.50 30.74 29.80 26.79 30.03 29.80 30.71 28.63 28.10 26.72 25.00 25.37 25.51 23.33 23.24 24.05 23.49 23.11 23.31 23.55 24.88 25.75 26.09 26.50 26.95 27.70 28.08 28.80 29.26 29.46 29.53 31.34
11.57 15.05 9.90 14.03 5.21 7.60 29.42 28.91 22.95 26.13 31.47 32.98 32.03 32.27 29.03 29.43 30.06 28.68 28.23 27.40 25.21 23.78 23.84 23.49 23.96 23.37 23.41 23.49 23.00 22.20 22.15 24.88 25.16 25.29 25.38 24.96 25.29 26.36 27.05 26.35 26.70 27.25 28.05 28.59
15.21 16.55 14.90 17.94 17.08 27.20 32.52 29.79 31.46 33.58 31.37 33.03 32.40 30.49 29.68 28.46 27.86 27.54 26.28 25.69 24.20 22.87 22.50 23.06 22.81 22.36 22.78 22.90 22.72 21.68 22.95 24.29 24.01 23.75 23.50 23.82 24.17 24.46 24.51 24.05 24.50 25.37 26.26 26.42
22.13 31.44 26.95 22.11 25.96 28.24 29.23 31.92 31.81 32.29 30.91 32.16 31.26 29.66 28.69 26.20 26.78 26.01 25.79 24.45 23.00 22.46 22.18 22.51 21.62 21.40 21.09 22.01 22.84 22.67 24.26 24.28 23.09 21.87 20.65 21.34 19.90 21.33 20.87 21.19 21.85 22.10 24.21 24.57
20.30 29.95 27.46 23.15 27.68 29.34 31.53 32.84 30.64 31.90 30.55 29.24 29.61 28.29 25.81 24.87 24.05 24.44 23.48 24.82 23.20 22.88 22.20 22.29 20.73 20.84 20.55 21.10 21.52 23.02 24.15 23.75 22.18 21.42 19.11 18.72 18.70 17.22 18.10 19.71 18.99 20.76 21.66 26.19
26.99 26.23 21.54 18.76 24.25 22.80 26.42 29.82 31.52 28.65 26.99 27.47 26.10 24.84 24.94 23.89 22.79 23.58 22.55 23.24 23.25 21.30 21.31 21.38 20.41 20.38 20.06 20.29 20.79 22.11 23.53 23.08 21.21 19.34 18.90 19.03 17.85 17.41 17.43 17.68 18.69 24.18 25.40 27.81

GFSCGP_sfc_wetblb_144.txt.gz
Wetbulb
42.97 41.52 39.61 39.20 38.87 38.89 37.88 37.05 36.87 39.26 41.23 39.00 39.65 39.63 41.45 43.96 43.96 44.60 46.56 48.18 49.12 50.23 52.53 53.83 55.13 56.33 56.79 58.19 58.09 58.18 59.42 60.79 61.37 63.41 66.75 67.56 67.64 68.90 69.45 70.13 70.76 70.45 70.72 70.45
38.89 37.12 37.85 38.15 37.61 36.67 36.33 35.41 36.22 38.09 39.39 38.34 38.52 38.83 41.15 42.58 44.64 46.17 45.95 46.42 47.28 48.61 49.96 51.43 53.45 54.96 56.14 56.61 57.66 58.48 58.37 59.32 60.01 60.21 63.58 66.75 67.70 68.03 68.95 69.78 70.69 70.45 69.94 70.11
36.20 36.79 37.87 36.78 36.23 35.39 35.66 34.01 34.27 33.65 37.23 39.32 38.02 37.48 38.98 42.52 44.76 45.02 45.92 47.00 47.78 48.24 48.72 50.38 51.73 53.59 54.92 55.46 56.71 57.25 58.53 58.79 60.15 61.99 61.30 65.23 67.66 68.12 67.69 68.07 68.65 70.05 69.40 69.68
36.86 37.99 36.15 36.01 34.50 35.88 33.64 35.54 34.88 34.82 34.20 32.04 37.52 30.82 37.57 39.76 40.99 42.38 44.41 45.76 46.71 47.98 49.26 50.09 50.89 50.29 52.28 55.63 57.26 58.04 59.01 59.74 60.70 62.47 62.38 63.24 65.41 64.94 66.97 66.77 67.02 67.55 69.10 68.26
35.40 35.25 35.13 34.29 34.10 35.81 34.32 36.75 35.38 35.08 34.16 34.09 34.72 32.02 37.13 39.67 37.71 39.14 42.75 44.65 46.37 47.77 49.02 48.02 47.35 46.78 47.18 48.61 53.14 59.14 59.88 61.48 63.12 64.17 64.77 63.47 65.68 66.78 67.59 66.43 65.33 65.24 67.47 68.24
35.77 38.74 36.99 35.32 35.76 35.91 36.78 35.02 35.93 35.99 34.74 29.38 32.33 31.21 34.80 35.15 36.05 39.46 42.91 44.73 46.05 44.69 43.00 43.97 44.42 45.14 42.91 42.73 44.72 49.33 56.04 58.19 59.30 65.14 66.40 65.31 65.75 67.06 66.85 67.22 64.60 65.25 65.89 66.38
33.92 34.20 36.69 37.40 34.57 36.64 35.73 33.84 30.02 28.59 28.81 28.72 32.45 29.69 33.38 36.63 39.84 41.46 42.00 42.06 40.84 40.60 39.48 39.19 38.96 40.36 41.61 39.80 40.12 42.15 47.56 50.82 53.40 55.36 59.52 65.33 66.88 66.23 63.70 64.69 66.15 65.49 63.15 63.40
31.04 28.35 34.54 36.25 34.38 32.06 32.28 32.05 28.24 20.55 24.95 27.67 32.46 27.09 32.80 38.51 42.59 43.14 43.25 41.62 39.90 38.29 38.51 37.79 37.49 37.73 38.39 38.33 39.65 39.13 40.85 44.92 48.57 52.02 53.56 55.60 58.14 60.90 62.85 63.18 63.60 64.32 64.76 63.70
30.74 29.50 35.61 35.81 36.22 35.02 32.03 31.17 33.55 26.49 28.44 25.01 30.26 31.87 36.72 39.65 40.47 41.23 40.40 38.25 37.63 38.37 38.38 37.84 39.01 38.07 36.33 35.53 36.66 38.18 39.15 39.73 42.87 46.25 49.00 52.07 53.64 56.99 59.36 57.66 58.73 60.48 59.30 59.80
33.46 27.93 33.78 34.88 36.78 36.22 33.85 36.02 28.41 29.65 18.19 17.86 26.69 27.86 31.19 35.21 36.48 39.16 36.66 37.08 36.76 37.92 38.81 38.42 38.39 37.75 36.80 35.62 35.00 36.52 37.84 37.65 39.92 42.31 44.60 46.74 49.02 53.08 53.20 53.76 53.81 55.70 56.39 57.97
35.40 31.54 30.30 33.34 31.49 30.97 32.15 30.99 31.28 31.15 28.59 22.15 21.29 27.87 37.29 34.47 35.29 36.25 36.86 37.59 36.95 37.11 36.51 36.60 36.93 36.93 36.73 35.82 34.82 34.18 35.72 36.06 37.58 39.43 41.90 43.50 45.55 47.51 50.06 50.22 50.92 52.14 53.76 53.93
35.58 32.27 27.80 29.27 34.57 35.92 34.57 31.87 30.45 26.16 23.74 27.55 26.02 26.79 38.96 38.12 37.78 36.82 37.58 37.74 38.70 38.39 37.31 36.58 36.77 35.53 34.41 33.84 34.38 32.79 33.42 33.80 35.92 35.89 38.01 39.98 43.54 44.66 45.44 47.96 49.07 50.62 50.82 52.16
35.19 30.28 24.56 26.40 31.34 33.81 31.73 33.38 33.01 31.22 29.47 25.00 22.82 27.28 39.86 39.18 38.10 36.93 37.04 37.64 37.98 38.05 37.86 36.76 35.85 33.62 32.71 32.17 32.35 32.30 32.64 32.86 34.44 36.61 36.54 38.57 39.21 40.05 42.39 45.17 47.20 48.36 49.17 50.15
37.05 31.67 28.69 26.39 27.96 32.16 28.52 30.70 32.36 31.08 25.96 27.30 28.21 30.07 34.54 35.21 33.73 35.77 36.04 36.85 37.59 37.22 36.50 35.79 35.01 34.66 33.21 32.65 31.59 31.77 31.81 32.91 33.43 35.92 37.08 36.36 36.97 37.98 40.62 43.66 44.93 44.86 47.00 47.26
35.39 28.09 30.17 30.68 31.23 31.35 30.50 30.19 31.36 29.49 30.44 25.97 29.59 29.77 33.15 33.70 34.35 34.22 35.44 35.57 35.24 34.92 34.70 34.46 33.96 33.30 32.19 32.15 31.25 30.74 31.16 32.36 32.58 33.39 34.21 34.81 35.97 38.25 40.59 41.53 42.39 44.12 44.54 45.21
35.82 29.23 29.02 27.14 30.84 30.79 28.71 31.32 31.60 31.20 31.45 31.26 31.52 30.92 35.08 36.61 36.39 33.17 34.01 32.98 32.66 32.91 32.75 32.92 33.06 32.64 31.29 30.47 29.59 29.46 30.09 30.76 32.76 33.30 33.82 35.50 36.66 37.31 38.35 38.73 39.15 41.17 41.35 42.65
33.23 31.43 28.61 24.53 29.91 29.44 25.53 29.96 30.40 30.33 30.83 29.89 26.45 31.68 34.81 33.66 33.40 31.99 31.89 32.21 31.14 31.09 31.69 31.60 31.61 31.84 31.30 30.53 29.49 28.30 29.33 30.88 31.04 31.48 32.66 33.59 34.06 33.78 35.12 37.22 38.08 37.94 38.10 39.25
32.36 31.09 30.33 26.64 27.82 19.07 29.58 34.51 32.65 29.99 31.63 31.24 30.54 31.92 32.83 33.15 34.18 32.79 33.42 32.28 31.17 30.96 31.14 31.40 31.53 31.92 32.45 32.01 30.63 29.65 30.18 29.97 29.75 29.52 30.02 30.80 31.11 31.47 31.82 34.53 35.63 36.68 35.89 35.89
35.79 32.45 28.18 24.86 24.80 27.48 28.20 30.92 30.21 27.52 28.07 31.81 30.91 32.93 34.17 34.77 34.91 32.44 33.94 33.02 31.59 31.47 31.62 31.75 32.25 32.16 32.50 31.85 30.77 29.94 29.88 29.76 29.61 28.36 28.61 29.87 30.57 30.64 30.59 31.32 32.44 33.07 34.70 35.40
33.95 34.19 30.46 26.75 17.38 18.01 29.93 32.15 34.64 33.63 26.05 32.43 33.06 32.21 31.95 32.52 27.88 30.44 32.94 33.10 32.70 32.49 31.96 31.39 32.01 32.29 31.88 31.54 31.17 30.63 29.79 29.38 28.34 28.49 29.46 30.58 30.96 31.27 31.72 31.97 31.99 33.79 35.01 34.77
27.98 28.84 26.37 26.45 24.47 26.18 33.15 33.77 35.52 23.78 26.36 32.98 33.45 32.80 31.81 29.47 30.48 32.29 33.08 32.82 33.01 32.38 31.64 31.82 31.91 31.06 31.22 31.24 30.91 29.99 29.80 27.91 28.59 29.49 30.49 30.81 31.13 30.25 30.79 32.03 33.42 33.48 33.41 33.59
26.90 26.47 26.03 26.35 23.01 20.42 34.97 33.48 28.68 32.44 34.22 33.67 31.61 32.62 31.51 32.14 31.99 32.19 32.06 31.30 31.25 31.11 30.86 31.14 30.61 30.54 31.42 31.26 30.22 29.41 28.34 28.83 29.23 30.08 30.01 29.73 30.45 29.94 30.34 30.70 31.89 31.72 32.09 31.43
27.20 31.47 30.93 29.88 30.31 35.20 36.18 34.86 35.32 34.43 32.83 32.87 33.28 32.84 32.18 31.18 30.15 30.58 30.46 30.80 30.17 30.28 30.31 30.36 29.65 29.67 30.88 30.74 30.14 28.02 28.45 28.51 28.17 29.04 28.43 28.49 29.20 29.56 29.85 29.17 29.33 28.93 28.30 28.23
32.20 34.26 31.88 29.97 32.55 34.40 34.92 34.55 35.20 35.78 34.20 34.51 34.30 32.75 31.80 29.01 29.74 29.48 30.14 30.13 29.54 29.95 29.21 29.52 29.10 28.87 28.80 29.60 29.24 29.29 28.34 28.07 27.37 26.71 26.48 27.26 26.99 27.09 28.26 28.45 28.53 27.94 26.82 26.93
34.70 34.48 31.34 29.53 33.08 33.97 34.11 35.45 35.58 34.72 35.24 33.67 33.06 31.23 28.78 28.27 29.05 28.79 28.53 28.91 28.81 28.35 28.47 28.54 28.05 27.63 27.42 28.24 28.52 29.16 28.17 27.67 26.54 26.48 27.35 27.67 27.18 26.95 27.17 28.47 28.06 27.45 28.15 26.17
34.95 32.96 30.86 31.72 35.56 34.47 34.54 35.58 36.52 34.66 32.95 31.99 30.29 29.27 28.72 27.24 26.92 27.22 27.03 27.46 26.31 25.46 26.25 26.02 26.24 26.11 26.15 26.65 27.13 27.69 27.57 26.68 25.72 25.97 27.17 26.95 26.66 27.19 27.16 26.99 28.30 28.64 27.37 26.45

GFSCGP_sfc_wetblb_147.txt.gz
Wetbulb
46.64 43.18 42.29 42.54 42.98 41.51 40.38 39.52 39.01 41.30 43.13 40.54 40.60 40.91 42.89 45.39 46.88 47.50 47.94 48.36 49.09 49.96 52.18 53.34 54.34 55.86 55.50 56.13 57.51 58.71 59.08 61.17 61.64 60.60 61.23 66.10 66.82 68.62 70.56 71.47 72.24 72.18 73.10 71.47
42.00 39.96 41.90 41.13 40.30 39.07 38.86 38.01 38.44 40.27 41.52 40.20 40.35 40.13 43.31 45.29 46.32 46.67 46.77 47.51 48.16 49.34 50.43 51.86 53.21 52.87 52.60 52.68 53.34 54.07 56.67 60.15 60.18 59.99 61.36 62.65 65.76 68.20 69.73 71.06 71.49 72.59 72.35 72.66
40.05 40.70 40.49 39.00 39.05 38.05 38.98 37.77 37.88 36.83 39.37 41.00 40.44 39.10 41.26 44.82 45.72 45.76 46.82 47.84 48.45 49.22 49.59 50.32 50.35 50.30 51.23 49.94 49.84 50.44 51.72 56.36 61.60 61.24 61.23 62.36 63.47 67.43 68.19 69.14 70.16 71.40 72.27 72.42
41.08 42.13 38.94 38.50 37.85 38.10 35.86 38.91 38.01 37.04 36.54 34.06 40.10 32.78 39.67 42.94 43.18 43.32 44.84 47.01 47.67 47.51 48.04 47.81 48.02 47.59 48.64 48.67 48.52 47.66 48.00 49.48 56.43 60.62 62.46 62.60 62.33 61.54 66.22 68.03 69.20 70.16 71.95 71.69
38.90 38.47 37.68 37.44 38.14 38.48 36.84 39.08 37.77 37.44 36.28 36.34 37.02 34.93 38.47 41.81 39.98 40.64 44.92 45.27 45.90 46.15 45.87 45.02 45.48 46.00 46.51 45.69 46.07 45.23 44.27 44.80 47.31 49.80 56.86 60.68 64.06 64.16 64.37 67.90 68.64 69.78 70.20 69.68
39.52 41.38 39.43 39.00 38.95 38.42 39.14 37.48 38.15 38.26 36.62 31.82 36.72 35.36 36.38 38.39 38.49 41.46 43.74 43.83 44.06 44.09 44.79 45.27 45.98 46.30 45.43 44.74 43.26 42.97 41.37 41.56 42.16 44.11 48.75 52.54 57.16 65.21 64.54 65.75 67.42 67.75 68.88 69.19
36.55 37.28 39.22 39.63 36.81 39.45 38.59 36.61 31.86 31.24 31.51 31.64 36.79 33.17 35.87 39.03 42.07 42.18 41.35 42.18 43.33 43.90 43.47 43.24 43.62 44.05 44.70 43.43 41.77 38.99 38.42 39.02 40.11 41.38 44.26 46.50 49.79 54.79 64.89 66.59 66.76 66.91 67.67 67.23
33.47 31.24 37.48 39.83 38.09 36.24 35.47 34.97 30.65 24.79 28.24 31.79 35.62 30.73 35.41 40.63 43.90 43.67 43.32 43.52 43.38 43.61 43.89 43.78 43.39 42.72 42.45 42.77 41.16 39.70 35.88 37.19 38.80 39.60 41.65 45.49 46.08 48.98 61.12 65.69 66.13 65.93 62.63 61.07
34.81 33.91 38.55 38.32 38.72 37.31 35.99 32.69 37.08 30.50 32.34 28.19 32.58 35.89 38.59 40.70 41.37 42.27 40.07 40.49 39.81 42.02 42.92 42.72 42.35 40.94 39.61 39.10 39.88 39.24 36.37 35.31 36.90 37.98 39.77 43.12 43.49 45.98 50.25 55.94 59.66 59.82 59.99 61.19
38.17 32.56 37.15 37.53 38.32 38.17 36.13 38.69 30.74 32.33 21.75 22.81 30.57 31.28 33.14 36.97 37.42 39.44 38.49 38.64 39.08 41.61 41.81 41.97 40.45 39.08 39.01 38.41 38.52 38.87 37.58 34.66 35.57 36.31 37.75 40.00 42.64 44.72 47.64 51.45 53.04 55.85 57.49 57.98
38.77 35.72 34.09 36.24 34.19 34.24 34.64 33.05 33.32 33.74 32.42 25.44 24.50 31.60 39.12 37.24 38.26 38.72 39.93 40.68 39.80 40.52 41.59 41.54 40.19 40.60 39.23 37.96 36.72 37.21 36.09 35.45 34.27 35.06 37.73 38.65 39.82 42.41 44.29 47.40 50.58 52.45 54.39 55.18
38.86 35.86 31.47 32.91 37.36 38.40 37.22 35.16 34.62 28.45 26.41 30.27 28.31 28.29 40.94 40.83 40.10 39.80 39.72 40.49 40.41 41.43 41.82 41.61 40.80 39.76 36.88 35.88 35.67 34.13 34.99 34.09 34.30 34.65 37.47 37.64 36.76 39.37 42.28 45.45 47.99 51.05 52.18 53.15
38.06 33.60 28.82 29.17 34.12 36.16 33.67 35.67 35.85 33.70 31.65 26.47 24.30 28.60 40.77 38.91 38.13 39.51 39.32 39.66 40.16 40.76 41.19 40.64 39.88 38.03 34.93 34.93 35.07 33.67 34.30 34.70 34.52 35.32 35.70 37.10 36.85 35.89 39.58 41.90 45.46 47.77 49.50 50.89
39.75 34.50 31.88 28.52 31.04 35.50 30.90 33.80 35.20 33.91 28.25 29.21 29.81 31.73 35.96 37.72 37.25 37.92 38.06 38.12 39.25 39.34 39.44 39.21 37.90 38.02 37.22 36.33 35.20 34.57 34.37 34.70 34.74 34.32 34.81 35.98 36.25 36.69 38.44 41.02 41.80 44.04 46.89 47.70
37.13 30.08 32.88 33.07 33.66 33.70 33.36 33.10 33.57 31.70 32.49 28.32 31.30 31.98 35.32 36.35 37.01 36.65 37.99 37.36 37.36 37.46 37.53 37.21 36.42 36.48 36.81 35.81 35.45 33.76 33.39 33.43 34.10 33.59 34.49 35.26 36.42 37.32 37.77 39.03 40.40 41.60 42.31 45.13
37.51 31.48 31.72 29.85 33.29 33.28 31.26 33.44 33.86 33.84 33.94 33.76 33.57 32.46 38.53 38.27 38.77 37.14 37.21 35.08 35.14 35.77 35.98 36.10 35.94 35.55 35.56 34.85 34.70 33.42 32.22 33.05 33.29 32.47 32.33 34.61 35.32 35.51 36.15 37.64 39.91 40.02 40.77 41.96
35.19 33.11 30.32 26.85 32.42 32.21 27.72 32.47 33.81 34.11 33.93 32.38 28.83 34.40 37.20 35.60 35.02 35.41 35.20 34.41 34.13 35.05 35.18 35.01 35.15 34.75 35.02 34.63 35.15 33.16 32.72 33.70 33.00 32.24 31.68 33.12 33.82 34.06 34.56 35.80 37.30 38.31 38.84 39.57
34.47 33.28 32.10 27.83 29.67 20.22 32.07 38.06 36.70 32.23 34.57 36.42 34.63 34.51 34.78 35.65 36.24 37.01 35.66 35.44 34.69 35.07 34.79 34.93 35.12 34.82 35.24 35.44 35.32 34.17 34.41 33.34 32.47 31.58 30.87 31.82 32.61 33.12 34.55 35.48 35.31 36.48 37.87 37.35
38.05 34.28 29.50 25.81 26.33 30.36 31.83 34.26 33.17 32.08 32.01 36.15 33.64 34.56 35.43 37.02 37.45 34.25 36.61 36.60 35.39 35.41 35.78 35.41 35.67 35.44 35.49 35.24 34.90 34.07 33.97 33.62 31.71 30.70 30.66 31.31 32.61 32.14 32.40 32.62 33.44 34.88 35.63 36.90
36.39 36.05 31.58 28.81 23.79 21.29 32.28 35.88 37.69 36.77 27.07 36.19 35.32 33.68 33.41 35.76 30.62 33.99 36.11 36.02 36.01 36.31 35.84 35.11 35.19 35.59 35.22 35.27 34.78 33.70 33.23 32.72 30.74 29.98 31.22 32.59 32.76 32.38 32.04 33.08 33.88 34.75 34.94 35.10
29.25 30.55 27.39 28.08 26.19 29.02 36.60 37.16 38.29 25.65 28.58 35.52 35.27 35.12 33.08 31.82 33.51 35.54 35.83 34.39 35.75 35.36 35.18 35.23 34.82 34.20 34.55 35.32 34.33 32.51 32.85 30.99 31.06 31.23 32.01 32.34 32.38 32.44 33.32 33.24 34.07 33.30 33.75 33.17
28.87 27.70 27.73 28.97 25.80 22.64 38.75 36.42 30.48 35.06 35.99 35.41 35.04 34.57 32.52 34.71 35.70 34.91 34.15 34.78 35.00 34.10 34.38 34.50 33.21 33.27 34.45 34.78 33.23 31.94 31.52 31.67 31.65 31.36 31.00 31.12 31.56 31.83 31.88 31.67 31.73 31.91 31.37 30.11
29.00 33.21 31.98 31.61 32.30 37.98 39.32 38.34 39.18 38.00 36.36 34.76 34.97 35.14 35.72 35.01 33.54 33.48 33.77 34.18 34.24 33.96 33.63 33.78 32.61 32.47 33.36 33.49 32.52 30.53 30.62 30.80 29.99 29.50 28.61 29.09 30.18 29.95 29.63 28.88 29.20 28.70 29.08 28.73
35.33 37.78 33.76 32.27 35.14 37.33 37.81 38.42 38.57 37.73 35.94 36.21 37.02 36.50 35.34 33.07 32.64 32.51 33.16 33.54 33.47 33.41 32.07 32.20 31.53 30.90 30.40 31.79 31.17 30.87 29.77 29.53 28.71 28.35 29.00 29.89 29.62 29.31 29.74 30.17 30.47 29.89 28.76 27.44
37.01 36.75 34.06 32.33 35.69 36.73 37.46 38.13 36.93 35.97 36.37 36.08 36.40 34.97 32.96 32.17 31.83 31.48 31.37 31.58 31.60 30.80 30.63 30.21 29.36 28.93 28.89 29.90 29.60 29.85 28.88 28.28 26.66 27.88 29.28 29.40 29.25 28.71 29.07 29.74 29.98 29.28 29.96 27.52
38.07 35.49 32.89 33.18 37.95 36.73 37.78 37.93 37.08 35.22 34.80 35.72 34.29 33.40 32.98 31.92 30.46 30.30 29.59 30.18 28.41 27.08 27.74 26.86 26.54 26.52 26.79 27.37 27.39 27.57 27.56 26.95 25.95 25.66 27.10 27.72 28.01 28.41 28.60 28.17 27.96 29.95 29.00 28.31

GFSCGP_sfc_wetblb_150.txt.gz
Wetbulb
46.74 42.67 40.66 43.75 43.05 42.03 40.38 39.32 38.74 41.45 43.73 41.26 39.99 40.09 41.43 44.60 46.81 46.85 46.59 47.26 47.58 48.74 51.38 51.66 51.56 51.53 51.14 51.74 50.50 50.21 49.88 50.92 52.54 54.88 57.36 58.73 59.54 66.46 67.92 68.73 69.14 70.03 70.27 70.69
43.87 40.20 44.59 43.56 42.04 40.86 40.10 38.13 38.13 41.15 42.93 40.86 39.67 38.86 41.83 44.80 46.13 46.04 46.10 46.50 47.02 47.43 47.77 48.22 49.11 49.30 48.82 48.38 48.58 48.51 47.87 48.44 49.90 50.80 52.17 56.20 59.86 58.92 63.66 67.48 68.36 68.61 69.57 70.02
40.23 42.40 42.63 41.13 40.71 38.77 39.18 38.13 38.20 38.08 40.14 40.11 38.90 37.62 40.76 44.69 45.53 45.64 46.62 47.11 46.54 45.35 45.16 45.98 46.53 47.05 47.39 45.87 45.60 46.09 46.43 46.23 47.71 47.36 48.60 50.85 54.04 59.84 60.18 59.66 66.81 68.34 68.98 69.34
41.97 44.21 40.57 39.62 38.37 39.54 36.23 40.38 39.27 37.84 36.14 31.94 39.59 30.95 39.49 42.27 42.66 43.91 44.95 44.66 44.41 44.56 45.46 45.75 45.50 45.94 46.48 45.91 45.72 44.44 44.69 44.44 45.44 45.18 45.13 45.49 47.33 49.73 54.03 58.94 62.33 65.38 68.83 68.72
39.69 40.83 38.71 37.88 39.07 40.37 37.58 39.65 38.13 37.44 34.96 34.60 35.24 33.00 36.81 42.26 40.51 41.48 42.25 42.65 43.68 44.18 44.41 43.78 44.50 45.27 46.20 46.46 44.96 44.27 43.13 42.28 42.87 42.87 43.29 43.58 44.00 46.36 48.68 53.79 58.33 61.97 66.06 67.93
40.99 42.59 40.76 39.78 40.50 39.61 39.66 36.95 37.20 37.25 35.43 29.06 34.89 34.98 36.01 38.75 40.17 41.13 41.81 42.24 42.99 43.46 44.18 44.71 45.57 45.62 44.69 44.49 43.41 42.48 41.93 40.79 40.80 41.44 41.25 41.48 41.93 43.39 45.85 48.82 55.01 61.23 63.90 66.49
38.84 38.48 40.59 40.24 36.93 39.37 38.17 35.05 29.47 29.79 28.72 28.74 37.70 34.51 36.72 39.73 41.62 41.17 40.48 41.50 42.92 43.70 43.60 43.75 43.19 42.65 41.96 41.14 40.79 40.43 40.04 39.33 39.32 38.65 40.00 40.04 40.66 42.69 44.74 46.80 52.11 55.71 62.67 63.87
34.31 31.60 37.94 40.15 37.44 36.55 37.59 35.50 29.30 23.65 27.15 29.81 36.45 31.17 34.45 41.67 42.75 42.28 42.30 42.24 41.70 41.69 43.06 42.83 42.77 41.70 40.42 40.35 39.56 38.79 38.57 37.83 38.39 37.09 37.92 39.63 39.88 41.59 43.80 44.89 49.76 52.89 60.32 62.94
35.26 35.08 39.77 39.97 40.26 38.15 35.80 31.80 37.59 31.29 32.07 27.83 31.41 35.92 38.59 41.74 40.81 40.92 40.25 40.74 40.00 41.53 42.11 42.42 42.57 41.91 40.69 39.69 38.91 38.18 37.27 37.00 37.26 37.04 36.68 37.97 39.04 39.05 41.69 43.84 47.51 50.83 54.27 58.42
38.24 31.93 37.84 38.21 38.75 38.40 35.86 38.47 30.37 31.25 22.45 22.49 30.12 32.21 32.25 36.77 37.89 39.97 39.64 39.79 40.43 41.31 41.82 42.35 42.42 42.12 41.24 39.48 38.21 38.10 36.65 35.80 35.91 35.91 36.64 37.64 38.35 38.59 39.20 43.25 43.80 46.59 50.19 53.19
39.24 36.57 35.20 37.71 34.32 33.75 34.52 32.48 33.55 33.28 31.98 25.01 23.73 29.06 38.74 37.53 38.53 37.94 38.92 40.18 40.42 40.55 41.45 42.08 41.93 42.16 40.20 38.88 37.12 36.33 35.87 34.42 34.85 35.15 36.28 36.55 36.75 38.19 37.82 41.57 43.06 43.33 47.58 52.02
39.25 36.41 31.06 33.34 38.56 39.25 37.52 35.59 35.42 28.84 27.18 31.05 29.01 27.93 41.06 39.91 39.54 39.49 39.01 40.07 40.58 41.18 41.39 41.69 41.40 40.59 38.41 37.10 36.59 35.46 34.92 33.95 34.64 35.30 35.91 36.93 37.22 36.98 37.74 38.26 41.82 42.70 43.21 49.23
38.86 32.98 28.02 30.91 34.37 37.16 33.44 35.25 36.12 35.06 32.04 27.09 23.51 26.67 40.51 39.78 39.49 39.98 38.50 39.18 39.64 39.95 40.24 40.44 39.91 38.06 35.29 33.84 35.74 35.84 34.45 34.25 34.57 35.23 35.05 36.32 36.22 35.77 36.32 36.61 39.31 41.82 42.23 44.23
40.40 34.07 31.34 27.76 31.38 34.94 31.46 33.56 35.36 34.02 27.14 27.45 28.62 30.96 34.87 36.42 36.85 37.56 37.60 38.79 38.34 38.53 38.71 38.49 37.80 37.41 35.29 35.91 34.89 35.73 34.06 34.35 34.73 34.56 34.43 34.51 35.21 35.13 35.86 35.98 37.50 39.22 41.46 41.91
37.11 29.50 32.47 33.58 34.76 34.29 34.58 33.47 33.72 32.39 32.62 27.77 30.65 31.20 34.88 36.71 36.79 37.54 38.28 37.80 36.65 36.69 37.00 36.78 36.39 36.32 35.87 35.54 35.35 35.32 34.11 34.44 34.41 33.62 33.17 33.30 34.44 34.89 35.57 35.87 36.48 37.26 39.26 39.86
36.32 29.83 32.32 30.03 33.80 33.55 31.40 33.09 33.98 33.81 33.61 32.75 32.95 32.39 37.90 38.67 38.60 36.89 36.72 35.88 35.14 35.51 36.01 36.02 35.75 35.46 34.94 34.79 34.37 34.43 33.73 34.21 34.48 33.26 32.28 33.08 33.15 33.95 34.13 35.34 36.05 36.32 37.12 38.95
33.80 31.60 30.18 25.15 32.04 31.49 26.86 31.30 32.71 33.45 35.37 33.87 29.11 34.57 37.57 35.77 35.95 35.62 35.76 35.56 35.01 35.14 35.28 35.20 34.82 34.71 34.84 34.67 34.65 33.26 33.83 35.02 33.76 32.43 32.35 32.69 32.84 32.79 33.36 34.35 34.56 35.14 35.65 37.26
33.40 32.38 31.98 26.95 30.29 19.82 32.34 38.18 37.52 35.06 35.49 36.57 35.82 36.47 36.37 36.24 37.33 37.91 37.28 36.03 35.13 35.03 35.06 35.12 34.84 34.58 35.16 35.46 34.60 34.01 34.87 34.12 32.91 31.63 31.29 32.44 32.65 32.21 33.10 33.19 33.15 34.44 34.46 35.27
38.07 34.16 29.07 24.97 25.38 29.66 32.56 34.92 33.81 32.03 31.90 37.70 36.20 36.02 36.59 37.57 37.69 36.28 38.11 37.27 35.51 35.80 35.79 35.42 35.29 34.91 35.27 34.69 34.65 33.57 33.55 33.40 31.50 30.46 30.44 31.55 32.03 31.77 32.09 32.17 32.08 32.98 33.21 33.08
36.57 36.79 31.54 28.54 22.76 20.69 31.64 36.67 39.06 37.46 25.89 37.98 36.80 35.22 34.59 35.70 29.61 33.04 36.55 36.54 35.15 35.87 35.51 34.80 34.76 34.58 34.53 34.27 34.45 32.86 32.03 31.22 29.41 29.83 30.70 31.65 31.61 31.17 31.04 30.97 31.25 31.79 32.05 31.51
29.62 30.67 27.36 27.42 25.65 29.70 36.58 37.68 38.43 24.84 28.05 36.80 36.40 35.87 34.87 31.98 33.95 36.20 37.22 35.23 36.42 35.99 35.11 35.25 34.47 33.18 33.29 34.02 33.28 31.09 31.28 29.04 30.03 30.43 30.68 30.63 30.90 30.45 30.61 29.92 30.48 30.06 29.93 29.96
28.43 27.22 26.61 27.87 24.99 22.92 39.37 36.82 30.27 35.10 37.39 36.72 35.68 35.43 34.40 34.92 36.37 36.14 35.16 34.80 35.08 34.36 34.46 34.04 32.48 32.08 33.16 32.99 31.67 29.93 29.06 29.77 30.00 29.87 29.28 29.49 30.02 29.96 29.73 28.99 29.64 29.85 28.92 27.69
27.80 32.87 30.63 32.03 31.28 39.21 40.26 39.29 40.32 39.75 37.66 36.14 35.61 35.51 36.23 35.82 35.25 34.26 33.56 33.85 33.70 33.64 32.58 32.46 31.03 30.84 31.74 31.51 30.74 28.59 28.55 28.97 28.62 28.15 27.87 28.99 29.68 29.24 29.61 28.65 28.64 28.49 28.50 26.61
34.70 38.03 34.76 33.70 36.10 37.42 38.27 39.80 39.65 39.24 37.40 37.33 37.30 36.98 36.50 34.12 33.58 32.97 32.40 32.15 31.61 31.25 30.10 30.11 29.06 27.98 27.59 28.99 28.93 28.57 28.27 28.25 26.97 26.69 26.56 28.08 27.85 27.96 28.85 28.80 28.81 27.96 27.38 25.49
36.96 36.87 34.28 32.89 36.14 38.07 38.53 38.98 38.35 37.10 37.32 36.73 37.22 35.89 33.98 33.03 32.29 31.54 30.53 30.09 29.09 27.65 27.96 27.35 25.96 25.06 25.40 26.65 26.54 27.21 26.74 26.64 25.38 25.75 25.97 26.65 27.12 27.29 27.24 27.78 27.52 27.54 28.76 27.46
38.52 35.36 33.06 32.08 37.82 36.31 37.45 38.46 38.34 36.27 35.31 36.20 35.48 34.75 34.48 33.07 30.81 30.54 29.39 28.53 25.41 24.71 24.99 24.01 23.50 23.02 23.93 24.19 24.24 25.22 26.02 25.53 25.31 24.41 25.28 26.49 26.37 26.00 26.85 26.38 26.57 29.33 29.13 28.97

GFSCGP_sfc_wetblb_153.txt.gz
Wetbulb
42.76 36.47 34.70 37.62 39.77 39.55 38.20 36.55 34.30 35.98 39.44 36.87 35.79 35.11 36.61 38.03 41.29 40.85 42.29 42.24 42.41 42.98 45.39 45.95 45.95 45.58 44.55 44.24 43.82 43.86 43.37 44.25 44.19 44.32 43.27 45.24 47.27 50.02 55.82 61.89 62.87 62.37 67.10 68.15
38.81 36.25 41.68 42.67 41.45 39.18 37.72 35.74 34.08 37.29 40.23 37.11 34.25 33.05 36.22 38.75 40.52 41.77 41.37 40.85 41.21 42.01 43.41 44.73 44.51 43.86 42.67 42.66 42.80 42.57 42.18 41.82 42.49 42.37 42.64 44.27 45.52 49.47 52.03 55.17 53.07 56.88 63.65 67.18
36.37 40.20 42.31 41.04 39.18 38.16 36.08 34.90 34.62 34.70 36.57 35.38 33.57 31.38 34.69 40.02 42.42 43.11 42.25 42.15 42.18 41.58 41.37 42.73 43.40 42.11 41.50 41.33 41.39 41.83 41.72 41.08 41.16 41.08 41.79 41.99 44.25 45.78 47.10 47.23 49.15 52.32 55.19 57.82
38.32 42.63 40.08 38.10 37.43 37.73 33.25 38.33 37.64 35.87 32.13 26.46 33.45 23.64 33.94 38.48 38.51 39.87 39.98 39.44 39.33 40.03 41.03 41.63 41.19 41.19 41.11 40.54 40.91 40.90 41.05 40.84 41.04 39.51 39.47 38.72 39.33 40.26 43.46 44.28 47.81 48.81 53.62 56.69
36.61 37.23 36.51 35.86 37.66 39.24 35.64 37.78 35.72 34.81 30.69 27.62 30.23 26.70 30.20 38.91 35.83 36.16 37.56 39.09 38.76 39.56 40.15 40.12 39.63 40.10 39.69 39.34 38.60 39.28 40.45 40.41 39.80 38.61 38.59 37.88 37.58 38.86 41.78 43.92 45.12 47.61 51.39 54.13
37.94 38.96 37.14 36.74 38.83 37.88 37.86 34.96 33.51 32.13 30.14 22.76 30.43 29.08 27.33 33.46 35.44 36.40 38.25 39.23 39.76 39.23 39.33 39.82 40.23 39.75 38.12 37.80 37.33 37.42 37.39 38.86 38.95 39.18 37.84 36.89 36.76 37.40 38.60 41.28 43.17 45.14 48.89 51.57
36.22 35.89 37.58 39.18 34.25 36.36 34.86 30.11 21.75 21.29 20.68 21.13 33.58 30.20 30.58 36.54 38.06 38.08 37.50 37.44 37.77 38.44 38.17 37.55 37.02 36.63 37.79 36.50 36.22 37.22 36.05 35.76 37.13 37.31 37.53 36.33 36.78 37.13 37.35 39.44 42.07 43.43 46.29 49.52
29.94 27.79 35.42 37.53 35.11 32.66 32.41 31.17 21.52 18.74 19.85 22.81 33.33 26.01 30.16 37.59 39.11 39.33 39.30 37.84 37.97 36.78 37.68 37.24 37.49 36.99 36.77 36.34 35.45 35.15 34.81 34.47 35.85 35.78 36.29 36.28 36.54 37.51 38.38 39.29 39.67 42.91 44.86 46.52
31.37 32.40 37.03 38.20 38.57 36.63 33.35 27.66 33.28 26.85 26.63 21.52 26.04 31.62 36.59 38.30 37.49 37.82 36.88 37.20 35.21 36.20 37.32 37.68 38.17 37.80 36.43 35.14 34.56 33.82 33.60 33.90 34.68 35.27 35.41 35.87 35.94 36.52 37.55 38.80 39.72 42.26 44.20 45.31
35.28 28.66 36.46 36.52 37.65 36.47 33.87 35.01 25.49 24.93 18.74 17.74 22.99 26.37 27.61 33.90 35.22 37.07 35.49 35.28 36.22 37.50 38.05 38.52 38.14 37.23 36.40 34.93 33.96 33.51 33.24 33.08 34.69 33.84 35.22 36.15 36.94 37.73 37.39 38.37 38.08 39.63 42.71 44.17
35.46 32.98 31.98 34.58 31.86 30.58 30.36 28.91 30.32 29.45 25.36 19.87 18.55 22.03 35.49 35.21 36.25 35.24 35.79 37.16 35.90 35.92 36.42 37.28 37.25 36.54 35.92 35.10 33.90 33.19 32.44 32.41 32.72 33.02 35.05 34.87 36.32 36.57 36.60 36.91 36.75 38.65 40.82 43.21
36.59 32.88 27.89 31.34 36.44 37.16 34.88 32.64 30.74 20.48 21.25 22.61 20.08 21.89 36.88 36.18 36.51 36.47 36.79 38.37 36.65 37.01 36.50 36.47 36.25 35.31 34.14 34.39 34.24 33.52 32.17 31.48 32.60 33.28 34.30 33.83 34.66 35.83 35.63 36.21 36.21 36.98 38.63 42.31
35.97 28.74 24.35 27.81 31.06 34.56 31.33 33.05 34.07 31.85 27.04 23.88 16.69 22.21 37.11 38.01 36.45 36.79 35.28 36.07 35.85 36.71 36.25 35.51 35.10 33.47 31.73 32.65 33.91 33.09 31.68 31.32 33.01 33.92 34.32 33.30 33.36 34.40 34.85 35.39 35.41 35.93 37.13 40.22
39.10 31.62 27.48 22.67 28.50 31.01 27.53 31.60 32.83 31.46 22.38 22.97 22.93 25.92 33.50 34.50 34.85 35.67 35.24 34.23 34.26 34.88 35.99 34.60 33.42 33.01 30.67 31.41 29.94 31.12 31.11 32.47 33.53 33.55 33.38 33.10 33.28 33.64 34.96 35.06 36.04 36.27 36.37 38.01
34.13 25.59 29.19 30.96 32.70 33.31 31.87 31.74 31.97 29.75 29.94 24.01 27.99 29.26 33.58 33.87 33.59 33.91 35.00 35.26 34.92 35.05 34.89 33.99 32.76 31.78 31.77 31.66 31.42 31.65 31.99 33.03 33.89 32.18 31.49 31.85 33.70 33.98 34.09 34.39 34.98 35.55 36.53 37.26
33.47 23.79 27.58 25.56 32.45 33.49 30.16 31.61 31.80 31.99 32.18 30.83 31.15 30.62 35.15 35.32 34.88 33.94 34.27 33.99 33.64 33.44 33.84 34.00 33.70 33.05 32.48 32.20 31.02 31.40 31.88 32.70 33.38 31.48 30.65 32.05 33.04 33.16 33.28 33.38 33.54 34.78 34.84 36.38
29.58 27.89 27.15 22.88 31.01 29.95 23.64 29.10 31.21 31.89 32.42 30.98 26.07 31.83 33.99 33.01 33.74 32.75 32.37 33.23 32.64 33.22 33.48 33.24 32.37 31.83 31.96 31.09 31.94 30.30 31.58 32.90 31.46 30.59 30.73 31.20 32.02 31.74 32.03 32.93 32.65 32.52 32.81 33.55
29.71 28.57 28.16 23.65 26.57 18.33 29.10 35.94 35.88 33.68 35.08 34.90 34.57 33.40 33.20 33.19 33.56 33.36 33.65 32.07 32.21 33.05 32.63 32.22 30.90 30.57 30.45 30.80 31.08 31.21 32.06 30.94 29.97 29.21 29.48 30.27 30.50 30.48 31.21 30.68 30.53 30.87 31.77 31.22
34.40 29.71 24.40 19.74 22.31 27.02 30.99 33.60 33.10 31.39 30.28 35.72 33.52 33.29 33.59 34.50 33.90 32.45 35.00 33.51 31.75 31.84 31.43 30.77 30.55 30.33 29.69 29.74 30.66 30.75 30.51 29.50 28.55 27.82 28.31 28.98 29.76 29.11 29.76 28.45 28.83 29.39 29.48 29.61
34.94 32.91 25.30 23.70 19.39 14.28 26.83 34.80 37.98 36.09 21.79 34.61 34.57 32.38 32.12 32.65 24.50 29.63 32.79 32.97 32.21 32.03 31.36 30.38 30.09 29.92 29.43 29.27 29.55 29.07 27.94 27.02 26.41 27.10 27.70 28.77 30.19 29.18 28.76 28.38 28.56 29.73 29.06 28.43
24.67 24.21 19.45 23.00 17.64 24.35 33.60 36.02 37.82 22.91 22.12 33.97 34.04 32.49 30.43 25.76 27.52 32.53 33.06 32.20 32.34 31.85 31.24 30.63 29.12 27.53 27.69 29.10 28.73 26.86 26.67 25.28 26.95 27.63 28.11 28.26 30.33 28.89 29.16 28.56 28.79 29.18 28.45 27.68
20.63 19.56 18.73 21.47 14.83 15.26 37.04 35.47 27.39 30.24 34.31 33.60 32.52 32.54 31.48 31.71 33.96 33.09 31.87 31.28 30.95 29.12 29.50 29.13 27.34 27.13 27.59 27.40 26.95 25.42 24.55 26.15 26.40 26.75 27.02 26.91 28.90 28.55 29.05 27.55 27.69 27.63 27.55 25.28
20.55 23.72 22.08 23.88 24.25 35.06 37.70 35.52 36.94 36.93 33.19 32.57 32.37 33.98 33.64 34.64 31.04 31.27 29.38 29.14 28.39 27.48 26.79 27.41 25.72 25.49 26.08 25.91 25.55 23.76 24.18 25.07 24.86 25.53 25.53 25.66 27.67 27.73 27.71 26.67 26.17 25.60 26.80 24.54
30.76 34.81 24.73 27.61 32.65 34.76 35.91 37.07 36.77 36.22 34.09 34.82 36.01 36.37 32.82 29.97 30.47 28.71 28.18 26.24 24.66 25.34 24.63 25.08 23.76 22.44 22.32 24.03 24.13 23.84 24.66 24.55 23.67 23.15 21.98 23.63 24.06 25.19 25.41 25.83 25.58 24.82 25.05 24.09
29.58 33.73 29.50 29.20 33.87 36.15 35.86 35.31 34.66 34.40 34.98 35.27 36.00 33.07 31.45 30.31 28.40 27.69 25.62 23.49 23.13 23.20 22.62 22.35 20.96 20.68 21.44 21.93 22.42 23.37 24.15 23.52 23.65 22.49 20.82 21.80 23.40 20.94 22.70 23.31 23.80 25.43 24.52 26.50
33.79 31.04 27.55 24.87 32.16 31.55 33.28 34.09 35.57 33.66 34.00 35.31 34.31 32.23 30.17 28.51 26.68 26.38 23.19 22.65 22.06 20.99 20.19 19.41 19.42 20.51 20.02 20.93 22.17 23.69 22.91 23.02 24.30 21.19 20.97 22.82 24.37 21.49 22.49 22.33 22.23 26.20 27.23 27.72

GFSCGP_sfc_wetblb_156.txt.gz
Wetbulb
40.41 34.55 32.33 36.07 37.92 38.68 37.11 35.00 32.92 34.16 37.18 35.49 33.10 33.05 35.74 39.45 40.63 38.95 38.40 39.06 39.91 40.84 42.64 43.41 43.05 42.73 42.10 41.89 41.65 41.22 41.15 41.15 40.82 39.38 38.86 39.97 39.84 41.81 45.48 47.64 49.95 49.26 51.93 53.57
36.67 33.14 38.90 40.83 40.02 37.92 36.09 34.36 33.17 36.01 38.18 35.63 31.48 30.98 35.71 38.24 38.80 38.74 38.59 37.97 38.53 39.42 40.72 42.27 41.61 40.89 40.36 39.79 40.10 39.85 39.77 40.11 40.07 39.00 38.65 39.81 39.87 41.92 43.08 45.61 45.68 47.46 49.33 49.89
33.73 38.16 42.10 40.60 38.01 36.46 34.36 33.19 32.85 33.14 34.81 34.03 32.14 30.47 33.72 38.95 39.69 40.38 40.01 39.66 39.59 38.56 38.49 40.20 39.95 39.05 38.18 37.95 38.27 38.71 38.97 39.33 39.42 39.32 38.63 38.46 39.62 40.26 39.90 40.32 42.38 44.74 46.76 48.96
35.82 40.37 39.69 36.45 35.96 36.23 31.34 36.61 36.11 33.82 30.74 26.78 31.81 23.52 30.86 36.02 36.09 37.62 37.74 36.54 36.92 37.74 39.04 39.49 38.15 37.48 37.45 36.34 37.05 37.41 38.00 37.87 38.95 38.37 37.52 36.32 36.09 35.88 38.72 39.61 40.93 42.31 45.18 47.08
35.47 35.49 35.67 34.46 36.05 37.43 33.76 36.62 34.05 32.79 28.26 25.08 28.14 24.30 26.52 35.09 32.56 34.29 35.45 36.87 36.53 37.12 37.24 36.87 36.93 37.51 36.99 36.51 35.56 35.99 36.37 36.79 37.24 36.88 36.85 36.88 35.44 35.46 37.94 39.22 39.47 40.43 43.26 45.11
36.21 37.48 36.30 35.58 37.02 36.36 36.72 33.80 32.03 29.68 27.40 21.06 27.41 26.55 24.79 29.92 32.83 34.62 36.11 36.88 37.47 37.00 37.31 37.08 37.60 37.60 36.62 35.24 34.41 33.92 34.23 34.66 35.58 35.73 35.97 35.28 35.37 34.93 35.74 36.24 38.03 39.80 40.30 42.99
34.02 34.44 35.38 37.74 33.60 34.98 33.42 28.86 21.66 20.70 19.99 20.83 30.82 26.62 27.76 33.98 36.06 36.21 35.37 35.53 36.48 36.32 36.35 35.74 35.90 35.93 35.84 34.43 33.62 34.75 33.76 33.42 34.23 34.37 34.81 34.50 35.90 35.76 35.26 35.00 37.39 38.42 39.30 41.85
28.09 26.69 33.59 36.52 34.40 31.77 31.05 29.75 21.79 19.22 19.08 22.12 30.79 24.52 28.89 36.01 37.06 37.80 37.88 36.56 37.16 35.75 35.93 35.87 36.08 35.12 34.60 34.14 33.09 32.50 32.72 32.82 33.58 33.63 33.61 34.32 36.33 36.32 36.13 35.73 36.35 37.38 38.80 40.48
29.50 30.12 34.89 36.36 36.60 35.65 31.46 27.20 32.00 25.72 24.92 21.25 25.15 30.49 35.13 36.48 35.58 36.31 35.28 35.63 33.86 34.44 35.46 35.87 36.13 35.26 33.92 33.00 32.77 32.13 31.92 32.04 32.88 32.95 33.21 33.65 34.67 36.18 36.26 35.37 36.82 35.90 38.19 40.35
35.36 28.00 33.78 34.74 36.16 34.99 33.15 34.01 25.20 23.63 18.37 17.11 20.81 25.32 25.63 32.24 33.63 35.50 33.79 33.62 34.14 35.37 36.81 37.05 35.50 34.56 34.08 33.33 32.81 32.55 32.15 31.68 32.26 32.15 32.77 33.93 33.47 34.70 35.71 35.88 36.01 35.57 37.03 38.48
35.90 31.62 30.28 33.73 31.21 29.82 29.46 27.71 29.11 28.17 24.45 19.96 18.28 21.81 33.56 34.51 35.22 34.01 34.36 34.90 34.29 34.76 35.69 35.15 35.24 34.57 34.13 33.79 32.82 32.50 31.62 31.14 30.96 31.63 32.58 33.06 32.87 34.01 34.67 35.26 35.56 35.50 37.03 37.62
36.27 32.26 26.54 30.16 34.98 35.39 32.77 30.34 28.32 18.63 19.70 20.90 19.10 21.29 34.92 34.26 34.79 34.90 35.32 36.48 35.46 35.44 34.62 34.12 34.41 33.19 32.10 32.07 32.04 31.79 31.35 30.37 31.39 32.13 32.76 33.06 33.20 34.04 33.99 33.91 35.33 36.42 36.06 37.29
34.84 28.44 22.78 26.11 29.79 32.79 29.76 31.65 32.46 28.29 26.20 23.49 17.17 21.96 36.02 35.90 34.76 35.35 34.02 34.89 35.26 34.48 34.34 33.20 32.88 30.84 28.70 29.26 30.40 31.20 30.89 30.36 31.45 32.00 31.96 32.03 32.61 33.30 33.39 34.16 35.30 36.08 35.93 36.24
38.28 30.40 28.14 24.98 27.42 29.18 26.43 29.82 32.16 29.85 21.84 23.42 23.41 26.04 31.79 32.91 33.28 34.17 33.71 33.57 33.08 34.16 33.89 32.83 31.68 30.95 28.60 29.36 27.39 28.98 29.93 30.57 31.57 31.45 30.87 30.77 31.56 32.85 33.32 34.41 34.90 34.55 35.75 35.54
33.17 26.53 28.58 29.17 31.42 31.37 29.76 29.82 29.66 28.50 28.45 23.87 26.83 28.50 31.20 33.81 33.76 33.31 34.00 34.00 33.52 33.21 33.32 32.51 30.87 29.91 30.16 30.32 29.70 29.95 30.16 31.02 31.01 30.09 29.95 30.48 31.65 32.21 32.44 33.59 33.83 34.75 34.52 34.63
31.59 23.24 27.22 25.11 30.20 31.20 28.40 29.82 29.93 30.69 30.31 30.12 30.12 28.25 33.17 33.69 33.44 32.07 32.45 32.51 31.68 31.86 32.21 32.30 31.58 31.01 30.57 30.29 29.85 30.02 29.77 30.65 30.44 29.20 29.19 30.37 30.45 30.83 31.12 31.00 31.40 32.20 33.58 33.16
28.76 27.63 25.08 22.53 28.82 28.88 23.59 27.56 29.80 30.18 31.01 29.64 24.52 30.11 32.29 31.40 32.12 30.92 31.07 31.43 30.76 31.49 31.34 30.88 30.15 29.88 29.60 28.85 29.94 28.35 29.33 29.82 28.97 28.22 28.86 28.85 29.56 29.81 30.07 29.98 29.95 30.08 29.70 30.64
28.07 27.30 26.40 23.36 25.05 17.34 27.67 33.61 33.57 30.94 32.29 32.48 31.49 31.69 32.21 31.25 30.99 30.95 30.98 29.82 30.31 30.79 30.35 30.21 28.94 28.22 28.07 28.03 28.52 28.55 28.79 28.05 27.60 26.62 27.17 27.90 28.34 29.02 29.49 28.97 28.66 29.38 29.46 28.30
33.17 28.22 24.47 20.51 21.14 25.26 28.75 31.57 31.08 30.05 28.38 33.02 31.21 31.63 31.83 32.48 31.39 28.83 32.08 31.69 30.28 30.30 29.43 28.12 27.81 27.65 26.94 27.00 27.67 27.78 26.55 26.37 26.10 25.48 25.96 26.88 27.77 27.97 28.54 27.39 27.55 28.71 28.91 27.53
32.88 30.62 24.62 23.09 18.20 13.97 25.08 32.51 36.16 34.39 20.79 32.94 33.22 31.37 31.14 31.20 24.17 25.54 30.24 30.76 29.87 28.52 27.80 26.66 26.81 26.79 25.79 25.60 26.34 25.58 24.74 24.43 23.73 24.64 25.82 26.49 28.37 27.76 27.87 27.14 27.23 28.05 29.06 26.30
24.30 23.52 19.26 21.95 13.36 23.20 31.66 34.47 36.08 23.68 22.77 32.81 32.73 31.00 29.59 25.46 26.64 30.88 30.32 28.30 28.26 27.28 26.84 26.84 25.97 24.45 23.94 25.36 25.17 23.86 23.11 22.65 24.06 25.22 25.91 26.01 27.26 27.29 27.93 26.82 27.11 26.54 27.29 26.26
20.69 18.74 17.66 20.08 14.13 16.76 35.12 34.03 27.80 28.69 32.87 32.23 31.29 30.79 30.07 30.76 31.12 29.54 28.11 26.39 25.88 24.59 24.70 24.98 23.59 23.09 23.72 23.99 23.55 21.99 21.60 23.61 24.28 24.74 24.66 24.76 25.52 26.45 26.37 25.86 25.82 25.96 25.98 24.98
19.81 22.69 21.48 23.46 22.78 32.21 35.45 34.08 35.36 34.86 31.81 31.12 31.29 32.52 32.47 29.61 27.92 27.28 24.86 24.30 24.13 23.42 22.46 22.96 21.70 21.50 22.37 22.49 22.85 20.77 22.60 23.00 23.53 23.90 22.81 23.03 24.35 25.71 24.78 24.73 24.76 24.76 25.53 24.33
28.50 32.16 24.52 26.29 31.01 32.76 33.72 35.28 35.40 34.79 32.97 33.62 33.53 31.47 30.37 27.42 27.00 24.29 23.15 22.33 21.87 21.53 20.54 20.95 20.23 20.40 19.50 21.25 22.46 22.08 22.59 22.87 22.54 21.65 19.20 20.36 20.90 23.46 22.17 23.48 23.84 23.94 23.39 22.94
29.46 31.51 28.41 26.16 32.67 33.99 34.15 33.58 33.80 33.60 33.62 32.14 32.17 30.71 28.52 26.87 24.77 23.34 21.89 21.25 20.99 20.05 19.43 19.37 19.29 20.13 19.08 20.52 21.68 21.03 21.32 21.80 22.24 20.61 18.48 18.75 20.90 15.41 18.24 21.09 17.00 22.17 21.81 24.98
32.03 29.28 24.60 22.86 31.71 30.58 31.55 32.65 34.24 32.56 32.15 32.53 27.89 26.38 26.67 25.83 23.48 22.52 20.74 21.10 19.83 18.63 18.67 18.46 19.11 19.86 19.46 20.08 20.68 20.17 20.82 21.05 21.08 19.97 18.95 19.25 19.71 18.47 18.87 16.54 17.40 24.40 25.03 25.62

GFSCGP_sfc_wetblb_159.txt.gz
Wetbulb
38.71 33.91 31.24 34.22 35.74 36.45 35.09 32.48 30.74 32.30 36.27 34.22 32.54 32.83 35.26 38.35 37.66 36.85 36.59 37.24 37.92 38.97 40.75 40.84 40.60 39.19 38.64 38.67 38.52 38.56 38.40 38.97 38.76 37.90 37.00 37.96 37.59 39.14 40.57 42.05 42.61 43.47 44.70 45.94
35.16 31.81 37.32 38.32 38.03 36.58 35.22 32.47 30.98 33.34 36.16 34.53 30.32 31.49 34.44 37.37 37.02 36.95 36.91 36.89 37.21 37.55 38.67 39.72 38.69 37.46 36.72 36.57 37.11 37.22 36.94 37.78 37.75 37.36 37.53 37.40 37.39 39.20 39.61 40.76 41.16 42.47 42.58 43.72
32.46 36.59 40.27 38.51 36.92 35.06 32.81 31.50 31.03 31.74 32.98 32.28 30.35 29.59 33.11 36.64 37.95 38.76 38.22 37.96 37.78 36.80 36.69 37.73 38.04 36.36 35.04 35.09 35.58 35.84 35.73 36.40 37.33 37.12 37.23 37.20 37.86 37.77 37.24 37.85 39.13 40.29 41.38 42.86
34.50 38.56 38.10 36.24 35.42 35.03 30.38 35.07 34.89 32.76 30.07 26.02 29.69 23.47 28.74 33.79 34.49 35.98 36.02 35.06 35.22 36.31 37.05 37.31 36.11 34.82 34.11 33.89 34.25 34.63 35.46 35.03 36.49 36.07 35.33 34.16 34.25 34.53 36.19 37.22 38.44 38.88 40.55 41.55
34.05 34.30 34.54 34.00 34.87 36.04 32.89 35.51 33.15 31.65 27.33 24.64 26.33 24.89 24.14 33.40 31.50 32.91 33.87 35.21 35.31 35.75 35.78 35.50 34.80 34.96 33.78 33.73 32.55 33.21 34.26 34.58 34.76 34.92 34.47 33.90 32.94 35.20 36.72 37.30 37.22 37.74 39.05 40.21
35.30 36.36 34.93 35.17 35.49 35.60 35.65 33.04 30.86 28.22 26.22 21.12 26.97 26.79 23.13 28.52 31.40 33.33 34.83 35.98 36.52 36.20 35.46 35.84 36.08 35.62 33.39 32.83 32.30 32.22 32.42 32.61 33.51 33.59 33.23 32.84 32.29 33.89 34.96 35.64 35.25 35.92 37.18 38.34
32.62 33.11 34.48 36.99 32.89 34.16 32.12 28.60 22.10 20.83 19.77 20.52 27.91 24.86 25.48 32.23 34.75 35.20 34.75 34.90 35.86 35.37 34.32 34.62 34.50 34.07 33.64 32.46 31.90 32.76 31.79 31.64 32.52 32.60 32.68 32.69 32.87 33.51 33.61 35.85 34.46 34.41 35.09 35.97
29.08 26.55 32.62 35.87 34.44 31.94 30.02 29.43 22.81 19.16 18.82 21.11 28.44 21.94 27.08 34.56 36.23 36.84 36.76 35.46 36.12 34.04 34.85 34.31 34.10 33.09 32.18 32.57 31.90 31.36 31.32 31.26 31.83 32.23 32.36 32.83 33.03 32.85 33.57 34.34 35.16 35.00 35.46 35.52
28.21 29.91 34.05 35.10 35.73 36.05 30.85 27.69 32.13 25.41 24.22 20.26 22.92 28.77 32.77 34.30 34.12 35.14 34.02 34.74 33.75 33.57 34.09 34.27 34.08 33.16 32.45 32.02 31.88 31.33 30.86 30.77 31.21 31.56 32.09 32.46 33.18 32.61 33.06 33.55 35.26 35.48 35.50 35.37
34.50 27.29 32.49 34.09 35.67 35.32 33.18 33.90 24.96 24.38 19.62 16.87 19.36 24.08 23.61 30.76 32.19 34.09 32.93 32.66 33.44 34.08 34.79 34.80 33.45 32.98 32.80 32.34 31.83 31.95 31.44 30.45 30.79 30.67 31.77 32.50 32.87 33.07 34.27 33.89 34.28 34.98 34.76 35.56
35.56 30.61 29.09 32.97 30.59 29.29 29.22 26.57 27.46 27.67 24.74 19.95 18.08 21.40 31.33 33.42 34.35 33.39 33.20 34.26 33.20 32.96 33.76 34.41 33.29 33.09 32.37 31.92 30.87 31.21 31.21 30.21 30.01 30.46 31.51 31.66 32.21 33.04 33.38 33.93 34.41 34.92 35.73 35.50
35.53 31.49 24.64 28.69 33.38 33.56 30.62 28.60 27.62 20.03 20.52 21.25 20.47 23.04 33.56 34.33 34.79 34.71 34.29 34.93 33.49 33.83 33.10 32.94 32.66 31.35 30.67 30.67 30.13 29.66 29.78 29.27 30.03 30.97 31.04 30.87 31.27 31.94 32.34 33.21 34.23 35.41 34.63 36.40
34.58 28.83 22.70 24.44 28.22 30.80 28.66 29.95 29.84 27.15 25.35 22.89 17.72 21.37 33.49 34.11 33.99 34.61 33.32 33.65 33.69 33.14 32.37 31.60 31.18 29.25 27.02 27.61 28.64 29.14 28.88 28.74 30.16 30.41 29.93 29.73 30.33 30.93 30.79 32.03 33.93 33.58 34.32 34.64
39.40 30.15 28.05 25.09 26.67 27.71 26.12 28.40 30.02 27.95 21.44 23.75 23.80 24.43 30.38 31.27 32.38 32.99 32.79 32.84 32.22 32.30 32.05 30.90 29.89 29.46 27.30 27.63 25.71 27.11 27.67 28.96 29.62 29.53 29.04 28.61 29.49 30.08 30.69 31.65 31.08 32.39 33.20 33.18
34.06 28.50 28.72 28.38 30.06 29.94 28.79 28.04 28.95 27.64 28.30 24.09 27.38 26.51 30.75 32.70 32.72 33.18 32.87 32.50 31.99 31.68 31.63 30.63 29.10 28.51 28.43 28.62 28.66 28.83 28.80 29.09 29.06 28.16 27.49 27.88 29.23 30.27 30.59 30.49 30.28 31.42 31.85 31.47
32.50 24.55 26.69 25.23 28.60 29.21 26.69 28.03 28.40 28.37 28.29 27.54 28.05 26.70 31.88 36.18 33.52 31.45 31.83 31.62 30.53 30.74 30.79 30.36 29.71 29.39 28.67 28.43 28.13 27.79 27.97 27.65 28.30 26.92 26.50 27.86 28.45 29.38 29.25 29.49 29.42 30.04 30.96 30.44
28.84 27.39 25.01 23.03 27.28 26.75 23.87 26.39 28.39 28.60 29.17 28.76 24.89 29.29 30.91 30.63 31.83 30.39 29.86 30.19 29.75 30.39 30.02 29.55 28.48 27.71 27.67 26.61 27.80 26.51 26.54 27.32 26.45 25.69 25.93 26.53 27.39 28.47 28.25 29.07 28.49 28.35 29.28 28.60
29.44 28.65 27.32 24.08 25.15 18.39 27.32 32.06 32.24 29.87 30.21 29.84 29.41 29.87 30.99 30.07 29.41 29.72 29.65 28.81 29.64 29.70 29.17 27.76 26.34 25.63 25.44 25.58 25.91 26.63 26.31 25.64 25.01 24.40 24.99 25.69 25.90 27.66 27.42 27.87 26.85 27.22 28.17 27.11
32.80 28.65 25.25 22.40 21.32 24.69 27.99 30.72 29.53 28.36 26.94 31.21 28.97 28.58 28.66 29.40 28.74 26.68 30.75 30.25 28.89 27.55 26.04 25.02 24.66 24.42 23.70 23.99 25.45 25.18 24.61 24.09 23.35 23.41 24.03 25.18 25.36 25.94 26.38 25.68 25.72 26.25 26.51 27.14
31.39 30.75 27.64 23.63 18.72 14.84 25.26 31.45 34.81 33.72 21.53 31.72 31.59 29.06 28.68 30.25 24.20 24.92 29.25 27.17 25.63 25.16 24.85 23.96 23.71 23.28 22.71 22.88 24.19 23.09 22.91 22.28 21.98 23.20 23.98 24.89 25.49 25.19 25.21 24.99 25.40 25.95 25.92 26.58
25.20 25.68 19.94 22.14 17.92 22.32 30.26 33.29 35.06 23.35 23.00 31.66 31.48 31.13 30.41 26.22 26.29 27.94 26.80 24.95 25.06 24.49 24.03 24.16 23.00 21.09 21.29 22.59 22.93 22.00 21.55 21.20 23.09 24.08 24.70 24.53 24.63 24.63 25.65 24.58 25.27 25.03 24.93 25.65
21.18 21.98 17.02 19.20 12.97 15.14 33.49 32.62 27.60 29.34 30.77 31.35 30.57 30.41 29.76 29.46 27.15 25.76 24.53 23.64 23.12 22.02 22.15 22.44 21.20 20.31 20.62 21.31 21.54 19.87 20.25 22.44 23.50 23.86 23.55 23.20 23.50 24.40 25.43 23.69 24.20 24.32 24.32 23.54
20.00 22.86 21.26 23.13 22.51 30.56 33.94 31.51 33.15 32.99 30.70 30.55 30.57 31.27 30.59 27.28 25.00 24.04 22.71 22.34 21.80 21.07 19.84 20.71 19.66 19.86 19.98 20.57 20.59 19.28 19.94 21.42 22.47 23.09 21.50 21.49 22.59 23.58 23.80 22.72 22.90 22.24 22.66 22.42
27.76 30.17 23.40 26.41 28.46 30.35 32.81 33.92 34.02 33.68 32.25 32.69 32.73 30.46 29.00 24.79 24.09 22.22 21.40 20.55 19.51 19.17 18.19 19.26 19.42 17.48 18.59 20.10 21.99 19.11 20.73 21.61 21.07 20.84 17.44 18.52 17.66 22.20 20.22 20.55 21.72 21.18 20.88 21.02
27.22 30.55 27.75 27.36 30.96 32.25 32.48 32.64 32.98 31.93 31.64 30.83 30.81 29.08 26.86 24.83 23.02 21.95 20.71 19.61 18.78 18.40 17.81 18.69 19.06 18.99 18.44 19.93 19.83 19.70 20.54 20.95 19.85 19.80 16.81 16.25 17.07 16.65 15.74 19.56 16.25 18.67 17.30 22.91
30.76 28.21 24.47 23.56 31.58 29.22 30.54 32.39 33.41 30.94 29.26 28.41 26.75 25.59 25.56 24.39 21.92 21.35 19.78 19.68 18.27 17.36 18.20 18.68 19.09 18.95 18.32 18.59 18.67 18.95 19.79 19.77 18.88 18.07 17.62 16.52 17.80 17.07 14.74 15.81 16.12 22.25 23.68 24.48

GFSCGP_sfc_wetblb_162.txt.gz
Wetbulb
37.20 33.23 30.73 33.34 33.93 35.03 33.77 31.12 29.43 30.60 34.21 32.17 32.14 31.13 34.58 35.80 36.22 35.31 35.30 35.67 36.45 36.96 38.58 38.73 38.23 37.20 36.45 36.35 36.13 36.14 35.97 37.08 36.75 36.42 35.97 36.12 35.97 37.19 38.45 39.58 40.62 41.18 41.48 42.21
34.16 31.08 36.04 37.00 36.47 34.97 33.45 31.31 29.77 32.28 34.41 33.55 30.64 27.62 33.36 35.56 34.78 35.28 35.46 35.33 36.11 36.24 36.93 38.12 36.95 35.74 34.58 34.68 35.16 34.85 34.83 35.20 35.63 35.37 35.55 36.25 36.17 37.32 37.77 38.60 39.13 40.30 40.16 41.19
31.86 35.53 38.55 37.24 35.08 34.19 31.68 30.55 30.16 30.79 31.73 31.12 29.19 27.58 32.29 35.12 36.39 37.14 36.80 36.47 36.61 35.99 35.56 36.35 37.00 35.59 33.67 33.02 33.47 33.79 33.85 33.86 34.92 34.94 34.90 35.01 35.48 36.07 35.92 36.58 37.09 38.35 39.27 40.11
33.94 37.41 36.73 34.42 34.44 34.83 29.42 34.09 33.69 31.68 28.75 25.36 28.60 23.10 27.55 32.55 33.35 34.97 35.02 34.34 34.91 35.62 36.29 36.39 35.17 33.57 32.96 32.37 32.32 32.74 33.60 33.21 34.74 34.51 33.20 32.41 31.97 31.57 33.95 35.52 37.68 37.88 38.65 38.22
33.81 33.83 33.13 32.51 34.50 35.19 32.80 35.19 32.85 30.56 26.45 23.71 25.04 24.06 23.12 32.37 30.71 31.78 32.93 33.94 34.16 34.92 35.15 34.91 34.07 33.98 32.21 32.24 30.93 31.25 31.87 32.56 32.99 33.37 32.76 31.95 31.20 32.62 34.06 34.77 35.87 36.89 37.26 37.96
34.32 35.51 35.29 34.68 34.19 34.98 34.87 32.02 29.96 26.96 25.82 21.41 26.39 26.60 22.66 27.28 30.66 32.22 33.57 34.63 34.95 34.68 34.65 34.90 34.55 34.16 32.24 31.77 30.87 30.80 30.81 31.08 32.07 32.40 32.27 31.58 30.83 31.56 32.08 33.31 32.94 35.12 35.78 36.72
32.21 32.06 33.34 35.74 32.11 34.15 31.81 29.62 23.22 21.55 20.76 21.23 26.12 24.11 26.81 30.93 33.48 34.46 34.24 34.43 34.74 34.85 33.88 33.58 33.61 31.90 31.13 30.76 30.62 31.81 30.73 30.57 31.17 31.46 31.37 31.63 31.53 31.48 31.97 32.49 32.99 33.29 34.85 35.40
28.39 25.44 32.63 35.00 33.68 31.41 29.97 30.15 24.08 20.73 18.63 20.53 26.73 21.57 25.53 32.97 34.30 35.39 36.00 34.61 35.08 33.71 34.11 33.67 33.44 31.29 30.70 31.46 31.12 30.86 30.59 30.27 30.80 30.94 30.94 31.31 31.67 31.95 32.51 33.42 32.99 33.29 34.48 35.27
28.03 29.07 32.39 33.59 34.60 35.40 29.83 26.61 31.81 26.19 23.73 20.19 22.45 25.35 31.23 33.03 32.97 34.17 33.22 33.75 33.23 33.15 33.65 33.79 32.90 31.86 31.34 31.20 30.88 30.73 30.57 30.09 30.24 30.28 30.44 30.35 30.97 31.81 31.80 32.54 33.66 33.24 35.01 35.50
34.23 28.09 31.74 32.45 34.48 33.72 32.92 34.45 26.23 25.04 19.30 16.81 18.90 21.65 23.44 29.40 31.07 33.47 31.93 32.27 32.81 33.65 33.92 34.16 32.45 31.87 31.91 31.55 31.02 30.80 30.91 29.75 29.69 29.52 29.86 30.64 30.25 31.28 31.97 32.44 32.40 33.16 33.59 34.48
35.10 31.63 28.55 32.09 29.95 28.94 29.30 27.52 27.61 27.71 24.22 20.40 17.38 20.89 29.57 31.61 33.46 33.20 33.21 34.04 33.12 32.88 33.48 33.50 32.42 32.06 31.61 31.11 29.74 29.41 29.27 28.87 28.61 29.10 29.55 29.33 29.84 30.66 31.37 31.11 31.73 33.08 32.72 33.84
35.92 31.71 25.90 27.76 32.00 32.97 30.53 28.94 28.73 23.13 22.09 21.67 18.62 21.77 32.34 33.09 34.94 35.24 34.45 35.36 33.29 33.26 32.81 32.89 31.83 30.95 29.90 29.16 29.17 28.13 27.82 27.91 28.57 29.23 28.83 28.53 29.43 30.12 29.81 30.36 31.33 31.25 31.22 32.82
35.21 29.74 24.19 26.08 28.28 29.99 28.57 29.59 29.35 27.03 24.85 22.01 16.73 22.75 32.22 33.03 33.92 35.19 34.39 33.61 33.14 32.42 31.63 31.05 30.66 28.63 25.68 25.79 27.14 27.85 27.41 27.58 28.11 28.33 27.73 27.77 28.21 28.34 28.67 29.63 30.70 30.69 31.12 31.45
39.59 30.97 29.38 26.45 28.07 29.36 27.30 27.89 28.05 27.23 20.51 22.36 24.24 26.19 28.86 30.63 31.95 32.64 32.91 32.46 31.43 31.65 31.43 29.96 29.12 28.68 26.04 26.63 24.54 25.30 26.92 27.37 27.55 27.58 26.67 26.23 26.84 27.75 28.43 29.81 30.17 30.28 30.81 31.02
35.36 28.42 29.34 29.44 31.00 30.29 29.24 27.30 27.24 26.65 29.07 24.56 28.24 26.00 28.36 31.65 32.27 33.24 32.45 31.74 30.93 30.76 30.65 29.87 28.44 27.44 27.12 27.18 27.16 27.15 27.17 27.02 27.16 25.96 25.69 25.62 26.78 27.68 28.89 28.72 29.19 29.53 30.05 30.70
32.95 27.95 28.45 26.90 29.62 29.88 27.23 26.27 27.82 28.47 27.35 26.27 26.32 26.12 31.15 33.33 32.38 31.07 31.40 30.70 30.12 30.02 29.95 29.58 28.90 27.86 27.00 26.32 26.14 27.03 26.28 26.14 26.27 24.92 24.69 25.92 26.15 26.49 27.78 27.57 27.78 27.59 28.21 29.25
30.64 28.57 26.65 25.43 28.06 27.60 24.39 25.80 27.00 27.19 27.75 28.48 24.49 29.98 30.84 30.60 32.24 31.33 29.90 30.30 29.27 29.57 29.16 28.54 26.81 25.54 25.21 24.45 26.06 24.20 24.68 25.50 24.54 23.87 24.49 25.33 25.55 25.32 26.07 27.42 26.35 26.18 26.09 27.21
29.68 28.98 27.50 25.15 25.84 19.02 27.46 31.18 30.55 28.72 29.09 29.23 28.09 28.16 29.55 29.76 28.69 29.09 29.29 28.87 29.21 28.89 27.93 25.94 24.31 23.59 23.30 23.77 24.92 25.14 24.56 23.88 23.59 23.39 23.71 24.44 24.64 24.67 25.42 25.46 24.90 25.32 25.73 25.58
33.81 30.01 27.05 23.38 23.31 26.27 28.18 29.46 28.30 27.79 27.02 30.82 28.41 26.90 27.16 28.16 27.82 26.21 30.12 29.95 28.19 26.36 24.46 23.16 22.91 22.38 21.88 22.55 23.95 23.95 23.26 22.57 22.68 22.81 23.06 23.88 24.38 24.17 24.50 24.33 23.82 24.86 24.73 24.94
32.91 31.62 27.52 25.21 21.09 17.59 25.62 30.63 34.07 32.26 21.98 30.83 29.63 27.64 27.68 28.60 23.95 23.89 25.86 25.88 23.92 23.61 23.33 21.99 21.62 21.29 20.79 20.91 22.56 21.83 21.58 21.44 21.24 22.72 23.35 23.97 24.33 23.62 23.94 24.15 23.33 24.45 24.25 24.83
25.69 25.92 24.29 25.08 21.37 24.36 29.64 32.43 34.31 23.60 22.99 30.32 30.32 28.94 28.73 24.90 24.88 25.58 24.83 23.62 23.69 22.94 22.34 22.39 20.94 19.41 19.22 20.62 21.50 20.92 20.42 19.86 22.18 23.46 24.07 23.55 23.62 23.35 24.42 23.79 23.44 23.18 23.12 23.47
23.85 22.14 21.19 23.75 21.89 18.74 32.89 32.33 28.05 29.13 30.13 30.29 29.61 29.36 27.71 25.31 25.16 24.20 23.24 22.43 21.89 20.33 20.60 20.77 19.77 17.96 18.84 19.64 20.52 17.73 17.74 21.12 22.32 22.82 22.71 22.15 22.41 22.97 23.96 22.36 22.98 22.67 22.10 21.81
25.06 26.23 23.74 25.51 25.03 31.37 33.70 31.31 32.18 32.06 30.41 29.51 29.20 30.12 27.10 24.99 23.68 23.28 21.16 20.51 19.92 19.30 18.25 19.54 18.10 18.38 19.11 19.48 19.82 16.90 18.95 20.80 21.23 21.44 20.91 20.47 21.28 21.57 22.36 21.11 21.32 21.02 21.00 20.65
28.81 29.05 23.14 27.62 29.36 29.79 30.86 32.05 32.16 31.97 30.39 31.38 32.00 28.87 27.34 24.06 23.37 21.28 20.00 18.93 17.98 17.62 17.27 18.63 17.09 16.71 17.72 19.31 20.26 18.33 20.39 20.49 19.79 19.10 15.40 17.06 15.56 19.80 18.68 18.75 20.16 18.81 18.96 18.68
28.33 30.24 27.14 28.31 30.17 30.83 30.63 30.23 31.16 31.03 31.61 30.35 29.89 28.18 25.46 24.22 22.28 21.50 19.76 17.85 16.83 17.53 17.66 18.28 18.52 18.18 17.29 18.56 18.52 18.71 19.08 19.46 18.17 18.14 13.21 13.89 14.30 13.02 15.34 16.93 14.44 19.10 14.54 20.93
29.56 27.61 24.38 22.97 29.97 28.19 29.52 30.72 31.60 30.01 28.75 28.71 26.54 24.64 24.63 23.73 21.60 20.64 18.79 18.46 17.37 16.96 17.99 18.26 18.59 17.83 17.11 17.23 17.21 16.60 17.18 17.42 17.27 16.43 14.84 13.63 15.00 13.52 13.55 13.22 14.36 20.21 22.45 22.86